[[{"header":{"parameterUnit":"m.s-1","parameterCategory":1,"la1":30.6,"la2":29.2853,"lo1":-89.7004,"lo2":-87.6739,"dy":0.0162,"dx":0.0183,"nx":112,"ny":82,"refTime":"2024-04-10T18:00:00:Z","depth":0,"parameterNumber":2,"parameterNumberName":"U-component_of_WINDS"},"data":[0.0,0.0,0.0,0.0,0.0,0.0,0.0,0.0,0.0,0.0,0.0,0.0,0.0,0.0,0.0,0.0,0.0,0.0,0.0,0.0,0.0,0.0,0.0,0.0,0.0,0.0,0.0,0.0,0.0,0.0,0.0,0.0,0.0,0.0,0.0,0.0,0.0,0.0,0.0,0.0,0.0,0.0,0.0,0.0,0.0,0.0,0.0,0.0,0.0,0.0,0.0,0.0,0.0,0.0,0.0,0.0,0.0,0.0,0.0,0.0,0.0,0.0,0.0,0.0,0.0,0.0,0.0,0.0,0.0,0.0,0.0,0.0,0.0,0.0,0.0,0.0,0.0,0.0,0.0,0.0,0.0,0.0,0.0,0.0,0.0,0.0,0.0,0.0,0.0,0.0,-4.1113,-4.2617,-4.7344,-5.1055,-5.2773,-5.1738,-5.0078,-4.791,0.0,0.0,0.0,0.0,0.0,0.0,0.0,0.0,0.0,0.0,0.0,0.0,0.0,0.0,0.0,0.0,0.0,0.0,0.0,0.0,0.0,0.0,0.0,0.0,0.0,0.0,0.0,0.0,0.0,0.0,0.0,0.0,0.0,0.0,0.0,0.0,0.0,0.0,0.0,0.0,0.0,0.0,0.0,0.0,0.0,0.0,0.0,0.0,0.0,0.0,0.0,0.0,0.0,0.0,0.0,0.0,0.0,0.0,0.0,0.0,0.0,0.0,0.0,0.0,0.0,0.0,0.0,0.0,0.0,0.0,0.0,0.0,0.0,0.0,0.0,0.0,0.0,0.0,0.0,0.0,0.0,0.0,0.0,0.0,0.0,0.0,0.0,0.0,0.0,0.0,0.0,0.0,0.0,0.0,0.0,0.0,0.0,0.0,0.0,0.0,0.0,0.0,0.0,0.0,-4.2246,-4.6758,-4.9648,-5.1933,-5.3691,-5.2637,-5.0957,-4.8808,0.0,0.0,0.0,0.0,0.0,0.0,0.0,0.0,0.0,0.0,0.0,0.0,0.0,0.0,0.0,0.0,0.0,0.0,0.0,0.0,0.0,0.0,0.0,0.0,0.0,0.0,0.0,0.0,0.0,0.0,0.0,0.0,0.0,0.0,0.0,0.0,0.0,0.0,0.0,0.0,0.0,0.0,0.0,0.0,0.0,0.0,0.0,0.0,0.0,0.0,0.0,0.0,0.0,0.0,0.0,0.0,0.0,0.0,0.0,0.0,0.0,0.0,0.0,0.0,0.0,0.0,0.0,0.0,0.0,0.0,0.0,0.0,0.0,0.0,0.0,0.0,0.0,0.0,0.0,0.0,0.0,0.0,0.0,0.0,0.0,0.0,0.0,0.0,0.0,0.0,0.0,0.0,0.0,0.0,0.0,0.0,0.0,0.0,0.0,0.0,0.0,0.0,0.0,-4.166,-4.4141,-4.8125,-5.0078,-5.1699,-5.3183,-5.2129,-5.0566,-4.8633,-4.6152,0.0,0.0,0.0,0.0,0.0,0.0,0.0,0.0,0.0,0.0,0.0,0.0,0.0,0.0,0.0,0.0,0.0,0.0,0.0,0.0,0.0,0.0,0.0,0.0,0.0,0.0,0.0,0.0,0.0,0.0,0.0,0.0,0.0,0.0,0.0,0.0,0.0,0.0,0.0,0.0,0.0,0.0,0.0,0.0,0.0,0.0,0.0,0.0,0.0,0.0,0.0,0.0,0.0,0.0,0.0,0.0,0.0,0.0,0.0,0.0,0.0,0.0,0.0,0.0,0.0,0.0,0.0,0.0,0.0,0.0,0.0,0.0,0.0,0.0,0.0,0.0,0.0,0.0,0.0,0.0,0.0,0.0,0.0,0.0,0.0,0.0,0.0,0.0,0.0,0.0,0.0,0.0,0.0,0.0,0.0,0.0,0.0,0.0,0.0,0.0,0.0,0.0,-4.334,-4.5394,-4.7492,-4.8918,-5.0026,-5.0459,-5.0103,-4.8918,-4.7213,-4.6094,0.0,0.0,0.0,0.0,0.0,0.0,0.0,0.0,0.0,0.0,0.0,0.0,0.0,0.0,0.0,0.0,0.0,0.0,0.0,0.0,0.0,0.0,0.0,0.0,0.0,0.0,0.0,0.0,0.0,0.0,0.0,0.0,0.0,0.0,0.0,0.0,0.0,0.0,0.0,0.0,0.0,0.0,0.0,0.0,0.0,0.0,0.0,0.0,0.0,0.0,0.0,0.0,0.0,0.0,0.0,0.0,0.0,0.0,0.0,0.0,0.0,0.0,0.0,0.0,0.0,0.0,0.0,0.0,0.0,0.0,0.0,0.0,0.0,0.0,0.0,0.0,0.0,0.0,0.0,0.0,0.0,0.0,0.0,0.0,0.0,0.0,0.0,0.0,0.0,0.0,0.0,0.0,0.0,0.0,0.0,0.0,0.0,0.0,0.0,0.0,0.0,0.0,-4.3418,-4.476,-4.4088,-4.5825,-4.6359,-4.4564,-4.5699,-4.5752,-4.414,-4.4736,0.0,0.0,0.0,0.0,0.0,0.0,0.0,0.0,0.0,0.0,0.0,0.0,0.0,0.0,0.0,0.0,0.0,0.0,0.0,0.0,0.0,0.0,0.0,0.0,0.0,0.0,0.0,0.0,0.0,0.0,0.0,0.0,0.0,0.0,0.0,0.0,0.0,0.0,0.0,0.0,0.0,0.0,0.0,0.0,0.0,0.0,0.0,0.0,0.0,0.0,0.0,0.0,0.0,0.0,0.0,0.0,0.0,0.0,0.0,0.0,0.0,0.0,0.0,0.0,0.0,0.0,0.0,0.0,0.0,0.0,0.0,0.0,0.0,0.0,0.0,0.0,0.0,0.0,0.0,0.0,0.0,0.0,0.0,0.0,0.0,0.0,0.0,0.0,0.0,0.0,0.0,0.0,0.0,0.0,0.0,0.0,0.0,0.0,0.0,0.0,0.0,0.0,-4.0295,-4.0806,-4.1591,-4.2827,-4.3343,-4.269,-4.3037,-4.3053,-4.2982,0.0,0.0,0.0,0.0,0.0,0.0,0.0,0.0,0.0,0.0,0.0,0.0,0.0,0.0,0.0,0.0,0.0,0.0,0.0,0.0,0.0,0.0,0.0,0.0,0.0,0.0,0.0,0.0,0.0,0.0,0.0,0.0,0.0,0.0,0.0,0.0,0.0,0.0,0.0,0.0,0.0,0.0,0.0,0.0,0.0,0.0,0.0,0.0,0.0,0.0,0.0,0.0,0.0,0.0,0.0,0.0,0.0,0.0,0.0,0.0,0.0,0.0,0.0,0.0,0.0,0.0,0.0,0.0,0.0,0.0,0.0,0.0,0.0,0.0,0.0,0.0,0.0,0.0,0.0,0.0,0.0,0.0,0.0,0.0,0.0,0.0,0.0,0.0,0.0,0.0,0.0,0.0,0.0,0.0,0.0,0.0,0.0,0.0,0.0,0.0,0.0,0.0,-3.8976,-3.8563,-3.8186,-3.8836,-3.9836,-4.0102,-3.9402,-3.9657,-4.0273,-4.143,0.0,0.0,0.0,0.0,0.0,0.0,0.0,0.0,0.0,0.0,0.0,0.0,0.0,0.0,0.0,0.0,0.0,0.0,0.0,0.0,0.0,0.0,0.0,0.0,0.0,0.0,0.0,0.0,0.0,0.0,0.0,0.0,0.0,0.0,0.0,0.0,0.0,0.0,0.0,0.0,0.0,0.0,0.0,0.0,0.0,0.0,0.0,0.0,0.0,0.0,0.0,0.0,0.0,0.0,0.0,0.0,0.0,0.0,0.0,0.0,0.0,0.0,0.0,0.0,0.0,0.0,0.0,0.0,0.0,0.0,0.0,0.0,0.0,0.0,0.0,0.0,0.0,0.0,0.0,0.0,0.0,0.0,0.0,0.0,0.0,0.0,0.0,0.0,0.0,0.0,0.0,0.0,0.0,0.0,0.0,0.0,0.0,0.0,0.0,0.0,0.0,0.0,-3.9277,-3.8608,-3.7456,-3.5772,-3.6832,-3.6491,-3.3627,-3.5251,-3.7257,0.0,0.0,0.0,0.0,0.0,0.0,0.0,0.0,0.0,0.0,0.0,0.0,0.0,0.0,0.0,0.0,0.0,0.0,0.0,0.0,0.0,0.0,0.0,0.0,0.0,0.0,0.0,0.0,0.0,0.0,0.0,0.0,0.0,0.0,0.0,0.0,0.0,0.0,0.0,0.0,0.0,0.0,0.0,0.0,0.0,0.0,0.0,0.0,0.0,0.0,0.0,0.0,0.0,0.0,0.0,0.0,0.0,0.0,0.0,0.0,0.0,0.0,0.0,0.0,0.0,0.0,0.0,0.0,0.0,0.0,0.0,0.0,0.0,0.0,0.0,0.0,0.0,0.0,0.0,0.0,0.0,0.0,0.0,0.0,0.0,0.0,0.0,0.0,0.0,0.0,0.0,0.0,0.0,0.0,0.0,0.0,0.0,0.0,0.0,0.0,0.0,0.0,0.0,-3.5272,-3.4542,-3.3922,-3.3796,-3.4779,-3.4774,-3.348,-3.3728,-3.4724,-3.6265,0.0,0.0,0.0,0.0,0.0,0.0,0.0,0.0,0.0,0.0,0.0,0.0,0.0,0.0,0.0,0.0,0.0,0.0,0.0,0.0,0.0,0.0,0.0,0.0,0.0,0.0,0.0,0.0,0.0,0.0,0.0,0.0,0.0,0.0,0.0,0.0,0.0,0.0,0.0,0.0,0.0,0.0,0.0,0.0,0.0,0.0,0.0,0.0,0.0,0.0,0.0,0.0,0.0,0.0,0.0,0.0,0.0,0.0,0.0,0.0,0.0,0.0,0.0,0.0,0.0,0.0,0.0,0.0,0.0,0.0,0.0,0.0,0.0,0.0,0.0,0.0,0.0,0.0,0.0,0.0,0.0,0.0,0.0,0.0,0.0,0.0,0.0,0.0,0.0,0.0,0.0,0.0,0.0,0.0,0.0,0.0,0.0,0.0,0.0,0.0,0.0,0.0,-3.423,-3.3086,-3.2679,-3.328,-3.4042,-3.4349,-3.4002,-3.3587,-3.3959,-3.5587,0.0,0.0,0.0,0.0,0.0,0.0,0.0,0.0,0.0,0.0,0.0,0.0,0.0,0.0,0.0,0.0,0.0,0.0,0.0,0.0,0.0,0.0,0.0,0.0,0.0,0.0,0.0,0.0,0.0,0.0,0.0,0.0,0.0,0.0,0.0,0.0,0.0,0.0,0.0,0.0,0.0,0.0,0.0,0.0,0.0,0.0,0.0,0.0,0.0,0.0,0.0,0.0,0.0,0.0,0.0,0.0,0.0,0.0,0.0,0.0,0.0,0.0,0.0,0.0,0.0,0.0,0.0,0.0,0.0,0.0,0.0,0.0,0.0,0.0,0.0,0.0,0.0,0.0,0.0,0.0,0.0,0.0,0.0,0.0,0.0,0.0,0.0,0.0,0.0,0.0,0.0,0.0,0.0,0.0,0.0,0.0,0.0,0.0,0.0,0.0,0.0,0.0,-3.4823,-3.3865,-3.3334,-3.3948,-3.4536,-3.487,-3.4843,-3.4282,-3.4647,-3.6114,0.0,0.0,0.0,0.0,0.0,0.0,0.0,0.0,0.0,0.0,0.0,0.0,0.0,0.0,0.0,0.0,0.0,0.0,0.0,0.0,0.0,0.0,0.0,0.0,0.0,0.0,0.0,0.0,0.0,0.0,0.0,0.0,0.0,0.0,0.0,0.0,0.0,0.0,0.0,0.0,0.0,0.0,0.0,0.0,0.0,0.0,0.0,0.0,0.0,0.0,0.0,0.0,0.0,0.0,0.0,0.0,0.0,0.0,0.0,0.0,-3.6112,-3.5364,0.0,0.0,0.0,0.0,0.0,0.0,0.0,0.0,0.0,0.0,0.0,0.0,0.0,0.0,0.0,0.0,0.0,0.0,0.0,0.0,0.0,0.0,0.0,0.0,0.0,0.0,0.0,0.0,0.0,0.0,0.0,0.0,0.0,0.0,0.0,0.0,0.0,0.0,0.0,0.0,-3.3064,-3.3733,-3.4255,-3.4857,-3.5444,-3.5698,-3.5458,-3.4696,-3.4178,-3.4159,-3.442,0.0,0.0,0.0,0.0,0.0,0.0,0.0,0.0,0.0,0.0,0.0,0.0,0.0,0.0,0.0,0.0,0.0,0.0,0.0,0.0,0.0,0.0,0.0,0.0,0.0,0.0,0.0,0.0,0.0,0.0,0.0,0.0,0.0,0.0,0.0,0.0,0.0,0.0,0.0,0.0,0.0,0.0,0.0,0.0,0.0,0.0,0.0,0.0,0.0,0.0,0.0,0.0,0.0,0.0,0.0,0.0,0.0,0.0,0.0,0.0,-3.7021,0.0,0.0,0.0,0.0,0.0,0.0,0.0,0.0,0.0,0.0,0.0,0.0,0.0,0.0,0.0,0.0,0.0,0.0,0.0,0.0,0.0,0.0,0.0,0.0,0.0,0.0,0.0,0.0,0.0,0.0,0.0,0.0,0.0,0.0,0.0,0.0,0.0,0.0,0.0,0.0,-3.3133,-3.4215,-3.5177,-3.5765,-3.6353,-3.658,-3.6286,-3.5578,-3.479,-3.3921,-3.3741,0.0,0.0,0.0,0.0,0.0,0.0,0.0,0.0,0.0,0.0,0.0,0.0,0.0,0.0,0.0,0.0,0.0,0.0,0.0,0.0,0.0,0.0,0.0,0.0,0.0,0.0,0.0,0.0,0.0,0.0,0.0,0.0,0.0,0.0,0.0,0.0,0.0,0.0,0.0,0.0,0.0,0.0,0.0,0.0,0.0,0.0,0.0,0.0,0.0,0.0,0.0,0.0,0.0,-4.163,-4.1924,-4.2191,-4.2298,-4.2445,-4.2552,-4.0294,-3.9132,-3.8771,-3.8143,0.0,0.0,0.0,0.0,0.0,0.0,0.0,0.0,0.0,0.0,0.0,0.0,0.0,0.0,0.0,0.0,0.0,0.0,0.0,0.0,0.0,0.0,-3.4282,-3.4616,-3.5004,-3.503,-3.4028,0.0,0.0,0.0,0.0,0.0,0.0,0.0,0.0,0.0,0.0,0.0,-3.3881,-3.4977,-3.5925,-3.6513,-3.7088,-3.7342,-3.7048,-3.6473,-3.5672,-3.4549,-3.336,-3.3381,0.0,0.0,0.0,0.0,0.0,0.0,0.0,0.0,0.0,0.0,0.0,0.0,0.0,0.0,0.0,0.0,0.0,0.0,0.0,0.0,0.0,0.0,0.0,0.0,0.0,0.0,0.0,0.0,0.0,0.0,0.0,0.0,-3.7168,-3.7529,0.0,0.0,0.0,0.0,0.0,0.0,0.0,0.0,0.0,0.0,0.0,0.0,0.0,-4.2004,-4.2298,-4.2365,-4.2512,-4.2806,-4.338,-4.3674,-4.3714,-4.4222,-4.4476,-4.4476,-4.3888,0.0,-4.0909,-4.0294,0.0,0.0,0.0,0.0,0.0,0.0,0.0,0.0,0.0,0.0,0.0,0.0,0.0,0.0,0.0,0.0,0.0,0.0,0.0,0.0,0.0,0.0,-3.5538,-3.6086,-3.6834,-3.7382,-3.7195,-3.5979,-3.491,-3.491,-3.4456,-3.3921,0.0,0.0,0.0,0.0,0.0,0.0,-3.4189,-3.5284,-3.6233,-3.6834,-3.7408,-3.7635,-3.7342,-3.6794,-3.6059,-3.5137,-3.3975,-3.3251,-3.3021,-3.1799,0.0,0.0,0.0,0.0,0.0,0.0,0.0,0.0,0.0,0.0,0.0,0.0,0.0,0.0,0.0,0.0,0.0,0.0,0.0,0.0,0.0,0.0,0.0,0.0,0.0,0.0,0.0,0.0,0.0,-3.7809,-3.8504,-3.8798,-3.9092,-3.8768,0.0,0.0,0.0,0.0,0.0,0.0,0.0,0.0,0.0,-4.302,-4.3167,-4.3273,-4.342,-4.3754,-4.3968,-4.4115,-4.469,-4.5171,-4.5491,-4.5745,-4.6039,-4.6333,-4.6039,-4.5384,-4.4409,-4.2485,-4.1456,-4.0989,0.0,0.0,0.0,0.0,-3.9827,-3.996,-4.0147,-4.0107,-3.9641,-3.7253,0.0,0.0,0.0,0.0,0.0,0.0,0.0,-3.6299,-3.658,-3.7008,-3.7555,-3.8317,-3.8905,-3.9346,-3.9519,-3.8838,-3.7716,-3.6219,-3.5458,-3.487,-3.4269,-3.3921,0.0,0.0,0.0,-3.4442,-3.5204,-3.6179,-3.7021,-3.7635,-3.8076,-3.8143,-3.7676,-3.7235,-3.654,-3.5511,-3.4643,-3.3841,-3.308,-3.2358,-3.3007,0.0,0.0,0.0,0.0,0.0,0.0,0.0,0.0,0.0,0.0,0.0,0.0,0.0,0.0,0.0,0.0,0.0,0.0,0.0,0.0,0.0,0.0,0.0,0.0,0.0,0.0,0.0,0.0,-3.8972,-3.9626,-4.0,-4.0294,-4.0477,0.0,0.0,0.0,0.0,0.0,0.0,-4.3527,-4.3607,-4.3901,-4.4436,-4.4436,-4.4476,-4.4556,-4.4984,-4.5277,-4.5465,-4.5972,-4.6467,-4.6948,-4.7094,-4.7428,-4.7829,-4.7682,-4.7535,-4.7215,-4.4556,-4.3233,-4.2806,-4.1924,-4.1523,-4.1456,-4.139,-4.1416,-4.1261,-4.0683,-4.0065,-3.9533,-3.6476,-3.5941,-3.5502,-3.214,0.0,0.0,0.0,0.0,-3.8036,-3.8397,-3.8878,-3.9493,-4.0401,-4.0802,-4.1096,-4.131,-4.1056,-4.008,-3.7662,-3.6727,-3.6099,-3.5431,-3.5017,0.0,-3.467,-3.491,-3.5351,-3.6086,-3.6941,-3.7676,-3.8223,-3.8477,-3.8397,-3.7849,-3.7489,-3.6834,-3.5805,-3.5124,-3.4429,-3.3694,-3.2946,-3.3381,-3.5031,0.0,0.0,0.0,0.0,0.0,0.0,0.0,0.0,0.0,0.0,0.0,0.0,0.0,0.0,0.0,0.0,0.0,0.0,0.0,0.0,0.0,0.0,0.0,0.0,0.0,0.0,0.0,0.0,0.0,-4.1189,-4.1523,0.0,0.0,0.0,0.0,-3.9207,-4.2246,-4.4476,-4.477,-4.5064,-4.5344,-4.5638,-4.5665,-4.5785,-4.6079,-4.6119,-4.6413,-4.6961,-4.7282,-4.7575,-4.7896,-4.8444,-4.8698,-4.8764,-4.9058,-4.8845,-4.8163,-4.6333,-4.5237,-4.4663,-4.3741,-4.3233,-4.2953,-4.2659,-4.2739,-4.2437,-3.9008,-3.7553,-3.7306,-3.6768,-3.83,-4.0053,-3.9217,-3.9006,0.0,0.0,-3.9242,-3.964,-4.0187,-4.0588,-4.1016,-4.1897,-4.2338,-4.2552,-4.2552,-4.2111,-4.1203,-3.9372,-3.8544,-3.7849,-3.6981,0.0,-3.5885,-3.5605,-3.5819,-3.6126,-3.6433,-3.7235,-3.7929,-3.8223,-3.8263,-3.8143,-3.7849,-3.7301,-3.6687,-3.6086,-3.5244,-3.4616,-3.4295,-3.316,-3.2727,-3.2713,-3.2149,0.0,0.0,0.0,0.0,0.0,0.0,0.0,0.0,0.0,0.0,0.0,0.0,0.0,0.0,0.0,0.0,0.0,0.0,0.0,0.0,0.0,0.0,0.0,0.0,0.0,0.0,0.0,0.0,-4.2365,-4.2552,0.0,-4.2242,-4.3295,-4.385,-4.3156,-4.4266,-4.5424,-4.5718,-4.5999,-4.6293,-4.6587,-4.6774,-4.6921,-4.7028,-4.7201,-4.7428,-4.7642,-4.811,-4.8511,-4.8805,-4.9205,-4.9499,-4.9673,-4.9793,-4.9606,-4.9179,-4.8364,-4.7348,-4.6186,-4.5304,-4.4903,-4.477,-4.4476,-4.4436,-4.3982,-4.0317,-4.0369,-4.179,-3.8571,-3.6639,-3.5344,-3.4823,-3.6086,-3.7705,-3.7705,-3.9344,-4.1096,-4.1497,-4.1817,-4.2218,-4.2913,-4.3127,-4.3167,-4.298,-4.2766,-4.2258,-4.1096,-3.992,-3.8905,-3.821,-3.7595,-3.7088,-3.6794,-3.6834,-3.7021,-3.7301,-3.7782,-3.8223,-3.8504,-3.837,-3.8143,-3.7849,-3.7261,-3.6607,-3.5832,-3.5311,-3.4656,-3.3774,-3.3146,-3.2652,-3.2265,-3.1877,-3.184,0.0,0.0,0.0,0.0,0.0,0.0,0.0,0.0,0.0,0.0,0.0,0.0,0.0,0.0,0.0,0.0,0.0,0.0,0.0,0.0,0.0,0.0,0.0,0.0,0.0,0.0,-4.2592,-4.3567,-4.3714,-4.4035,-4.4943,-4.5277,-4.5598,-4.5892,-4.4747,-4.4448,-4.4729,-4.3481,-4.3158,-4.3525,-4.3721,-4.4435,-4.6009,-4.6188,-4.6924,-4.8551,-4.8911,-4.9286,-4.9579,-4.986,-5.0114,-5.0301,-5.0408,-5.0221,-4.986,-4.9646,-4.8885,-4.7722,-4.6841,-4.644,-4.6333,-4.6119,-4.5999,-4.5341,-4.1657,-4.1641,-4.2794,-3.9665,-3.7554,-3.6399,-3.5979,-3.7233,-3.8845,-3.8845,-4.0503,-4.2298,-4.2579,-4.2806,-4.31,-4.3567,-4.3674,-4.3607,-4.3314,-4.3167,-4.2873,-4.2071,-4.0989,-4.0,-3.9412,-3.8731,-3.8183,-3.7889,-3.7742,-3.7742,-3.7929,-3.8223,-3.8504,-3.8691,-3.8357,-3.7996,-3.7702,-3.6941,-3.6166,-3.5378,-3.487,-3.4189,-3.3307,-3.2893,-3.2505,-3.2104,-3.1717,-3.1691,-3.2195,0.0,0.0,0.0,0.0,0.0,0.0,0.0,0.0,0.0,0.0,0.0,0.0,0.0,0.0,0.0,0.0,0.0,0.0,0.0,0.0,0.0,0.0,0.0,-4.2699,-4.2953,-4.3607,-4.477,-4.4917,-4.5277,-4.6119,-4.6493,-4.6507,-4.6799,-4.328,-4.1481,-4.1772,-3.7959,-3.609,-3.6521,-3.6551,-3.8465,-4.2892,-4.2904,-4.5152,-4.9428,-4.974,-4.99,-5.0181,-5.0475,-5.0595,-5.0635,-5.0915,-5.0702,-5.0154,-5.0154,-4.982,-4.9205,-4.8297,-4.7789,-4.7535,-4.7522,-4.7038,-4.6142,-4.2399,-4.0628,-4.0043,-3.9812,-4.1749,-4.3995,-4.3674,-4.338,-4.3127,-4.3127,-4.3127,-4.3207,-4.3461,-4.3527,-4.3607,-4.3928,-4.3995,-4.3888,-4.3567,-4.3273,-4.2913,-4.2325,-4.1737,-4.1163,-4.0588,-3.9746,-3.9078,-3.8798,-3.8477,0.0,-3.8263,-3.8544,-3.8718,-3.8718,-3.8183,-3.7702,-3.7382,-3.6286,-3.5364,-3.4776,-3.3881,-3.3253,-3.2946,-3.2385,-3.2078,-3.2078,-3.1503,-3.2473,-3.4815,0.0,0.0,0.0,0.0,0.0,0.0,0.0,0.0,0.0,0.0,0.0,0.0,0.0,0.0,0.0,0.0,0.0,0.0,0.0,0.0,0.0,-4.3167,-4.3781,-4.3354,-4.3928,-4.4663,-4.5424,-4.5892,-4.6333,-4.6774,-4.4646,-4.3297,-4.3553,-3.9962,-3.7831,-3.805,-3.7325,-3.6862,-3.6972,-3.7133,-3.7865,-3.9149,-4.2216,-4.442,-4.5412,-4.8713,-5.0408,-5.0475,-5.0768,-5.0915,-5.0915,-5.0996,-5.0702,-5.0154,-5.0154,-4.982,-4.9245,-4.8764,-4.8511,-4.8114,-4.4949,-4.1737,-3.9708,-4.4051,-4.3344,-4.0864,-4.3155,-4.4423,-4.4917,-4.4583,-4.4289,-4.4075,-4.4075,-4.3928,-4.3781,-4.3861,-4.3861,-4.3821,-4.3714,-4.3674,-4.3527,-4.302,-4.2659,-4.2365,-4.1964,-4.1416,-4.0909,-4.0548,-3.992,-3.9372,-3.9078,-3.8798,-3.8584,-3.8584,-3.8691,-3.8651,-3.8397,-3.8036,-3.7595,-3.7088,-3.5992,-3.5057,-3.4469,-3.34,-3.2559,-3.2051,-3.1877,-3.169,-3.1476,-3.1102,-3.1872,0.0,0.0,0.0,0.0,0.0,0.0,0.0,0.0,0.0,0.0,0.0,0.0,0.0,0.0,0.0,0.0,0.0,0.0,0.0,0.0,0.0,0.0,-4.4222,-4.4943,-4.4837,-4.5277,-4.5825,-4.64,-4.546,-4.4722,-4.5101,-4.1982,-3.9954,-3.9886,-3.649,-3.4547,-3.4669,-3.2953,-3.2139,-3.2208,-3.2632,-3.3352,-3.5277,-3.7775,-4.0868,-4.4295,-4.6939,-4.8913,-5.0768,-5.0956,-5.1022,-5.1022,-5.1022,-5.0702,-5.0154,-5.0154,-4.8871,-4.6813,0.0,0.0,0.0,0.0,-4.0946,-3.9491,-4.5427,-4.5849,-4.3846,-4.5407,-4.5825,-4.5451,-4.5131,-4.477,-4.4436,-4.4436,-4.4222,-4.4008,-4.4008,-4.4008,-4.3928,-4.3594,-4.3527,-4.334,-4.2619,-4.2325,-4.2071,-4.1523,-4.1056,0.0,-4.0187,-3.9813,-3.9493,-3.9199,-3.8905,-3.8718,-3.8718,-3.8718,-3.8611,-3.829,-3.7996,-3.7529,-3.6834,-3.5685,0.0,0.0,0.0,-3.2158,-3.169,-3.1664,0.0,0.0,0.0,-3.1614,-3.2674,-3.2856,0.0,0.0,-3.6114,-3.5958,0.0,0.0,0.0,0.0,0.0,0.0,0.0,0.0,0.0,0.0,0.0,0.0,0.0,0.0,0.0,0.0,-4.4305,-4.525,-4.5304,-4.5434,-4.5924,-4.6653,-4.348,-4.15,-4.1926,-3.8591,-3.6394,-3.6601,-3.3121,-3.0768,-3.0793,0.0,0.0,0.0,0.0,-2.7658,-3.1561,-3.1887,-3.6282,-4.411,-4.4432,-4.6928,-5.1022,-5.1022,-5.1022,-5.1022,-5.1022,-5.0702,-5.0181,-4.9552,-4.6409,-4.1971,-4.2282,-4.2294,-4.1948,-4.2612,-4.2356,-4.2099,-4.6548,0.0,0.0,-4.6734,-4.5949,-4.5157,-4.484,-4.4095,-4.3088,-4.3088,-4.3147,-4.3467,-4.3467,-4.3705,-4.3861,-4.3567,-4.342,-4.3167,-4.2325,-4.2111,-4.1857,-4.1056,-4.0655,-4.0254,-3.9706,-3.9559,-3.9452,-3.9159,-3.8905,-3.8718,-3.8718,-3.8691,-3.8544,-3.825,-3.7929,0.0,-3.654,-3.5418,-3.4376,-3.3467,-3.2519,-3.1891,-3.1623,-3.1623,-3.1623,-3.1623,-3.1356,-3.1209,-3.1169,-3.1169,-3.1196,-3.1223,-3.3114,-3.2802,0.0,0.0,0.0,0.0,0.0,0.0,0.0,0.0,0.0,0.0,0.0,0.0,0.0,0.0,0.0,-3.6274,-3.9344,-4.0991,-3.8471,-3.8605,-3.9932,-4.2883,-4.0163,-3.8155,-3.8237,-3.48,-3.2527,-3.271,-2.9053,-2.6944,-2.7072,-2.6129,-2.583,-2.5864,-2.5864,-2.6184,-2.7172,-3.0633,-3.4716,-3.9741,0.0,0.0,-5.1022,-5.1022,-5.1022,-5.1022,-5.1022,-5.0849,-5.0185,-4.6833,-4.0597,-3.3807,-3.7124,-3.6227,-3.4093,-4.0494,-4.0547,-3.8531,-4.5379,-4.7535,-4.7028,-4.6734,-4.4384,-4.1464,-4.0981,-3.8659,0.0,-3.5725,-3.7688,-3.9641,-3.9641,-4.1624,-4.3527,-4.3233,-4.2806,-4.2365,-4.1964,-4.1497,-4.1122,-4.0949,-4.0468,-4.0,-3.9666,-3.9412,-3.9159,-3.8865,-3.8758,-3.8718,-3.8718,-3.8504,-3.8223,-3.7929,-3.7635,-3.7128,-3.6233,-3.5297,-3.4376,-3.3467,-3.2144,-3.137,-3.1316,-3.1316,-3.1316,-3.1316,-3.1249,-3.1116,-3.0875,-3.0875,-3.0996,-3.1223,-3.1715,-3.1502,0.0,0.0,0.0,0.0,0.0,0.0,0.0,0.0,0.0,0.0,0.0,-3.0333,-3.1437,0.0,-3.5774,-3.4961,-3.687,-3.8108,-3.6892,-3.5309,-3.5808,-3.93,-3.6611,-3.4488,-3.4709,-3.0982,-2.8875,-2.9035,-2.7093,-2.583,-2.5905,-2.5905,-2.5905,-2.5905,-2.5905,-2.5905,-2.5905,-2.9997,-3.44,-3.8479,-4.2847,-4.6928,-5.1022,-5.1022,-5.1022,-5.1009,-4.8824,-4.7626,-4.6908,-4.0239,-3.5071,-3.0952,-3.0843,-2.9717,-2.8651,-3.4794,-3.5474,-3.4067,-4.0066,-4.1782,-4.1394,-4.1018,-3.9641,-3.7722,-3.7399,-3.5637,-3.3758,-3.3555,-3.605,-3.8563,-3.8563,-4.1071,-4.3461,-4.3167,-4.2659,-4.2111,-4.167,-4.1229,-4.0869,-4.0735,-4.0214,-3.9773,-3.964,-3.9239,-3.8905,-3.8758,-3.8718,-3.8718,-3.8718,-3.8584,-3.833,-3.7849,-3.7676,-3.7195,-3.6166,-3.5004,-3.3935,-3.304,-3.2291,-3.1824,-3.1677,-3.1664,-3.1597,-3.145,-3.145,-3.137,-3.1236,-3.1236,-3.1303,-3.145,-3.145,-3.145,0.0,0.0,0.0,0.0,0.0,0.0,0.0,-2.6697,-2.7213,-2.7872,-2.8532,-2.9311,-3.0323,-3.1973,-3.3134,-3.3273,-3.448,-3.5308,-3.4837,-3.2492,-3.1753,-3.4984,-3.2605,-3.0625,-3.0915,-2.7964,-2.6027,-2.6129,-2.6006,-2.5939,-2.5905,-2.5905,-2.5905,-2.5905,-2.5905,-2.6218,-2.7172,-2.9687,-3.3453,-3.8479,-4.1925,-4.5669,-4.9758,-4.9758,-4.9758,-4.9451,-4.5325,-4.2794,-4.1077,-3.3798,-3.0556,-2.9291,-2.5819,-2.4724,-2.5531,-2.9275,-3.0614,-3.1061,-3.4985,-3.5941,-3.5689,-3.5294,-3.452,-3.3782,-3.3445,-3.2546,-3.1516,-3.1327,-3.4386,-3.7483,-3.7483,-4.0481,-4.338,-4.3167,-4.2552,-4.1924,-4.1443,-4.1056,-4.0762,-4.0508,-4.0,-3.9599,-3.9599,-3.9118,-3.8718,-3.8718,-3.8718,-3.8718,-3.8718,-3.8691,-3.8437,-3.7889,-3.7782,-3.7275,-3.6086,-3.4803,-3.3681,-3.2772,-3.2666,-3.2492,-3.2198,-3.2131,-3.1998,-3.1757,-3.1704,-3.1664,-3.1664,-3.1664,-3.1664,-3.1664,-3.1664,-3.1664,-2.2668,-2.1255,-1.8722,-1.885,-1.9263,-1.9775,0.0,-2.1,-2.1612,-2.2224,-2.2851,-2.3498,-2.4296,-2.7706,-2.9481,-2.6638,-2.9345,-3.0571,-2.7643,-2.6711,-2.6802,-2.7485,-2.7246,-2.6949,-2.6983,-2.6644,-2.6257,-2.6149,-2.6115,-2.604,-2.5905,-2.5905,-2.5905,-2.5905,-2.5905,-2.7789,-3.1561,-2.8108,-3.0633,-3.8479,-3.9116,-4.1291,-4.536,-4.536,-4.536,-4.5027,-4.0753,-3.6667,-3.2899,-3.1768,-2.8848,-2.5371,-2.4927,-2.4582,-2.5204,-2.8913,-3.0301,-3.0863,-3.4476,-3.5719,-3.5486,-3.5234,-3.2612,-2.9716,-2.9298,-2.6561,-2.3912,-2.3484,-2.8593,-3.3701,-3.3701,-3.8475,-4.3127,-4.31,-4.2258,-4.1416,-4.1336,-4.0909,-4.0508,-4.0481,-4.0,-3.9599,-3.9599,-3.9118,-3.8718,-3.8718,-3.8718,-3.8718,-3.8718,-3.8477,-3.8183,-3.7849,-3.7595,-3.6941,-3.5778,-3.5057,-3.4282,-3.3374,-3.3066,-3.2799,-3.2505,-3.2238,-3.2091,-3.2051,-3.1797,-3.1664,-3.1664,-3.1664,-3.1664,-3.1664,-3.1664,-3.1664,-1.9906,-1.9021,-1.8158,-1.8301,-1.8952,-1.9698,-2.0295,-2.1034,-2.174,-2.2249,-2.2832,-2.3395,-2.389,-2.5527,-2.6623,0.0,-2.6766,-2.7607,-2.6321,-2.5993,-2.5952,-2.5973,-2.5973,-2.6081,-2.6346,-2.6271,-2.6203,-2.6129,-2.604,-2.5973,-2.5905,-2.5905,-2.5905,-2.5905,-2.5905,-2.6852,-2.842,-2.9369,-3.1244,-3.5013,-3.7224,-3.9428,-4.0979,-4.0979,-3.9658,-3.7331,-3.5128,-3.1744,-2.7842,-2.7563,-2.6173,-2.4528,-2.4365,-2.4297,-2.4605,-2.6106,-2.6713,-2.6983,-2.8471,-2.8889,-2.8766,-2.8381,-2.7014,-2.5694,-2.5264,-2.3991,-2.252,-2.2378,-2.7492,-3.3171,-3.3171,-3.8175,-4.31,-4.31,-4.2178,-4.1336,-4.1336,-4.0869,-4.0481,-4.0481,-4.0147,-3.9786,-3.964,-3.9265,-3.8905,-3.8758,-3.8718,-3.8718,-3.8718,-3.8611,-3.8357,-3.7849,-3.7235,-3.662,-3.5939,-3.5351,-3.471,-3.3988,-3.3668,-3.3293,-3.2812,-3.2519,-3.2278,-3.2104,-3.1824,-3.1664,-3.1664,-3.1664,-3.1664,-3.1664,-3.1664,-3.1664,-1.8199,-1.8233,-1.8531,-1.8884,-1.9657,-2.0539,-2.1265,-2.2059,-2.2778,-2.3219,-2.3754,-2.4229,-2.4494,-2.486,-2.5267,-2.564,-2.5817,-2.5952,-2.6115,-2.6027,-2.5864,-2.5654,-2.5518,-2.5882,-2.7484,-2.6657,-2.6383,-2.765,-2.6636,-2.5952,-2.5905,-2.5905,-2.5905,-2.5905,-2.5905,-2.6525,-2.7789,-2.9679,-3.0935,-3.2195,-3.5328,-3.6901,-3.6901,-3.6842,-3.4174,-3.0215,-2.9942,-2.7865,-2.4935,-2.467,-2.4473,-2.4331,-2.4175,-2.4121,-2.4141,-2.4243,-2.4263,-2.4189,-2.3965,-2.3802,-2.3646,-2.3327,-2.313,-2.2974,-2.2656,-2.252,-2.2466,-2.2378,-2.6953,-3.1548,-3.1548,-3.6034,-4.0171,-4.0171,-4.0111,-3.982,-3.982,-4.012,-4.0481,-4.0481,-4.0254,-3.992,-3.964,-3.9346,-3.9052,-3.8758,-3.8718,-3.8718,-3.8718,-3.8651,-3.8397,-3.7889,-3.7168,-3.658,-3.6219,-3.5725,-3.5191,-3.4603,-3.4215,-3.3774,-3.3253,-3.2866,-3.2532,-3.2225,-3.1944,-3.1744,-3.1664,-3.1664,-3.1664,-3.1664,-3.1664,-3.1664,-1.8443,-1.862,-1.8959,-1.9834,-2.0526,-2.1245,-2.2269,-2.2974,-2.3537,-2.3999,-2.4453,-2.4806,-2.4969,-2.5254,-2.5498,-2.5674,-2.5817,-2.5952,-2.6115,-2.5762,-2.5477,-2.5464,-2.5091,-2.6339,0.0,-2.7644,-2.7484,-3.1586,-2.8263,-2.6061,-2.5905,-2.5905,-2.5905,-2.5905,-2.5905,-2.7796,-3.1887,-2.8108,-2.8108,-3.2187,-3.2195,-3.2512,-3.2495,-3.2316,-2.9572,-2.5552,-2.5552,-2.5057,-2.4792,-2.4636,-2.4473,-2.4331,-2.4175,-2.4121,-2.4121,-2.4121,-2.4033,-2.391,-2.389,-2.3612,-2.3239,-2.3219,-2.292,-2.2574,-2.2554,-2.2466,-2.2337,-2.2337,-2.5057,-2.7765,-2.7765,-3.0425,-3.2758,-3.2758,-3.4668,-3.6273,-3.6273,-3.8618,-4.0481,-4.0481,-4.0254,-3.992,-3.964,-3.9346,-3.9052,-3.8758,-3.8718,-3.8718,-3.8718,-3.8477,-3.8143,-3.7849,-3.7529,-3.7128,-3.654,-3.6219,-3.5792,-3.5204,-3.4629,-3.4175,-3.3868,-3.328,-3.2826,-3.2532,-3.2238,-3.1944,-3.1664,-3.1664,-3.1664,-3.1664,-3.1664,-3.1664,-1.8599,-1.9149,-1.9834,-2.0648,-2.1509,-2.2411,-2.3259,-2.3822,-2.4263,-2.4507,-2.4684,-2.4738,-2.4596,-2.4738,-2.4914,-2.5077,-2.5389,-2.562,-2.5674,-2.5552,-2.5321,-2.4914,-2.4562,0.0,0.0,0.0,0.0,-3.1031,-2.788,-2.5817,-2.5762,-2.585,-2.5905,-2.5905,-2.5905,-2.6532,-2.8101,-2.6532,-2.6532,-2.8101,-2.8101,-2.8049,-2.7954,-2.7799,-2.6659,-2.5233,-2.5125,-2.4914,-2.4636,-2.4582,-2.4419,-2.4189,-2.4141,-2.4121,-2.41,-2.4012,-2.3877,-2.3734,-2.3626,-2.3436,-2.3171,-2.2873,-2.2676,-2.2534,-2.2445,-2.2378,-2.2337,-2.2337,-2.4782,-2.7757,-2.7757,-3.0258,-3.2686,-3.2524,-3.453,-3.6208,-3.6284,-3.8372,-4.0481,-4.0481,-4.0401,-4.0187,-3.968,-3.9519,-3.9265,-3.8798,-3.8718,-3.8718,-3.8718,-3.8437,-3.8223,-3.8116,-3.7676,-3.7315,-3.7088,-3.6473,-3.5899,-3.5511,-3.475,-3.4189,-3.3895,-3.3307,-3.2839,-3.2559,-3.2251,-3.1957,-3.1664,-3.1664,-3.1664,-3.1664,-3.1664,-3.1664,-1.9081,-1.9854,-2.0702,-2.1564,-2.2445,-2.3273,-2.3978,-2.4351,-2.4562,-2.4562,-2.4419,-2.4209,-2.3856,-2.391,-2.4066,-2.4277,-2.4772,-2.5179,-2.5287,-2.5301,-2.5125,-2.4616,-2.4297,-2.5518,0.0,0.0,0.0,-3.084,-2.757,-2.564,-2.5694,-2.583,-2.5905,-2.5905,-2.5905,-2.5905,-2.5905,-2.5905,-2.5905,-2.5905,-2.5905,-2.5796,-2.5606,-2.5518,-2.5355,-2.5145,-2.5057,-2.4847,-2.4562,-2.4562,-2.4385,-2.4121,-2.4121,-2.4087,-2.4033,-2.3931,-2.3768,-2.3571,-2.3415,-2.3239,-2.3008,-2.2662,-2.252,-2.2466,-2.2378,-2.2337,-2.2337,-2.2337,-2.3964,-2.5857,-2.5857,-2.7341,-2.8757,-2.8838,-3.0762,-3.2826,-3.251,-3.4913,-3.7336,-3.8496,-3.8727,-3.8816,-3.9588,-3.9599,-3.9265,-3.8798,-3.8718,-3.8718,-3.8718,-3.8544,-3.837,-3.8263,-3.7929,-3.7595,-3.7382,-3.6687,-3.6099,-3.5805,-3.4857,-3.4242,-3.4055,-3.3454,-3.3,-3.2706,-3.2519,-3.2278,-3.1984,-3.1984,-3.1931,-3.1824,-3.1824,-3.177,-1.9888,-2.0716,-2.155,-2.2588,-2.3293,-2.3877,-2.446,-2.4562,-2.446,-2.4155,-2.37,-2.3239,-2.2784,-2.2818,-2.3008,-2.3327,-2.4019,-2.4636,-2.4935,-2.5003,-2.4914,0.0,0.0,0.0,0.0,0.0,0.0,-3.0186,0.0,-2.5518,-2.5674,-2.5817,-2.5905,-2.5905,-2.5905,-2.5905,-2.5905,-2.5905,-2.5905,-2.5905,-2.5905,-2.5742,-2.5464,-2.5464,-2.5287,-2.5023,-2.5023,-2.4847,-2.4562,-2.4562,-2.4385,-2.4121,-2.4121,-2.4012,-2.389,-2.3877,-2.368,-2.3415,-2.3259,-2.3008,-2.2744,-2.2588,-2.2445,-2.2337,-2.2337,-2.2337,-2.2337,-2.2337,-2.2337,-2.2337,-2.2337,-2.2235,-2.2079,-2.1937,-2.4302,-2.6311,-2.6176,-2.8485,-3.1516,-3.4525,-3.5462,-3.637,-3.9586,-3.9559,-3.9052,-3.8798,-3.8731,-3.8718,-3.8718,-3.8718,-3.8611,-3.833,-3.8263,-3.8036,-3.7448,-3.6834,-3.638,-3.6086,-3.499,-3.4336,-3.4322,-3.3748,-3.3293,-3.2986,-3.2973,-3.2839,-3.2545,-3.2545,-3.2398,-3.2118,-3.2118,-3.1971,-2.0845,-2.1726,-2.2608,-2.3537,-2.4066,-2.444,-2.4813,-2.4562,-2.4121,-2.37,-2.2907,-2.2147,-2.1686,-2.1652,-2.1815,-2.2215,-2.3185,0.0,-2.4317,-2.4738,0.0,-2.4596,0.0,-2.4522,-2.5547,-2.4787,0.0,0.0,-2.5711,-2.5355,-2.5518,-2.5762,-2.5905,-2.5905,-2.5905,-2.5905,-2.5905,-2.5905,-2.5905,-2.5905,-2.5796,-2.564,-2.5464,-2.5335,-2.5199,-2.5023,-2.4894,-2.4738,-2.4562,-2.4453,-2.4297,-2.41,-2.3999,-2.3931,-2.3856,-2.3646,-2.3449,-2.3239,-2.2974,-2.2852,-2.2744,-2.2479,-2.2378,-2.2337,-2.2337,-2.2337,-2.2337,-2.2337,-2.2337,-2.2337,-2.2337,-2.2303,-2.2235,-2.2093,-2.4478,-2.6479,-2.611,-2.8578,-3.1026,-3.1536,-3.3595,-3.6165,-3.9547,-3.9559,-3.9118,-3.9052,-3.8865,-3.8718,-3.8718,-3.8718,-3.8691,-3.8611,-3.8397,-3.8116,-3.7742,-3.6981,-3.638,-3.6086,-3.5177,-3.4549,-3.4322,-3.3961,-3.3521,-3.2986,-3.2973,-3.2839,-3.2545,-3.2545,-3.2492,-3.2217,-3.2217,-3.2045,-2.1971,-2.2778,-2.3537,-2.4243,-2.4548,-2.4684,-2.4792,-2.4243,-2.3558,-2.2974,-2.1971,-2.1068,-2.0614,-2.058,-2.0804,0.0,0.0,0.0,-2.3944,-2.4596,-2.4948,0.0,-2.4758,0.0,-2.4528,-2.4596,-2.4738,0.0,-2.5145,-2.5321,-2.5552,-2.5783,-2.5905,-2.5905,-2.5905,-2.5905,-2.5905,-2.5905,-2.5905,-2.5905,-2.5762,-2.5606,-2.5464,-2.5301,-2.5159,-2.5023,-2.4935,-2.4772,-2.4562,-2.4473,-2.4317,-2.41,-2.3944,-2.3856,-2.3768,-2.3537,-2.3307,-2.3097,-2.2873,-2.273,-2.2642,-2.2411,-2.2337,-2.2337,-2.2337,-2.2337,-2.2337,-2.2337,-2.2337,-2.2337,-2.2337,-2.2337,-2.2303,-2.2147,-2.3264,-2.4577,-2.4238,-2.5435,-2.7125,-3.0085,-3.3137,-3.6201,-3.9547,-3.9773,-3.9452,-3.9199,-3.9012,-3.8865,-3.8731,-3.8718,-3.8718,-3.8718,-3.8584,-3.829,-3.7849,-3.7235,-3.666,-3.6112,-3.5364,-3.4817,-3.4523,-3.4108,-3.3734,-3.3387,-3.324,-3.3093,-3.2919,-3.2919,-3.2853,-3.2509,-3.2732,-3.2363,-2.3083,-2.3768,-2.4317,-2.4772,-2.4847,-2.4738,-2.4582,-2.3802,-2.292,-2.2181,-2.1068,-2.0098,-1.9678,-1.9698,-2.0031,-2.079,0.0,-2.292,-2.37,-2.4453,-2.4948,-2.5023,-2.5145,-2.5199,-2.5091,-2.507,-2.5145,-2.5287,-2.5287,-2.541,-2.5674,-2.583,-2.5905,-2.5905,-2.5905,-2.5905,-2.5905,-2.5905,-2.5905,-2.5905,-2.5742,-2.5586,-2.5464,-2.5287,-2.5145,-2.5023,-2.4982,-2.4806,-2.4562,-2.4528,-2.4351,-2.41,-2.3931,-2.3788,-2.3666,-2.3483,-2.3239,-2.2961,-2.2832,-2.2676,-2.25,-2.2378,-2.2337,-2.2337,-2.2337,-2.2337,-2.2337,-2.2337,-2.2337,-2.2337,-2.2337,-2.2337,-2.2303,-2.2181,-2.2004,-2.1815,-2.153,-2.1211,-2.2912,-2.9365,-3.2731,-3.5893,-3.9411,-4.0067,-3.9853,-3.9306,-3.9185,-3.9038,-3.8758,-3.8718,-3.8718,-3.8718,-3.8718,-3.8464,-3.7849,-3.7555,-3.7021,-3.6126,-3.5551,-3.511,-3.4776,-3.4269,-3.3961,-3.3895,-3.3614,-3.3454,-3.3414,-3.3414,-3.328,-3.2815,-3.3251,-3.2879,-2.3788,-2.4317,-2.4792,-2.5233,-2.5077,-2.4718,-2.4453,-2.3503,-2.2466,-2.1706,-2.0614,-1.9678,-1.9345,-1.9305,-1.9569,-2.0329,0.0,0.0,0.0,-2.3999,-2.4596,0.0,-2.5145,-2.5267,-2.5376,-2.5389,0.0,0.0,0.0,-2.564,-2.5694,-2.583,-2.5905,-2.5905,-2.5905,-2.5905,-2.5905,-2.5905,-2.5905,-2.5905,-2.564,-2.5477,-2.5443,-2.5179,-2.5036,-2.5003,-2.4758,-2.4616,-2.4548,-2.4297,-2.4175,-2.4087,-2.3822,-2.37,-2.3646,-2.3361,-2.3083,-2.2818,-2.2798,-2.2608,-2.2378,-2.2337,-2.2337,-2.2337,-2.2337,-2.2337,-2.2337,-2.2337,-2.2337,-2.2337,-2.2337,-2.2337,-2.2337,-2.2303,-2.2093,-2.1828,-2.1672,-2.1197,-2.2778,-2.9317,-3.1019,-3.3236,-3.9405,-4.0174,-3.992,-3.9823,-3.9292,-3.8791,-3.8758,-3.8718,-3.8718,-3.8718,-3.8718,-3.8464,-3.7849,-3.7555,-3.7021,-3.6126,-3.5738,-3.5311,-3.4555,-3.4435,-3.4156,-3.3448,-3.3382,-3.3439,-3.3414,-3.3414,-3.3387,-3.3334,-3.3334,-3.3187,-2.4297,-2.4738,-2.5057,-2.5199,-2.4894,-2.444,-2.3978,-2.3008,-2.1991,-2.1245,-2.0261,-1.9447,-1.9149,-1.9094,-1.9305,-1.9976,-2.0845,0.0,0.0,-2.3592,0.0,-2.4948,-2.5287,-2.5532,0.0,-2.5694,0.0,0.0,0.0,-2.5796,-2.5796,-2.5864,-2.5905,-2.5905,-2.5905,-2.5905,-2.5905,-2.5905,-2.5905,-2.5905,-2.5606,-2.5464,-2.5443,-2.5159,-2.5023,-2.5003,-2.4772,-2.4636,-2.4548,-2.4331,-2.4189,-2.4087,-2.3802,-2.368,-2.3646,-2.3327,-2.3083,-2.2886,-2.2818,-2.2642,-2.2445,-2.2357,-2.2337,-2.2337,-2.2337,-2.2337,-2.2337,-2.2337,-2.2337,-2.2337,-2.2337,-2.2337,-2.2337,-2.2337,-2.2113,-2.1794,-2.1496,-2.1143,-2.2625,-2.7785,-2.8817,-3.1215,-3.9151,-4.0454,-4.0187,-4.0132,-3.9573,-3.9017,-3.8725,-3.8592,-3.8718,-3.8718,-3.8718,-3.8477,-3.8103,-3.7662,-3.7221,-3.6353,-3.6032,-3.5685,-3.5231,-3.4937,-3.4643,-3.4349,-3.3798,-3.3356,-3.3426,-3.348,-3.3414,-3.3414,-3.3414,-3.3347,-2.446,-2.4806,-2.5003,-2.486,-2.4494,-2.3999,-2.3395,-2.2466,-2.155,-2.0858,-2.0031,-1.9345,-1.9081,-1.8993,-1.9128,-1.9678,-2.0329,-2.1123,-2.2167,0.0,-2.391,0.0,-2.5247,0.0,-2.583,0.0,0.0,0.0,0.0,0.0,-2.5905,-2.5905,-2.5905,-2.5905,-2.5905,-2.5905,-2.5905,-2.5905,-2.5905,-2.5905,-2.5606,-2.5464,-2.5443,-2.5159,-2.5023,-2.5003,-2.4826,-2.467,-2.4548,-2.4365,-2.4229,-2.4087,-2.3802,-2.368,-2.3646,-2.3327,-2.313,-2.2995,-2.2832,-2.2676,-2.2534,-2.2391,-2.2337,-2.2337,-2.2337,-2.2337,-2.2337,-2.2337,-2.2337,-2.2337,-2.2337,-2.2337,-2.2337,-2.2303,-2.2079,-2.1774,-2.1353,-2.1143,-2.2018,-2.5378,-2.5853,-2.8952,-3.8801,-4.0451,-4.0441,-4.0601,-4.0119,-3.9559,-3.8676,-3.8685,-3.8784,-3.8718,-3.8718,-3.8517,-3.8224,-3.7849,-3.7211,-3.6647,-3.6571,-3.6248,-3.5658,-3.5428,-3.5133,-3.5234,-3.4309,-3.3594,-3.3298,-3.3439,-3.3306,-3.3494,-3.344,-3.3414,-2.389,-2.4189,-2.4399,-2.4243,-2.3877,-2.3381,-2.2764,-2.1937,-2.1143,-2.0661,-1.9956,-1.9379,-1.9217,-1.8959,-1.8938,-1.9393,-1.9746,-2.0349,-2.1387,0.0,0.0,-2.4087,0.0,0.0,0.0,0.0,0.0,0.0,0.0,0.0,-2.5905,-2.5905,-2.5905,-2.5905,-2.5905,-2.5905,-2.5905,-2.5905,-2.5905,-2.5905,-2.5606,-2.5464,-2.5443,-2.5159,-2.5023,-2.5003,-2.4704,-2.4582,-2.4548,-2.4263,-2.4141,-2.4087,-2.3802,-2.368,-2.3646,-2.3327,-2.313,-2.2995,-2.2832,-2.2676,-2.2534,-2.2391,-2.2337,-2.2337,-2.2337,-2.2337,-2.2337,-2.2337,-2.2337,-2.2337,-2.2337,-2.2337,-2.2303,-2.2167,-2.2011,-2.1794,-2.1496,-2.1299,-2.1343,-2.1159,-2.1054,-2.534,-3.8322,-4.0624,-4.0424,-4.0401,-4.0533,-4.0052,-3.895,-3.861,-3.8751,-3.8758,-3.8718,-3.8597,-3.8762,-3.821,-3.7555,-3.6941,-3.6866,-3.645,-3.5405,-3.5325,-3.5284,-3.5234,-3.5166,-3.4536,-3.3355,-3.3311,-3.3382,-3.3382,-3.3333,-3.3414,-2.3273,-2.3524,-2.3626,-2.3483,-2.3117,-2.2642,-2.2147,-2.1462,-2.079,-2.0241,-1.9766,-1.9325,-1.8993,-1.8762,-1.8674,-1.8864,-1.9149,-1.9644,-2.0505,-2.1353,0.0,0.0,0.0,0.0,0.0,0.0,0.0,0.0,0.0,0.0,-2.5905,-2.5905,-2.5905,-2.5905,-2.5905,-2.5905,-2.5905,-2.5905,-2.5905,-2.5905,-2.5606,-2.5464,-2.5443,-2.5159,-2.5023,-2.5003,-2.4704,-2.4562,-2.4548,-2.4243,-2.4121,-2.4087,-2.3802,-2.368,-2.3646,-2.3327,-2.3185,-2.3097,-2.2873,-2.2744,-2.2656,-2.2411,-2.2337,-2.2337,-2.2337,-2.2337,-2.2337,-2.2337,-2.2337,-2.2337,-2.2337,-2.2337,-2.2303,-2.2428,-2.227,-2.2105,-2.1611,-2.1387,-2.1425,-2.0987,-2.0722,-2.2279,-2.7448,-3.5145,-4.0517,-4.0374,-4.0428,-4.0425,-3.9769,-3.9252,-3.8778,-3.8758,-3.8718,-3.8597,-3.8803,-3.8412,-3.7836,-3.6985,-3.6941,-3.6593,-3.6179,-3.5577,-3.5272,-3.5284,-3.5173,-3.4944,-3.4576,-3.4514,-3.4068,-3.3422,-3.3303,-3.3373,-2.2479,-2.2676,-2.2778,-2.2588,-2.2269,-2.1882,-2.1441,-2.0912,-2.037,-1.9908,-1.9501,-1.9128,-1.8816,-1.8565,-1.8409,-1.8464,-1.8687,-1.9094,-1.98,-2.0627,0.0,0.0,0.0,0.0,0.0,0.0,0.0,0.0,0.0,0.0,0.0,-2.5905,-2.5905,-2.5905,-2.5905,-2.5905,-2.5905,-2.5905,-2.5884,-2.583,-2.5586,-2.5443,-2.5389,-2.5125,-2.5023,-2.5003,-2.4704,-2.4562,-2.4548,-2.4243,-2.4087,-2.4033,-2.3788,-2.3646,-2.3578,-2.3307,-2.3219,-2.3185,-2.2886,-2.2784,-2.273,-2.2432,-2.2337,-2.2337,-2.2337,-2.2337,-2.2337,-2.2337,-2.2337,-2.2337,-2.2337,-2.2337,-2.2303,-2.2201,-2.2304,-2.2126,-2.1484,-2.1489,-2.1272,-2.1501,-2.0933,-2.0614,-2.0404,-3.1641,-4.0431,-4.0398,-4.0374,-4.0601,-4.0583,-3.9493,-3.8636,-3.8618,-3.8758,-3.8664,-3.8667,-3.8803,-3.8331,-3.7423,-3.7025,-3.6941,-3.6907,-3.6153,-3.5604,-3.527,-3.5257,-3.5254,-3.5254,-3.5112,-3.4801,-3.3904,-3.3514,-3.3479,-2.1421,-2.1672,-2.1828,-2.153,-2.1333,-2.1109,-2.0648,-2.0207,-1.9841,-1.9698,-1.9183,-1.8762,-1.8762,-1.8389,-1.8145,-1.8301,-1.8443,-1.8742,-1.9359,-2.0085,0.0,0.0,0.0,0.0,0.0,0.0,0.0,0.0,0.0,0.0,0.0,-2.5905,-2.5905,-2.5905,-2.5905,-2.5905,-2.5905,-2.5905,-2.583,-2.5694,-2.5532,-2.5376,-2.5233,-2.5091,-2.5023,-2.5003,-2.4704,-2.4562,-2.4548,-2.4243,-2.4033,-2.3877,-2.3734,-2.3592,-2.3436,-2.3273,-2.3219,-2.3185,-2.2886,-2.2784,-2.273,-2.2432,-2.2337,-2.2337,-2.2337,-2.2337,-2.2337,-2.2337,-2.2337,-2.2337,-2.2337,-2.2337,-2.2337,-2.2337,-2.2393,-2.216,-2.1598,-2.1377,-2.1387,-2.1514,-2.1356,-2.1164,-2.0594,-3.1619,-4.05,-4.0431,-4.0398,-4.0374,-4.0601,-3.9508,-3.869,-3.8676,-3.8645,-3.8718,-3.8718,-3.8694,-3.8762,-3.8762,-3.7463,-3.6972,-3.6941,-3.6893,-3.6353,-3.5318,-3.5283,-3.5151,-3.5151,-3.5267,-3.522,-3.5207,-3.393,-3.3479,-2.0614,-2.075,-2.0824,-2.0824,-2.0627,-2.0383,-2.0139,-1.982,-1.9468,-1.9115,-1.8905,-1.8674,-1.8355,-1.8179,-1.8111,-1.8158,-1.8375,-1.8708,-1.9203,0.0,0.0,0.0,0.0,0.0,0.0,0.0,0.0,0.0,0.0,0.0,0.0,-2.5905,-2.5905,-2.5905,-2.5905,-2.585,-2.5762,-2.5762,-2.5694,-2.5532,-2.5376,-2.5287,-2.5233,-2.5091,-2.4969,-2.4847,-2.465,-2.4507,-2.4385,-2.4087,-2.3931,-2.3877,-2.3626,-2.3483,-2.3429,-2.3273,-2.3219,-2.3185,-2.3176,-2.3066,-2.273,-2.2432,-2.2337,-2.2337,-2.2337,-2.2337,-2.2337,-2.2337,-2.2337,-2.2337,-2.2337,-2.2337,-2.2337,-2.2337,-2.2393,-2.216,-2.1598,-2.1377,-2.1421,-2.1374,-2.1514,-2.1095,-2.0613,-2.3929,-2.9855,-3.9081,-4.0517,-4.0374,-4.0601,-4.0226,-3.9693,-3.8676,-3.8804,-3.8685,-3.8718,-3.8624,-3.8735,-3.8762,-3.8331,-3.7742,-3.7011,-3.6941,-3.666,-3.638,-3.6329,-3.606,-3.5151,-3.5205,-3.5164,-3.522,-3.391,-3.3337,-1.9786,-1.9942,-2.001,-2.0098,-1.9976,-1.98,-1.9657,-1.9434,-1.9169,-1.883,-1.8674,-1.8498,-1.8158,-1.8091,-1.8111,-1.8165,-1.8477,-1.8884,-1.9379,0.0,0.0,0.0,0.0,0.0,0.0,0.0,0.0,0.0,0.0,0.0,0.0,-2.5905,-2.5905,-2.5905,-2.5905,-2.583,-2.5694,-2.5694,-2.5586,-2.5376,-2.5287,-2.5199,-2.5145,-2.5003,-2.488,-2.4779,-2.4582,-2.444,0.0,-2.4019,-2.3856,-2.3788,-2.3537,-2.3415,-2.3347,-2.3259,-2.3185,-2.3117,-2.3162,-2.3039,-2.2943,-2.2411,-2.2337,-2.2337,-2.2337,-2.2337,-2.2337,-2.2337,-2.2337,-2.2337,-2.2337,-2.2337,-2.2323,-2.2269,-2.2338,-2.2146,-2.1531,-2.1344,-2.1441,-2.1441,-2.1319,-2.1163,-2.1001,-2.0855,-2.519,-3.84,-4.0584,-4.0414,-4.0495,-4.0401,-4.0173,-3.9519,-3.903,-3.8804,-3.8645,-3.8784,-3.8664,-3.8694,-3.86,-3.8372,-3.7702,-3.7065,-3.7008,-3.6847,-3.6924,-3.6626,-3.5952,-3.5484,-3.5099,-3.522,-3.4355,-3.409,0.0,-1.9237,-1.9379,-1.9379,-1.9379,-1.9325,-1.9183,-1.904,0.0,-1.8762,-1.8511,-1.8287,-1.8124,-1.8111,-1.8179,-1.8335,-1.8742,-1.9237,-1.9841,-2.0594,0.0,0.0,0.0,0.0,0.0,0.0,0.0,0.0,0.0,0.0,0.0,-2.5905,-2.5905,-2.5884,-2.5884,-2.5817,-2.5674,-2.5654,-2.5511,-2.5213,-2.5213,-2.5125,-2.5003,-2.4847,-2.5085,0.0,-2.448,-2.4338,-2.4297,-2.3999,-2.3788,-2.3646,-2.349,-2.3347,-2.3219,-2.3219,-2.3137,-2.3286,-2.3128,-2.3251,-2.3105,-2.2398,-2.2337,-2.2337,-2.2337,-2.2337,-2.2337,-2.2337,-2.2337,-2.2337,-2.2337,-2.2337,-2.2303,-2.2428,-2.227,-2.2126,-2.1431,-2.1277,-2.1441,-2.1441,-2.1319,-2.1446,-2.1288,-2.2193,-2.6814,-3.8698,-4.0624,-4.0508,-4.0508,-4.0522,-4.0601,-4.0574,-3.9519,-3.8676,-3.8636,-3.8645,-3.8718,-3.8718,-3.8694,-3.8803,-3.8762,-3.7463,-3.6907,-3.688,-3.6807,-3.6991,-3.6991,-3.571,-3.5152,-3.5315,-3.5301,-3.5139,-1.8247,0.0,-1.8776,-1.8884,-1.883,-1.8728,0.0,-1.8586,-1.8464,-1.8423,-1.8375,-1.8301,-1.8267,-1.8355,-1.8511,-1.8796,-1.9203,-1.9712,-2.0295,0.0,0.0,0.0,0.0,0.0,0.0,0.0,0.0,0.0,0.0,0.0,-2.5905,-2.5905,-2.585,-2.5749,-2.5749,-2.5674,-2.5518,-2.5389,-2.5247,-2.507,-2.4955,-2.4887,-2.4847,-2.5003,-2.4879,-2.4769,-2.4694,-2.4515,-2.4282,-2.411,-2.3945,-2.3781,-2.3327,-2.3259,-2.3219,-2.3219,-2.3137,-2.2995,-2.2549,-2.2389,-2.2534,-2.2391,-2.2337,-2.2337,-2.2337,-2.2337,-2.2337,-2.2337,-2.2337,-2.2337,-2.2337,-2.2337,-2.2303,-2.2428,-2.1984,-2.1571,-2.1431,-2.1277,-2.1441,-2.1441,-2.1408,-2.134,-2.1446,-3.0316,-3.7927,-4.016,-4.05,-4.0517,-4.0517,-4.0535,-4.0562,-4.0601,-4.025,-3.9689,-3.8676,-3.8645,-3.8718,-3.8718,-3.8664,-3.8761,-3.8762,-3.7622,-3.684,-3.688,-3.6807,-3.6991,-3.6991,-3.6153,-3.5899,-3.5979,-3.5511,-3.5257,-1.7846,-1.8111,-1.8375,-1.8518,-1.8498,-1.8423,-1.8423,-1.8375,-1.8321,-1.8321,-1.8321,-1.8321,-1.8321,-1.8498,-1.8742,-1.904,-1.9522,-2.0241,0.0,0.0,0.0,0.0,0.0,0.0,0.0,0.0,0.0,0.0,0.0,0.0,-2.5905,-2.5837,-2.5762,-2.6012,-2.5875,-2.5765,-2.5362,-2.5274,-2.5131,-2.4914,-2.514,-2.5072,-2.5003,-2.5079,-2.4632,-2.425,-2.4412,-2.4254,-2.409,-2.3932,-2.3822,-2.3739,-2.328,-2.3219,-2.3219,-2.3151,-2.332,-2.3176,-2.2442,-2.2302,-2.2168,-2.2357,-2.2337,-2.2337,-2.2337,-2.2337,-2.2337,-2.2337,-2.2337,-2.2337,-2.2337,-2.2337,-2.2303,-2.2428,-2.1712,-2.1294,-2.1431,-2.1277,-2.1441,-2.1441,-2.1441,-2.1387,-2.1501,-3.2945,-4.2094,-4.1458,-4.1314,-4.1056,-4.0624,-4.0491,-4.0535,-4.0522,-4.0506,-3.9944,-3.8847,-3.8804,-3.8618,-3.8718,-3.8718,-3.8664,-3.8735,-3.817,-3.7556,-3.7131,-3.6954,-3.6893,-3.6745,-3.6353,-3.6206,-3.6072,-3.567,-3.5524,-1.7629,-1.7826,-1.8057,-1.8213,-1.8247,-1.8247,-1.8247,-1.8267,-1.8287,-1.8321,-1.8335,-1.8375,-1.8409,-1.8654,-1.8972,-1.9291,-1.9942,0.0,0.0,0.0,0.0,0.0,0.0,0.0,0.0,0.0,0.0,0.0,0.0,0.0,-2.5871,-2.6047,-2.5964,-2.5627,-2.5676,-2.5518,-2.5484,-2.5484,-2.5353,-2.5106,-2.5051,-2.4962,-2.4838,-2.4849,-2.4399,-2.4066,-2.4103,-2.3966,-2.3932,-2.3801,-2.3732,-2.3995,-2.328,-2.3205,-2.3171,-2.3069,-2.3197,-2.3018,-2.2567,-2.2168,-2.2337,-2.2337,-2.2337,-2.2337,-2.2337,-2.2337,-2.2337,-2.2337,-2.2337,-2.2337,-2.2337,-2.2337,-2.2303,-2.2428,-2.2004,-2.1585,-2.1431,-2.131,-2.1489,-2.1475,-2.1475,-2.1421,-2.1272,-3.1088,-3.9647,-4.183,-4.2148,-4.194,-4.0756,-4.0663,-4.0517,-4.0508,-4.0495,-4.0186,-3.9124,-3.8808,-3.8778,-3.8784,-3.8758,-3.8691,-3.8651,-3.8654,-3.8264,-3.7462,-3.7195,-3.6941,-3.6687,-3.6647,-3.6513,-3.6273,-3.6179,-3.6139,-1.7582,-1.7684,-1.7758,-1.7901,-1.7935,-1.7935,-1.7935,-1.8036,-1.8158,-1.8287,-1.8409,-1.8586,-1.883,-1.9128,-1.9468,-1.9888,0.0,0.0,0.0,0.0,0.0,0.0,0.0,0.0,0.0,0.0,0.0,0.0,0.0,0.0,-2.6047,-2.5909,-2.5765,-2.5301,-2.5145,-2.4989,-2.5175,-2.5175,-2.5161,-2.5106,-2.4866,-2.4714,-2.4365,-2.4371,-2.3924,-2.3299,-2.3447,-2.3313,-2.3193,-2.3172,-2.3381,-2.3259,-2.3239,-2.3151,-2.3334,-2.33,-2.2839,-2.2288,-2.2425,-2.2357,-2.2337,-2.2337,-2.2337,-2.2337,-2.2337,-2.2337,-2.2337,-2.2337,-2.2337,-2.2337,-2.2337,-2.2337,-2.2303,-2.2428,-2.2099,-2.2004,-2.1451,-2.1464,-2.1498,-2.1377,-2.1364,-2.131,-2.1421,-2.3148,-2.8615,-4.0454,-4.2098,-4.2202,-4.1913,-4.1056,-4.0517,-4.0508,-4.0495,-4.0321,-4.024,-3.9229,-3.861,-3.8804,-3.8618,-3.8611,-3.8317,-3.8277,-3.8103,-3.7742,-3.7702,-3.7662,-3.7595,-3.7382,-3.7235,-3.7168,-3.6687,-3.6433,-1.7365,-1.7521,-1.7663,-1.7738,-1.7812,-1.788,-1.7968,-1.8036,-1.8158,-1.8389,-1.8552,-1.8742,-1.904,0.0,-1.9942,-2.0804,0.0,0.0,0.0,0.0,0.0,0.0,0.0,0.0,0.0,0.0,0.0,0.0,0.0,0.0,-2.5566,-2.5423,-2.5267,-2.5125,-2.4969,-2.4826,-2.4663,-2.4596,-2.4541,-2.4541,-2.4426,-2.4317,-2.4209,-2.4213,-2.3788,-2.3166,-2.3239,-2.3105,-2.3327,-2.3327,-2.3293,-2.3219,-2.3137,-2.3069,-2.3279,-2.2818,-2.2622,-2.2425,-2.2357,-2.2337,-2.2337,-2.2337,-2.2337,-2.2337,-2.2337,-2.2337,-2.2337,-2.2337,-2.2337,-2.2337,-2.2337,-2.2337,-2.2323,-2.2255,-2.2167,-2.2352,-2.1937,-2.1618,-2.1585,-2.1794,-2.1781,-2.176,-2.1411,-2.1475,-2.3712,-3.0114,-3.7481,-4.2285,-4.2264,-4.1088,-4.0431,-4.0508,-4.0374,-4.0495,-4.0574,-4.0038,-3.9412,-3.8685,-3.8784,-3.8651,-3.8504,-3.8357,-3.8183,-3.8076,-3.7889,-3.7809,-3.7809,-3.7676,-3.7595,-3.7595,-3.7342,-3.7195,-1.7175,-1.7392,-1.7602,-1.7629,-1.7758,-1.7901,-1.8057,-1.8124,-1.8233,-1.8531,-1.8708,-1.8918,-1.9257,0.0,0.0,0.0,0.0,0.0,0.0,0.0,0.0,0.0,0.0,0.0,0.0,0.0,0.0,0.0,0.0,0.0,-2.5048,-2.4894,-2.5057,-2.4914,-2.4779,-2.4616,-2.4144,-2.401,-2.3976,-2.4043,-2.401,-2.4209,-2.4053,-2.411,-2.3666,-2.3306,-2.3307,-2.3171,-2.3171,-2.3137,-2.3117,-2.3117,-2.3286,-2.3231,-2.2873,-2.2601,-2.2425,-2.2337,-2.2337,-2.2337,-2.2337,-2.2337,-2.2337,-2.2337,-2.2337,-2.2337,-2.2337,-2.2337,-2.2337,-2.2337,-2.2337,-2.2337,-2.2337,-2.2337,-2.2255,-2.2428,-2.2393,-2.2038,-2.1692,-2.2215,-2.2215,-2.2215,-2.1658,-2.1686,-2.1482,-2.1421,-3.0568,-3.8607,-4.1752,-4.1301,-4.059,-4.0601,-4.0508,-4.0374,-4.0601,-4.0574,-3.9985,-3.8985,-3.8878,-3.8798,-3.8718,-3.8504,-3.837,-3.837,-3.8143,-3.8036,-3.8036,-3.7956,-3.7929,-3.7929,-3.7849,-3.7809,-1.7121,-1.7311,-1.7473,-1.7616,-1.7758,-1.7901,-1.8057,-1.8199,-1.8389,-1.8694,-1.8871,-1.9115,-1.9556,0.0,0.0,0.0,0.0,0.0,0.0,0.0,0.0,0.0,0.0,0.0,0.0,0.0,0.0,0.0,0.0,0.0,-2.5057,-2.4914,-2.5072,-2.4914,-2.446,-2.401,-2.4155,-2.3999,-2.4066,-2.4043,-2.4209,-2.4053,-2.4213,-2.4055,-2.3904,-2.3152,-2.3151,-2.332,-2.33,-2.3162,-2.3108,-2.3108,-2.3094,-2.2998,-2.2281,-2.2411,-2.2337,-2.2337,-2.2337,-2.2337,-2.2337,-2.2337,-2.2337,-2.2337,-2.2337,-2.2337,-2.2337,-2.2337,-2.2337,-2.2337,-2.2337,-2.2337,-2.2337,-2.2337,-2.2337,-2.2289,-2.2428,-2.2221,-2.2269,-2.2407,-2.2373,-2.2373,-2.2373,-2.2132,-2.2146,-2.1441,-2.2224,-2.7542,-4.0606,-4.1157,-4.0408,-4.0624,-4.0601,-4.0374,-4.0601,-4.0574,-4.0412,-3.9837,-3.9528,-3.9025,-3.8731,-3.8691,-3.8691,-3.8691,-3.8651,-3.8651,-3.8651,-3.837,-3.8223,-3.8223,-3.7929,-3.7809,-1.7005,-1.7236,-1.7433,-1.7494,-1.7758,-1.8036,-1.8199,-1.8423,-1.8674,-1.8972,-1.9237,-1.961,-2.0241,0.0,0.0,0.0,0.0,0.0,0.0,0.0,0.0,0.0,0.0,0.0,0.0,0.0,0.0,0.0,0.0,0.0,-2.488,-2.4738,-2.4541,-2.4304,-2.4243,-2.4087,-2.4158,-2.3782,-2.3521,-2.3621,-2.3877,-2.4124,-2.4055,-2.3612,-2.3449,-2.3293,-2.3103,-2.2961,-2.2583,-2.2509,-2.2778,-2.2757,-2.2676,-2.2554,-2.2405,-2.2357,-2.2337,-2.2337,-2.2337,-2.2337,-2.2337,-2.2337,-2.2337,-2.2337,-2.2337,-2.2337,-2.2337,-2.2337,-2.2337,-2.2337,-2.2337,-2.2337,-2.2337,-2.2337,-2.2337,-2.2323,-2.2269,-2.2303,-2.2323,-2.2269,-2.2255,-2.2255,-2.2255,-2.2283,-2.2057,-2.1451,-2.1374,-2.6387,-4.0391,-4.1925,-4.1381,-4.069,-4.0398,-4.0441,-4.0589,-4.0562,-4.0442,-3.9893,-3.9599,-3.9306,-3.9012,-3.8972,-3.8905,-3.8718,-3.8718,-3.8718,-3.8718,-3.8611,-3.8544,-3.8544,-3.8437,-3.8397,-1.6924,-1.7195,-1.7433,-1.748,-1.7826,-1.8213,-1.8409,-1.8654,-1.8938,-1.9325,-1.9732,-2.0193,-2.0804,-2.1408,0.0,0.0,0.0,0.0,0.0,0.0,0.0,0.0,0.0,0.0,0.0,0.0,0.0,0.0,0.0,0.0,0.0,-2.4467,-2.3976,-2.3999,-2.3978,-2.3856,-2.3911,-2.3551,-2.3219,-2.3172,-2.3712,-2.3767,-2.3911,-2.3449,-2.3293,-2.3151,-2.2961,-2.2798,-2.2415,-2.2369,-2.2348,-2.2348,-2.2248,-2.2425,-2.2337,-2.2337,-2.2337,-2.2337,-2.2337,-2.2337,-2.2337,-2.2337,-2.2337,-2.2337,-2.2337,-2.2337,-2.2337,-2.2337,-2.2337,-2.2337,-2.2337,-2.2337,-2.2337,-2.2337,-2.2337,-2.2337,-2.2337,-2.2337,-2.2337,-2.2337,-2.2337,-2.2337,-2.2337,-2.2373,-2.216,-2.1598,-2.1489,-2.4914,-3.4294,-3.9472,-4.1951,-4.0849,-4.0855,-4.0762,-4.0775,-4.0775,-4.0628,-4.0321,-4.0107,-3.9786,-3.9306,-3.9199,-3.9052,-3.8865,-3.8758,-3.8718,-3.8718,-3.8718,-3.8718,-3.8718,-3.8718,-3.8718,-1.6897,-1.7195,-1.746,-1.7609,-1.7982,-1.8409,-1.8694,-1.8884,-1.9169,-1.9766,-2.037,-2.0878,-2.1157,-2.1706,0.0,0.0,0.0,0.0,0.0,0.0,0.0,0.0,0.0,0.0,0.0,0.0,0.0,0.0,0.0,0.0,0.0,-2.4121,-2.3985,-2.3987,-2.338,-2.3306,-2.3152,-2.3293,-2.3151,-2.33,-2.3142,-2.33,-2.3139,-2.3293,-2.3137,-2.3279,-2.2669,-2.2268,-2.2248,-2.2391,-2.2337,-2.2337,-2.2337,-2.2337,-2.2337,-2.2337,-2.2337,-2.2337,-2.2337,-2.2337,-2.2337,-2.2337,-2.2337,-2.2337,-2.2337,-2.2337,-2.2337,-2.2337,-2.2337,-2.2337,-2.2337,-2.2337,-2.2337,-2.2337,-2.2337,-2.2337,-2.2337,-2.2337,-2.2337,-2.2337,-2.2337,-2.2337,-2.2337,-2.2359,-2.216,-2.1598,-2.1489,-2.1466,-2.1466,-3.353,-4.1792,-4.1155,-4.1075,-4.1336,-4.1363,-4.1611,-4.1256,-4.0935,-4.0909,-4.0508,-3.964,-3.9306,-3.9159,-3.9159,-3.8865,-3.8731,-3.8731,-3.8731,-3.8718,-3.8718,-3.8718,-3.8718,-1.6761,-1.7114,0.0,-1.7609,-1.8057,-1.8565,-1.8972,-1.9271,-1.9698,-2.0505,-2.1055,-2.1462,-2.1652,-2.2181,0.0,0.0,0.0,0.0,0.0,0.0,0.0,0.0,0.0,0.0,0.0,0.0,0.0,0.0,0.0,0.0,0.0,-2.3628,-2.3414,-2.3517,-2.3415,-2.3293,-2.3137,-2.3286,-2.2893,-2.2563,-2.2509,-2.2852,-2.3265,-2.3231,-2.2839,-2.2669,-2.2302,-2.2214,-2.2391,-2.2357,-2.2337,-2.2337,-2.2337,-2.2337,-2.2337,-2.2337,-2.2337,-2.2337,-2.2337,-2.2337,-2.2337,-2.2337,-2.2337,-2.2337,-2.2337,-2.2337,-2.2337,-2.2337,-2.2337,-2.2337,-2.2337,-2.2337,-2.2337,-2.2337,-2.2337,-2.2337,-2.2337,-2.2337,-2.2337,-2.2337,-2.2337,-2.2303,-2.1638,-2.1732,-2.1848,-2.1464,-2.1523,-2.1319,-2.148,-2.7613,-3.1903,-3.1769,-3.3227,-3.3974,-3.4237,-3.6273,-3.7751,-3.7653,-3.9758,-4.0615,-3.992,-3.9813,-3.9666,-3.9493,-3.9386,-3.9346,-3.9346,-3.9118,-3.9012,-3.9012,-3.8825,-3.8718,-1.6707,-1.708,0.0,-1.7684,-1.8145,-1.8728,-1.9481,-1.9922,-2.0404,-2.1123,-2.1584,-2.1937,-2.2201,-2.2588,0.0,0.0,0.0,0.0,0.0,0.0,0.0,0.0,0.0,0.0,0.0,0.0,0.0,0.0,0.0,0.0,0.0,-2.3327,-2.3139,-2.3273,-2.3137,-2.3015,-2.292,-2.2764,-2.269,-2.2402,-2.2348,-2.2601,-2.2895,-2.2943,-2.2642,-2.2268,-2.2214,-2.2405,-2.2337,-2.2337,-2.2337,-2.2337,-2.2337,-2.2337,-2.2337,-2.2337,-2.2337,-2.2337,-2.2337,-2.2337,-2.2337,-2.2337,-2.2337,-2.2337,-2.2337,-2.2337,-2.2337,-2.2337,-2.2337,-2.2337,-2.2337,-2.2337,-2.2337,-2.2337,-2.2337,-2.2337,-2.2337,-2.2337,-2.2337,-2.2337,-2.2337,-2.2007,-2.1579,-2.1705,-2.1551,-2.1411,-2.1277,-2.1937,-2.3929,-2.5909,-2.7898,-2.9179,-3.0417,-3.1196,-3.1196,-3.322,-3.4977,-3.6402,-3.7939,-3.937,-4.0388,-4.0147,-3.996,-3.9773,-3.9666,-3.9599,-3.9599,-3.9412,-3.9265,-3.9159,-3.8972,-3.8838,-1.6686,-1.706,0.0,-1.7792,-1.8253,0.0,-2.0098,-2.0716,-2.1177,-2.1618,0.0,-2.2303,-2.2744,-2.2961,0.0,0.0,0.0,0.0,0.0,0.0,0.0,0.0,0.0,0.0,0.0,0.0,0.0,0.0,0.0,0.0,0.0,-2.3273,-2.3117,-2.2995,-2.3128,-2.2764,-2.2187,-2.2315,-2.2248,-2.2248,-2.2391,-2.2337,-2.2337,-2.2201,-2.2248,-2.2235,-2.2391,-2.2337,-2.2337,-2.2337,-2.2337,-2.2337,-2.2337,-2.2337,-2.2337,-2.2337,-2.2337,-2.2337,-2.2337,-2.2337,-2.2337,-2.2337,-2.2337,-2.2337,-2.2323,-2.2323,-2.2323,-2.2303,-2.2303,-2.2323,-2.2323,-2.2323,-2.2323,-2.2323,-2.2323,-2.2323,-2.2323,-2.2303,-2.2303,-2.2323,-2.2323,-2.1987,-2.1566,-2.1427,-2.1545,-2.1397,-2.1523,-2.3024,-2.7242,-2.6674,-2.7427,-3.0519,-3.0808,-3.0808,-3.0808,-3.1058,-3.2531,-3.5412,-3.5657,-3.7203,-4.0444,-4.0132,-4.0067,-4.0067,-3.9813,-3.968,-3.968,-3.964,-3.9493,-3.9199,-3.9159,-3.9012,-1.653,-1.6897,0.0,0.0,-1.864,-1.9644,-2.0492,-2.1021,-2.1475,-2.1916,-2.2337,-2.2744,0.0,0.0,0.0,0.0,0.0,0.0,0.0,0.0,0.0,0.0,0.0,0.0,0.0,0.0,0.0,0.0,0.0,0.0,-2.3273,-2.332,-2.2873,-2.2543,-2.2389,-2.2322,-2.2315,-2.2181,-2.2391,-2.2391,-2.2357,-2.2337,-2.2337,-2.2371,-2.2391,-2.2371,-2.2357,-2.2337,-2.2337,-2.2337,-2.2337,-2.2337,-2.2337,-2.2337,-2.2337,-2.2337,-2.2337,-2.2337,-2.2337,-2.2337,-2.2337,-2.2337,-2.2337,-2.2323,-2.2201,-2.2167,-2.2133,-2.1739,-2.1799,-2.2167,-2.2167,-2.216,-2.1886,-2.1886,-2.216,-2.2167,-2.2167,-2.2338,-2.2304,-2.2407,-2.2167,-2.2147,-2.1833,-2.1712,-2.1794,-2.153,-2.1455,-2.17,-2.2759,-2.2752,-2.2738,-2.3523,-2.3523,-2.3523,-2.3523,-2.6124,-2.7914,-2.867,-3.1039,-3.3896,-3.7191,-3.9189,-4.0361,-4.0361,-4.0334,-4.0294,-4.0294,-4.004,-3.9786,-3.9493,-3.9265,-3.9012,-1.6463,0.0,0.0,-1.8111,0.0,-1.9834,-2.0505,-2.0808,-2.129,-2.2018,0.0,0.0,0.0,0.0,0.0,0.0,0.0,0.0,0.0,0.0,0.0,0.0,0.0,0.0,0.0,0.0,0.0,0.0,0.0,-2.3015,-2.2717,-2.2798,-2.2676,-2.2382,-2.2248,-2.2168,-2.2168,-2.2371,-2.2337,-2.2337,-2.2337,-2.2337,-2.2337,-2.2337,-2.2337,-2.2337,-2.2337,-2.2337,-2.2337,-2.2337,-2.2337,-2.2337,-2.2255,-2.2235,-2.2221,-2.2428,-2.2407,-2.2407,-2.2407,-2.2127,-2.1846,-2.1846,-2.1853,-2.2113,-2.2025,-2.2004,-2.1712,-2.1618,-2.1705,-2.2113,-2.2387,-2.2113,-2.1833,-2.1826,-2.2059,-2.2283,-2.2004,-2.193,-2.1937,-2.2079,-2.2113,-2.2113,-2.2106,-2.1937,-2.1706,-2.1475,-2.1441,-2.1441,-2.1441,-2.1441,-2.1441,-2.1441,-2.1441,-2.1441,-2.1441,-2.3009,-2.4834,-2.6378,-2.8023,-3.0437,-3.3632,-3.6701,-3.888,-4.0468,-4.0481,-4.0481,-4.0481,-4.0321,-4.004,-3.9599,-3.9452,-3.9118,-1.6402,0.0,-1.75,-1.8443,-1.9135,0.0,-2.0104,-2.068,0.0,0.0,0.0,0.0,0.0,0.0,0.0,0.0,0.0,0.0,0.0,0.0,0.0,0.0,0.0,0.0,0.0,0.0,0.0,0.0,0.0,-2.2751,-2.2456,-2.2315,-2.2235,-2.2235,-2.2391,-2.2323,-2.2303,-2.2303,-2.2289,-2.2269,-2.2289,-2.2323,-2.2337,-2.2337,-2.2337,-2.2337,-2.2337,-2.2337,-2.2337,-2.2337,-2.2323,-2.2289,-2.2167,-2.2373,-2.2059,-2.2215,-2.216,-2.216,-2.216,-2.1882,-2.1327,-2.1327,-2.1605,-2.1882,-2.1848,-2.1571,-2.1294,-2.1531,-2.1638,-2.2038,-2.2045,-2.2038,-2.1759,-2.1499,-2.193,-2.2084,-2.1565,-2.1274,-2.1565,-2.1725,-2.2072,-2.2106,-2.2072,-2.1862,-2.1652,-2.1475,-2.1441,-2.1441,-2.1441,-2.1441,-2.1441,-2.1441,-2.1441,-2.1441,-2.1441,-2.1441,-2.2752,-2.5607,-2.5469,-2.7174,-3.1257,-3.3689,-3.6617,-4.0535,-4.0508,-4.0481,-4.0481,-4.0481,-4.0187,-3.9666,-3.9666,-3.9346,0.0,0.0,-1.7717,0.0,-1.883,-1.9447,0.0,0.0,0.0,0.0,0.0,0.0,0.0,0.0,0.0,0.0,0.0,0.0,0.0,0.0,0.0,0.0,0.0,0.0,0.0,0.0,0.0,0.0,-2.2389,-2.2302,-2.2302,-2.2168,-2.2371,-2.2371,-2.2357,-2.2269,-2.2428,-2.2428,-2.2359,-2.2235,-2.2359,-2.2221,-2.2337,-2.2337,-2.2337,-2.2337,-2.2337,-2.2337,-2.2337,-2.2337,-2.2269,-2.2428,-2.2393,-2.2025,-2.1632,-2.1598,-2.1598,-2.1598,-2.1598,-2.1598,-2.1327,-2.1327,-2.1327,-2.1585,-2.1464,-2.1431,-2.1397,-2.1523,-2.1618,-2.1726,-2.1726,-2.1726,-2.176,-2.1882,-2.1706,-2.153,-2.1397,-2.1323,-2.1543,-2.1706,-2.1937,-2.2072,-2.1937,-2.1882,-2.176,-2.1475,-2.1441,-2.1441,-2.1441,-2.1441,-2.1441,-2.1441,-2.1441,-2.1441,-2.1441,-2.1441,-2.1693,-2.1958,-2.1937,-2.4732,-3.1257,-3.1709,-3.4786,-4.061,-4.0615,-4.0481,-4.0481,-4.0481,-4.0294,-3.996,-3.996,-3.9666,-1.6408,-1.7026,-1.765,0.0,0.0,0.0,0.0,0.0,0.0,0.0,0.0,0.0,0.0,0.0,0.0,0.0,0.0,0.0,0.0,0.0,0.0,0.0,0.0,0.0,0.0,0.0,0.0,0.0,-2.2235,-2.2425,-2.2425,-2.2371,-2.2337,-2.2337,-2.2255,-2.2188,-2.2393,-2.2018,-2.1679,-2.1882,-2.2229,-2.2304,-2.2359,-2.2359,-2.2188,-2.2337,-2.2255,-2.2221,-2.2201,-2.2393,-2.2325,-2.2249,-2.1801,-2.1411,-2.0795,-2.0897,-2.1169,-2.1509,-2.1509,-2.129,-2.1364,-2.1364,-2.1364,-2.1344,-2.129,-2.1277,-2.1523,-2.1455,-2.155,-2.1672,-2.1672,-2.1672,-2.1706,-2.1848,-2.1652,-2.1475,-2.1631,-2.1543,-2.1509,-2.174,-2.1971,-2.2059,-2.1916,-2.1882,-2.1774,-2.1496,-2.1441,-2.1441,-2.1441,-2.1441,-2.1441,-2.1441,-2.1441,-2.1441,-2.1441,-2.1441,-2.1441,-2.1441,-2.1441,-2.3486,-2.8588,-3.0535,-3.3708,-3.8349,-3.9952,-4.0655,-4.0481,-4.0481,-4.0334,-4.0027,-4.0027,-3.9813,-1.6463,0.0,0.0,0.0,0.0,0.0,0.0,0.0,0.0,0.0,0.0,0.0,0.0,0.0,0.0,0.0,0.0,0.0,0.0,0.0,0.0,0.0,0.0,0.0,0.0,0.0,0.0,0.0,-2.2323,-2.2289,-2.2289,-2.2289,-2.2289,-2.2289,-2.2407,-2.2304,-2.1937,-2.1518,-2.1444,-2.1498,-2.1815,-2.2126,-2.216,-2.2126,-2.1957,-2.216,-2.2099,-2.2338,-2.2038,-2.1937,-2.2105,-2.174,-2.153,-2.0844,-2.0488,-2.0547,-2.0801,-2.1163,-2.1197,-2.1285,-2.1387,-2.1421,-2.1441,-2.1441,-2.1441,-2.1441,-2.1441,-2.1441,-2.153,-2.1618,-2.1618,-2.1618,-2.1652,-2.1794,-2.1638,-2.1475,-2.1584,-2.155,-2.1584,-2.1828,-2.2004,-2.2079,-2.195,-2.1937,-2.1848,-2.1597,-2.155,-2.1543,-2.1509,-2.1496,-2.1475,-2.1441,-2.1441,-2.1441,-2.1441,-2.1441,-2.1441,-2.1441,-2.223,-2.4299,-2.7688,-3.1169,-3.4381,-3.7926,-4.0082,-4.0949,-4.0588,-4.0508,-4.0361,-4.0147,-4.0147,-4.0,-1.6246,-1.6659,0.0,0.0,0.0,0.0,0.0,0.0,0.0,0.0,0.0,0.0,0.0,0.0,0.0,0.0,0.0,0.0,0.0,0.0,0.0,0.0,0.0,0.0,0.0,0.0,0.0,0.0,-2.2325,-2.2407,-2.2407,-2.2407,-2.2407,-2.2407,-2.2249,-2.2036,-2.1475,-2.1319,-2.1319,-2.1455,-2.1344,-2.1478,-2.1327,-2.1464,-2.1411,-2.1431,-2.2126,-2.1903,-2.1347,-2.1327,-2.1169,-2.0639,-2.0897,-2.0725,-2.0481,-2.0467,-2.0727,-2.0767,-2.1157,-2.1211,-2.1245,-2.1387,-2.1441,-2.1441,-2.1441,-2.1441,-2.1441,-2.1441,-2.1441,-2.1455,-2.1455,-2.1455,-2.1496,-2.1652,-2.1564,-2.1441,-2.1455,-2.1564,-2.1706,-2.1848,-2.2004,-2.2113,-2.2093,-2.2093,-2.2038,-2.1882,-2.1862,-2.1815,-2.1672,-2.1652,-2.1597,-2.1455,-2.1441,-2.1441,-2.1441,-2.1441,-2.1441,-2.1441,-2.457,-2.795,-3.1308,-3.4914,-3.8169,-4.1527,-4.1737,-4.1456,-4.0869,-4.0615,-4.0481,-4.0441,-4.0441,-4.0294,-1.6083,-1.6701,0.0,0.0,0.0,0.0,0.0,0.0,0.0,0.0,0.0,0.0,0.0,0.0,0.0,0.0,0.0,0.0,0.0,0.0,0.0,0.0,0.0,0.0,0.0,0.0,0.0,0.0,0.0,-2.1971,-2.2249,-2.2249,-2.2194,-2.1828,-2.1672,-2.1455,-2.0888,-2.0834,-2.1102,-2.1425,-2.0942,-2.0725,-2.0778,-2.0995,-2.0975,-2.0712,-2.1029,-2.1096,-2.0891,-2.1082,-2.0975,-2.0868,-2.0781,-2.068,-2.0573,-2.0473,-2.0513,-2.0878,-2.1014,-2.1143,-2.1231,-2.1387,-2.1441,-2.1441,-2.1441,-2.1441,-2.1441,-2.1441,-2.1441,-2.1441,-2.1441,-2.1441,-2.1455,-2.1509,-2.1564,-2.1584,-2.1584,-2.1638,-2.1706,-2.1848,-2.2004,-2.2113,-2.2113,-2.2113,-2.2059,-2.1903,-2.1882,-2.1862,-2.1815,-2.1815,-2.176,-2.1597,-2.1584,-2.155,-2.1441,-2.1441,-2.1441,-2.1441,-2.4563,-2.8202,-3.1557,-3.5204,-3.8522,-4.2071,-4.1897,-4.1497,-4.0909,-4.0802,-4.0655,-4.0481,-4.0481,-4.0401,-1.6138,-1.6467,-1.6831,0.0,0.0,0.0,0.0,0.0,0.0,0.0,0.0,0.0,0.0,0.0,0.0,0.0,0.0,0.0,0.0,0.0,0.0,0.0,0.0,0.0,0.0,0.0,0.0,0.0,0.0,0.0,-2.1933,-2.1933,-2.1604,-2.1169,-2.1029,-2.0855,-2.0401,-2.0401,-2.0667,-2.1192,-2.0714,-2.0467,-2.0467,-2.068,-2.0667,-2.0381,-2.0607,-2.0434,-2.06,-2.0767,-2.096,-2.0912,-2.0546,-2.0473,-2.0419,-2.0573,-2.0614,-2.0716,-2.0933,-2.1055,-2.1177,-2.1367,-2.1441,-2.1441,-2.1441,-2.1441,-2.1441,-2.1441,-2.1441,-2.1441,-2.1441,-2.1441,-2.1441,-2.1441,-2.1509,-2.1597,-2.1652,-2.1706,-2.1781,-2.1937,-2.2079,-2.2181,-2.2181,-2.2181,-2.2147,-2.2059,-2.2038,-2.2025,-2.1971,-2.195,-2.1903,-2.176,-2.174,-2.1706,-2.1597,-2.1584,-2.1584,-2.1584,-2.6059,-2.9713,-3.2069,-3.6428,-3.9996,-4.2365,-4.2071,-4.167,-4.1203,-4.1096,-4.0949,-4.0762,-4.0762,-4.0722,0.0,0.0,0.0,-1.6809,0.0,0.0,0.0,0.0,0.0,0.0,0.0,0.0,0.0,0.0,0.0,0.0,0.0,0.0,0.0,0.0,0.0,0.0,0.0,0.0,0.0,0.0,0.0,0.0,-2.1391,-2.148,-2.148,-2.1459,-2.1143,-2.0467,-2.0573,-2.0506,-2.0506,-2.0506,-2.0506,-2.0506,-2.0381,-2.0448,-2.0448,-2.056,-2.0506,-2.0486,-2.0607,-2.0439,-2.0448,-2.0714,-2.0627,-2.0506,-2.077,-2.0668,-2.0539,-2.0539,-2.0539,-2.0573,-2.0892,-2.1001,-2.1055,-2.1333,-2.1441,-2.1441,-2.1441,-2.1441,-2.1441,-2.1441,-2.1441,-2.1441,-2.1441,-2.1441,-2.1441,-2.1441,-2.1441,-2.1475,-2.1638,-2.1781,-2.1937,-2.2079,-2.2235,-2.2337,-2.2337,-2.2337,-2.2337,-2.2337,-2.2337,-2.2289,-2.2127,-2.2113,-2.2059,-2.1903,-2.1882,-2.1882,-2.1882,-2.1882,-2.1882,-2.216,-2.8526,-3.2504,-3.2779,-3.9145,-4.2659,-4.2659,-4.2365,-4.2111,-4.1817,-4.1497,-4.1336,-4.1336,-4.1336,-4.1203,-1.5334,0.0,0.0,0.0,0.0,0.0,-1.7141,0.0,0.0,0.0,0.0,0.0,0.0,0.0,0.0,0.0,0.0,0.0,0.0,0.0,0.0,0.0,0.0,0.0,0.0,0.0,0.0,0.0,-2.07,-2.0781,-2.0781,-2.068,-2.0613,-2.0573,-2.0419,-2.0607,-2.0607,-2.0607,-2.0607,-2.0607,-2.0386,-2.0406,-2.0406,-2.0627,-2.0607,-2.0594,-2.056,-2.0519,-2.0265,-2.0627,-2.0648,-2.0607,-2.0614,-2.0573,-2.0539,-2.0539,-2.0539,-2.0573,-2.077,-2.0912,-2.1034,-2.1211,-2.1353,-2.1441,-2.1441,-2.1441,-2.1441,-2.1441,-2.1441,-2.1441,-2.1441,-2.1441,-2.1441,-2.1441,-2.1441,-2.1475,-2.1638,-2.1781,-2.1937,-2.2079,-2.2235,-2.2337,-2.2337,-2.2337,-2.2337,-2.2337,-2.2337,-2.2323,-2.2289,-2.2269,-2.2215,-2.2059,-2.2038,-2.2004,-2.1903,-2.1882,-2.295,-2.5606,-3.0125,-3.3561,-3.6182,-4.0615,-4.298,-4.298,-4.2699,-4.2512,-4.2405,-4.1897,-4.1563,-4.1336,-4.1336,-4.131,-0.8779,-1.221,-1.577,-1.6062,0.0,0.0,-1.6842,-1.7019,0.0,0.0,0.0,0.0,0.0,0.0,0.0,0.0,0.0,0.0,0.0,0.0,0.0,0.0,0.0,0.0,0.0,-2.0486,-2.0506,-2.0419,-2.0486,-2.0526,-2.0453,-2.0573,-2.0492,-2.0492,-2.0404,-2.0363,-2.0363,-2.0417,-2.0451,-2.0451,-2.0505,-2.0539,-2.0539,-2.0539,-2.0505,-2.0451,-2.0451,-2.0363,-2.0241,-2.0329,-2.0397,-2.0451,-2.0526,-2.0539,-2.0539,-2.0539,-2.0539,-2.056,-2.0716,-2.0824,-2.0933,-2.1068,-2.1231,-2.1353,-2.1353,-2.1387,-2.1441,-2.1441,-2.1441,-2.1441,-2.1441,-2.1441,-2.1441,-2.1441,-2.1441,-2.1475,-2.1638,-2.174,-2.1862,-2.2072,-2.2235,-2.2337,-2.2337,-2.2337,-2.2337,-2.2337,-2.2337,-2.2337,-2.2337,-2.2337,-2.2303,-2.2215,-2.2201,-2.216,-2.2079,-2.2079,-2.3694,-2.7165,-3.0924,-3.4386,-3.8117,-4.1478,-4.3273,-4.3273,-4.2993,-4.2766,-4.2659,-4.2191,-4.1884,-4.171,-4.171,-4.163,-0.0,-0.7417,-1.5374,-1.5803,-1.6083,0.0,-1.6824,-1.6941,-1.7037,0.0,0.0,0.0,0.0,0.0,0.0,0.0,0.0,0.0,0.0,0.0,0.0,0.0,0.0,0.0,-2.0492,-2.0492,-2.0492,-2.0492,-2.0492,-2.0438,-2.0315,-2.0429,-2.0361,-2.0361,-2.0105,-2.0098,-2.0098,-2.0241,-2.0309,-2.0309,-2.0438,-2.0485,-2.0485,-2.0485,-2.0417,-2.0309,-2.0309,-2.0227,-2.0085,-2.0098,-2.0187,-2.0315,-2.0451,-2.0526,-2.0526,-2.0539,-2.0539,-2.056,-2.0702,-2.0756,-2.079,-2.0933,-2.1068,-2.1197,-2.1197,-2.1299,-2.1421,-2.1441,-2.1441,-2.1441,-2.1441,-2.1441,-2.1441,-2.1441,-2.1441,-2.1475,-2.1618,-2.1652,-2.174,-2.2004,-2.2201,-2.2323,-2.2337,-2.2337,-2.2337,-2.2337,-2.2337,-2.2337,-2.2337,-2.2337,-2.2337,-2.2337,-2.2337,-2.2337,-2.2337,-2.2337,-2.3971,-2.7492,-3.0734,-3.425,-3.775,-4.0757,-4.2246,-4.2246,-4.1974,-4.1934,-4.2187,-4.2124,-4.2218,-4.2218,-4.2258,-4.2151,-0.0,-0.7361,-1.5316,-1.5335,-1.5704,0.0,-1.6172,-1.6585,-1.6982,0.0,0.0,0.0,0.0,0.0,0.0,0.0,0.0,0.0,0.0,0.0,0.0,0.0,0.0,0.0,-2.045,-2.045,-2.045,-2.045,-2.045,-2.0423,-1.9897,-1.9863,-1.9843,-1.9843,-1.9843,-1.9843,-2.0098,-2.0132,-2.0153,-2.0153,-2.0173,-2.0187,-2.0187,-2.0187,-2.0173,-2.0153,-2.0153,-2.0064,-1.9929,-2.0051,-2.0119,-2.0153,-2.0315,-2.0363,-2.0383,-2.0505,-2.0539,-2.0539,-2.0573,-2.0668,-2.077,-2.0811,-2.0912,-2.1034,-2.1034,-2.1143,-2.1279,-2.1408,-2.1441,-2.1441,-2.1441,-2.1441,-2.1441,-2.1441,-2.1441,-2.1441,-2.1475,-2.1584,-2.1692,-2.174,-2.1971,-2.2201,-2.2323,-2.2337,-2.2337,-2.2337,-2.2337,-2.2337,-2.2337,-2.2337,-2.2337,-2.2337,-2.2337,-2.2337,-2.2337,-2.2337,-2.3971,-2.7492,-2.8285,-3.0463,-3.397,-3.4757,-3.5262,-3.5262,-3.5004,-3.6099,-3.8784,-4.1171,-4.2218,-4.2218,-4.2472,-4.2552,-0.0,-0.382,-0.8982,-1.4211,-1.5857,0.0,0.0,-1.6272,-1.6659,0.0,0.0,0.0,0.0,0.0,0.0,0.0,0.0,0.0,0.0,0.0,0.0,0.0,0.0,0.0,-1.9997,-2.0051,-2.0098,-2.0098,-2.0031,-1.9997,-1.9742,-1.9669,-1.9635,-1.9635,-1.9635,-1.9642,-1.9888,-1.9963,-1.9997,-1.9997,-2.0064,-2.0098,-2.0098,-2.0098,-2.0064,-1.9997,-1.9997,-1.9908,-1.9766,-1.9854,-1.9888,-1.9908,-2.0139,-2.0227,-2.0241,-2.0383,-2.0438,-2.0451,-2.0526,-2.0594,-2.0668,-2.0668,-2.0756,-2.0892,-2.0892,-2.098,-2.1143,-2.1279,-2.1333,-2.1353,-2.1421,-2.1441,-2.1441,-2.1441,-2.1441,-2.1441,-2.1441,-2.1496,-2.1584,-2.1652,-2.1794,-2.1937,-2.2093,-2.2181,-2.2235,-2.2235,-2.2289,-2.2337,-2.2337,-2.2337,-2.2337,-2.2337,-2.2337,-2.2337,-2.2337,-2.2337,-2.3971,-2.7492,-2.7757,-2.9384,-3.3161,-3.3171,-3.3171,-3.3171,-3.2929,-3.4354,-3.7988,-3.9182,-4.0826,-4.2659,-4.2806,-4.2873,-0.0,-0.0,-0.2628,-1.3385,-1.6103,-1.6015,0.0,0.0,0.0,0.0,0.0,0.0,0.0,0.0,0.0,0.0,0.0,0.0,0.0,0.0,0.0,0.0,0.0,0.0,-1.9746,-1.9602,-1.9669,-1.9669,-1.9813,-1.9746,-1.9746,-1.9664,-1.961,-1.961,-1.9644,-1.9664,-1.9664,-1.9766,-1.9841,-1.9841,-1.9963,-2.001,-2.001,-2.001,-1.9942,-1.9841,-1.9841,-1.9766,-1.9664,-1.9664,-1.9664,-1.9678,-1.9963,-2.0051,-2.0085,-2.0227,-2.0309,-2.0349,-2.0451,-2.0526,-2.0539,-2.0539,-2.0627,-2.0736,-2.0756,-2.0858,-2.098,-2.1123,-2.1197,-2.1245,-2.1367,-2.1421,-2.1441,-2.1441,-2.1441,-2.1441,-2.1441,-2.1441,-2.1475,-2.1597,-2.1618,-2.1686,-2.1848,-2.1991,-2.2079,-2.2113,-2.2215,-2.2303,-2.2337,-2.2337,-2.2337,-2.2337,-2.2337,-2.2337,-2.2337,-2.2337,-2.3434,-2.6397,-2.6671,-2.8021,-3.1015,-3.1025,-3.1025,-3.1025,-3.0845,-3.261,-3.6112,-3.5901,-3.8429,-4.31,-4.3167,-4.3167,-0.0,-0.0,-0.2499,-1.3303,-1.6062,-1.6105,-1.6138,0.0,-1.6172,-1.6939,0.0,0.0,0.0,0.0,0.0,0.0,0.0,0.0,0.0,0.0,0.0,0.0,0.0,0.0,0.0,-1.9782,-1.9796,-1.9796,-1.9782,-1.9761,-1.9761,-1.9647,-1.9695,-1.9695,-1.9596,-1.9664,-1.9664,-1.9678,-1.9678,-1.9678,-1.9698,-1.9712,-1.9712,-1.9712,-1.9698,-1.9678,-1.9678,-1.9678,-1.9664,-1.9664,-1.9664,-1.9678,-1.9841,-1.9888,-1.9922,-2.0064,-2.0207,-2.0329,-2.0349,-2.0438,-2.0539,-2.0539,-2.056,-2.0594,-2.0736,-2.079,-2.0824,-2.098,-2.1109,-2.1211,-2.1231,-2.1333,-2.1441,-2.1441,-2.1441,-2.1441,-2.1441,-2.1441,-2.1441,-2.1455,-2.1455,-2.155,-2.1828,-2.1903,-2.195,-2.2093,-2.2127,-2.2181,-2.2323,-2.2337,-2.2337,-2.2337,-2.2337,-2.2337,-2.2337,-2.2337,-2.2344,-2.2875,-2.2875,-2.3158,-2.3427,-2.3427,-2.3427,-2.3427,-2.3413,-2.5285,-2.8795,-2.8769,-3.3691,-4.31,-4.3354,-4.3487,-0.0,-0.0,-0.107,-0.5698,-0.6665,-0.8448,-1.4626,-1.6048,-1.6266,-1.6413,0.0,0.0,0.0,0.0,0.0,0.0,-1.7614,0.0,0.0,0.0,0.0,0.0,0.0,0.0,0.0,0.0,0.0,-1.9203,-1.9203,-1.9203,-1.9203,-1.925,-1.9291,-1.9291,-1.9359,-1.9434,-1.9522,-1.9522,-1.9569,-1.9664,-1.9664,-1.9664,-1.9664,-1.9664,-1.9664,-1.9664,-1.9664,-1.9664,-1.9664,-1.9664,-1.9664,-1.9664,-1.9732,-1.9752,-1.9766,-1.9908,-2.0064,-2.0207,-2.0295,-2.0417,-2.0539,-2.0539,-2.0539,-2.056,-2.0614,-2.0627,-2.0668,-2.0824,-2.0912,-2.1001,-2.1157,-2.1265,-2.1333,-2.1421,-2.1441,-2.1441,-2.1441,-2.1441,-2.1441,-2.1441,-2.1441,-2.1475,-2.1597,-2.1706,-2.1815,-2.195,-2.2059,-2.216,-2.2323,-2.2337,-2.2337,-2.2337,-2.2337,-2.2337,-2.2337,-2.2337,-2.2337,-2.2337,-2.2337,-2.2337,-2.2337,-2.2337,-2.2337,-2.2337,-2.2337,-2.3964,-2.7757,-2.7757,-3.0902,-3.7428,-3.7555,-3.752,-0.0,-0.0,-0.0,-0.0,-0.0,-0.2923,-1.3783,-1.6413,-1.6353,-1.608,-1.654,0.0,0.0,0.0,-1.7026,-1.6949,0.0,-1.7725,0.0,0.0,0.0,0.0,0.0,0.0,0.0,0.0,0.0,0.0,0.0,-1.8831,-1.8831,-1.8865,-1.8905,-1.9149,-1.9183,-1.925,-1.9359,-1.9359,-1.9434,-1.9535,-1.9535,-1.9535,-1.9535,-1.9576,-1.959,-1.961,-1.9644,-1.9664,-1.9664,-1.9664,-1.9664,-1.9664,-1.9664,-1.9664,-1.9678,-1.9786,-1.9942,-2.0119,-2.0227,-2.0383,-2.0539,-2.0539,-2.0539,-2.0539,-2.0539,-2.0539,-2.056,-2.0682,-2.0736,-2.0824,-2.1034,-2.1157,-2.1245,-2.1353,-2.1408,-2.1441,-2.1441,-2.1441,-2.1441,-2.1441,-2.1441,-2.1441,-2.1441,-2.153,-2.1652,-2.1794,-2.195,-2.2113,-2.2249,-2.2323,-2.2337,-2.2337,-2.2337,-2.2323,-2.2289,-2.2269,-2.2269,-2.2269,-2.2323,-2.2337,-2.2337,-2.2337,-2.2337,-2.2337,-2.2337,-2.3688,-2.6131,-2.6131,-2.75,-3.02,-3.235,-3.304,-0.0,-0.0,-0.0,-0.0,-0.0,-0.2962,-1.4481,-1.701,-1.6776,-1.6293,-1.654,-1.701,-1.6951,-1.6978,-1.7026,-1.6949,-1.6976,0.0,0.0,0.0,0.0,0.0,0.0,0.0,0.0,0.0,0.0,0.0,-1.8782,-1.8782,-1.8782,-1.8918,-1.8986,-1.8993,-1.9128,-1.9203,-1.9203,-1.9203,-1.9217,-1.9217,-1.9217,-1.9217,-1.9217,-1.9379,-1.9434,-1.9447,-1.959,-1.9664,-1.9664,-1.9664,-1.9664,-1.9664,-1.9664,-1.9664,-1.9664,-1.9664,-1.9854,-2.0098,-2.0098,-2.0295,-2.0539,-2.0539,-2.0539,-2.0539,-2.0539,-2.0539,-2.0539,-2.0539,-2.0648,-2.077,-2.079,-2.1001,-2.1211,-2.1211,-2.1333,-2.1441,-2.1441,-2.1441,-2.1441,-2.1441,-2.1441,-2.1441,-2.1441,-2.1441,-2.1496,-2.1652,-2.1794,-2.195,-2.2093,-2.2249,-2.2337,-2.2337,-2.2337,-2.2289,-2.2127,-2.2113,-2.2113,-2.2113,-2.2249,-2.2337,-2.2337,-2.2337,-2.2337,-2.2337,-2.2337,-2.2344,-2.2344,-2.2344,-2.2606,-2.2889,-2.9937,-3.304,-0.0,-0.0,-0.0,-0.0,-0.0,-0.3071,-1.4484,-1.7016,-1.6944,-1.6842,-1.6951,-1.7078,-1.6965,-1.6998,-1.7019,-1.7046,-1.7053,-1.71,0.0,-1.7494,0.0,0.0,0.0,0.0,0.0,0.0,0.0,0.0,-1.8836,-1.8891,-1.8762,-1.8816,-1.883,-1.8837,-1.8884,-1.8952,-1.9061,-1.9061,-1.9115,-1.9203,-1.9203,-1.9203,-1.9203,-1.9257,-1.9271,-1.9291,-1.9447,-1.9501,-1.9522,-1.9624,-1.9664,-1.9664,-1.9664,-1.9664,-1.9664,-1.9664,-1.9854,-2.0139,-2.0329,-2.0451,-2.0539,-2.0539,-2.0539,-2.0539,-2.0539,-2.0539,-2.0539,-2.0539,-2.0573,-2.0648,-2.0756,-2.0845,-2.0946,-2.1055,-2.1109,-2.1177,-2.1265,-2.1285,-2.1319,-2.1421,-2.1441,-2.1441,-2.1441,-2.1441,-2.1496,-2.1652,-2.1706,-2.1794,-2.1937,-2.2004,-2.2038,-2.2038,-2.2038,-2.2025,-2.1971,-2.2059,-2.2113,-2.2113,-2.2249,-2.2337,-2.2337,-2.2337,-2.2337,-2.2337,-2.2337,-2.2337,-2.2337,-2.2337,-2.2337,-2.2344,-2.4661,-2.5869,-0.0,-0.0,-0.0,-0.0,-0.0,-0.2029,-0.9212,-1.0993,-1.1004,-1.1047,-1.417,-1.5748,-1.169,-1.4252,-1.7026,-1.7005,-1.6992,-1.7026,0.0,-1.7628,-1.7847,-1.7998,0.0,0.0,0.0,0.0,0.0,-1.845,-1.8733,-1.8802,-1.8674,-1.8728,-1.8762,-1.8762,-1.8762,-1.8816,-1.8905,-1.8905,-1.8959,-1.9047,-1.9047,-1.9047,-1.9047,-1.9094,-1.9128,-1.9128,-1.9345,-1.9434,-1.9447,-1.959,-1.9664,-1.9664,-1.9664,-1.9664,-1.9664,-1.9712,-1.9922,-2.0227,-2.0451,-2.0539,-2.0539,-2.0539,-2.0539,-2.0539,-2.0539,-2.0539,-2.0539,-2.0539,-2.0539,-2.056,-2.0668,-2.0736,-2.079,-2.0892,-2.0967,-2.1021,-2.1123,-2.1177,-2.1245,-2.1333,-2.1441,-2.153,-2.153,-2.1564,-2.1597,-2.1584,-2.1638,-2.1706,-2.1794,-2.1848,-2.1882,-2.1882,-2.1882,-2.1862,-2.1815,-2.195,-2.2025,-2.2025,-2.2215,-2.2337,-2.2337,-2.2337,-2.2337,-2.2337,-2.2337,-2.2337,-2.2337,-2.2337,-2.2303,-2.2249,-2.2093,-2.195]},{"header":{"parameterUnit":"m.s-1","parameterCategory":1,"la1":30.6,"la2":29.2853,"lo1":-89.7004,"lo2":-87.6739,"dy":0.0162,"dx":0.0183,"nx":112,"ny":82,"refTime":"2024-04-10T18:00:00:Z","depth":0,"parameterNumber":3,"parameterNumberName":"V-component_of_WINDS"},"data":[0.0,0.0,0.0,0.0,0.0,0.0,0.0,0.0,0.0,0.0,0.0,0.0,0.0,0.0,0.0,0.0,0.0,0.0,0.0,0.0,0.0,0.0,0.0,0.0,0.0,0.0,0.0,0.0,0.0,0.0,0.0,0.0,0.0,0.0,0.0,0.0,0.0,0.0,0.0,0.0,0.0,0.0,0.0,0.0,0.0,0.0,0.0,0.0,0.0,0.0,0.0,0.0,0.0,0.0,0.0,0.0,0.0,0.0,0.0,0.0,0.0,0.0,0.0,0.0,0.0,0.0,0.0,0.0,0.0,0.0,0.0,0.0,0.0,0.0,0.0,0.0,0.0,0.0,0.0,0.0,0.0,0.0,0.0,0.0,0.0,0.0,0.0,0.0,0.0,0.0,-7.121,-7.3815,-8.2002,-8.8429,-9.1406,-8.9613,-8.6738,-8.2983,0.0,0.0,0.0,0.0,0.0,0.0,0.0,0.0,0.0,0.0,0.0,0.0,0.0,0.0,0.0,0.0,0.0,0.0,0.0,0.0,0.0,0.0,0.0,0.0,0.0,0.0,0.0,0.0,0.0,0.0,0.0,0.0,0.0,0.0,0.0,0.0,0.0,0.0,0.0,0.0,0.0,0.0,0.0,0.0,0.0,0.0,0.0,0.0,0.0,0.0,0.0,0.0,0.0,0.0,0.0,0.0,0.0,0.0,0.0,0.0,0.0,0.0,0.0,0.0,0.0,0.0,0.0,0.0,0.0,0.0,0.0,0.0,0.0,0.0,0.0,0.0,0.0,0.0,0.0,0.0,0.0,0.0,0.0,0.0,0.0,0.0,0.0,0.0,0.0,0.0,0.0,0.0,0.0,0.0,0.0,0.0,0.0,0.0,0.0,0.0,0.0,0.0,0.0,0.0,-7.3172,-8.0987,-8.5993,-8.9951,-9.2996,-9.1169,-8.826,-8.4539,0.0,0.0,0.0,0.0,0.0,0.0,0.0,0.0,0.0,0.0,0.0,0.0,0.0,0.0,0.0,0.0,0.0,0.0,0.0,0.0,0.0,0.0,0.0,0.0,0.0,0.0,0.0,0.0,0.0,0.0,0.0,0.0,0.0,0.0,0.0,0.0,0.0,0.0,0.0,0.0,0.0,0.0,0.0,0.0,0.0,0.0,0.0,0.0,0.0,0.0,0.0,0.0,0.0,0.0,0.0,0.0,0.0,0.0,0.0,0.0,0.0,0.0,0.0,0.0,0.0,0.0,0.0,0.0,0.0,0.0,0.0,0.0,0.0,0.0,0.0,0.0,0.0,0.0,0.0,0.0,0.0,0.0,0.0,0.0,0.0,0.0,0.0,0.0,0.0,0.0,0.0,0.0,0.0,0.0,0.0,0.0,0.0,0.0,0.0,0.0,0.0,0.0,0.0,-7.2157,-7.6454,-8.3355,-8.6738,-8.9545,-9.2116,-9.029,-8.7583,-8.4234,-7.9938,0.0,0.0,0.0,0.0,0.0,0.0,0.0,0.0,0.0,0.0,0.0,0.0,0.0,0.0,0.0,0.0,0.0,0.0,0.0,0.0,0.0,0.0,0.0,0.0,0.0,0.0,0.0,0.0,0.0,0.0,0.0,0.0,0.0,0.0,0.0,0.0,0.0,0.0,0.0,0.0,0.0,0.0,0.0,0.0,0.0,0.0,0.0,0.0,0.0,0.0,0.0,0.0,0.0,0.0,0.0,0.0,0.0,0.0,0.0,0.0,0.0,0.0,0.0,0.0,0.0,0.0,0.0,0.0,0.0,0.0,0.0,0.0,0.0,0.0,0.0,0.0,0.0,0.0,0.0,0.0,0.0,0.0,0.0,0.0,0.0,0.0,0.0,0.0,0.0,0.0,0.0,0.0,0.0,0.0,0.0,0.0,0.0,0.0,0.0,0.0,0.0,0.0,-7.5067,-7.9022,-8.3942,-8.6904,-8.9328,-9.1501,-8.9465,-8.6904,-8.3875,-8.0647,0.0,0.0,0.0,0.0,0.0,0.0,0.0,0.0,0.0,0.0,0.0,0.0,0.0,0.0,0.0,0.0,0.0,0.0,0.0,0.0,0.0,0.0,0.0,0.0,0.0,0.0,0.0,0.0,0.0,0.0,0.0,0.0,0.0,0.0,0.0,0.0,0.0,0.0,0.0,0.0,0.0,0.0,0.0,0.0,0.0,0.0,0.0,0.0,0.0,0.0,0.0,0.0,0.0,0.0,0.0,0.0,0.0,0.0,0.0,0.0,0.0,0.0,0.0,0.0,0.0,0.0,0.0,0.0,0.0,0.0,0.0,0.0,0.0,0.0,0.0,0.0,0.0,0.0,0.0,0.0,0.0,0.0,0.0,0.0,0.0,0.0,0.0,0.0,0.0,0.0,0.0,0.0,0.0,0.0,0.0,0.0,0.0,0.0,0.0,0.0,0.0,0.0,-7.5202,-7.9518,-8.3797,-8.7562,-9.0496,-9.2392,-9.0175,-8.7423,-8.4343,-8.0292,0.0,0.0,0.0,0.0,0.0,0.0,0.0,0.0,0.0,0.0,0.0,0.0,0.0,0.0,0.0,0.0,0.0,0.0,0.0,0.0,0.0,0.0,0.0,0.0,0.0,0.0,0.0,0.0,0.0,0.0,0.0,0.0,0.0,0.0,0.0,0.0,0.0,0.0,0.0,0.0,0.0,0.0,0.0,0.0,0.0,0.0,0.0,0.0,0.0,0.0,0.0,0.0,0.0,0.0,0.0,0.0,0.0,0.0,0.0,0.0,0.0,0.0,0.0,0.0,0.0,0.0,0.0,0.0,0.0,0.0,0.0,0.0,0.0,0.0,0.0,0.0,0.0,0.0,0.0,0.0,0.0,0.0,0.0,0.0,0.0,0.0,0.0,0.0,0.0,0.0,0.0,0.0,0.0,0.0,0.0,0.0,0.0,0.0,0.0,0.0,0.0,0.0,-7.7405,-8.1399,-8.4803,-8.7808,-8.9859,-9.0516,-8.9225,-8.6826,-8.3008,0.0,0.0,0.0,0.0,0.0,0.0,0.0,0.0,0.0,0.0,0.0,0.0,0.0,0.0,0.0,0.0,0.0,0.0,0.0,0.0,0.0,0.0,0.0,0.0,0.0,0.0,0.0,0.0,0.0,0.0,0.0,0.0,0.0,0.0,0.0,0.0,0.0,0.0,0.0,0.0,0.0,0.0,0.0,0.0,0.0,0.0,0.0,0.0,0.0,0.0,0.0,0.0,0.0,0.0,0.0,0.0,0.0,0.0,0.0,0.0,0.0,0.0,0.0,0.0,0.0,0.0,0.0,0.0,0.0,0.0,0.0,0.0,0.0,0.0,0.0,0.0,0.0,0.0,0.0,0.0,0.0,0.0,0.0,0.0,0.0,0.0,0.0,0.0,0.0,0.0,0.0,0.0,0.0,0.0,0.0,0.0,0.0,0.0,0.0,0.0,0.0,0.0,-7.5273,-7.9066,-8.2832,-8.5714,-8.8434,-9.007,-9.008,-8.907,-8.686,-8.3096,0.0,0.0,0.0,0.0,0.0,0.0,0.0,0.0,0.0,0.0,0.0,0.0,0.0,0.0,0.0,0.0,0.0,0.0,0.0,0.0,0.0,0.0,0.0,0.0,0.0,0.0,0.0,0.0,0.0,0.0,0.0,0.0,0.0,0.0,0.0,0.0,0.0,0.0,0.0,0.0,0.0,0.0,0.0,0.0,0.0,0.0,0.0,0.0,0.0,0.0,0.0,0.0,0.0,0.0,0.0,0.0,0.0,0.0,0.0,0.0,0.0,0.0,0.0,0.0,0.0,0.0,0.0,0.0,0.0,0.0,0.0,0.0,0.0,0.0,0.0,0.0,0.0,0.0,0.0,0.0,0.0,0.0,0.0,0.0,0.0,0.0,0.0,0.0,0.0,0.0,0.0,0.0,0.0,0.0,0.0,0.0,0.0,0.0,0.0,0.0,0.0,0.0,-7.6261,-8.0042,-8.3636,-8.6361,-8.9473,-9.1466,-9.1767,-9.0066,-8.7771,0.0,0.0,0.0,0.0,0.0,0.0,0.0,0.0,0.0,0.0,0.0,0.0,0.0,0.0,0.0,0.0,0.0,0.0,0.0,0.0,0.0,0.0,0.0,0.0,0.0,0.0,0.0,0.0,0.0,0.0,0.0,0.0,0.0,0.0,0.0,0.0,0.0,0.0,0.0,0.0,0.0,0.0,0.0,0.0,0.0,0.0,0.0,0.0,0.0,0.0,0.0,0.0,0.0,0.0,0.0,0.0,0.0,0.0,0.0,0.0,0.0,0.0,0.0,0.0,0.0,0.0,0.0,0.0,0.0,0.0,0.0,0.0,0.0,0.0,0.0,0.0,0.0,0.0,0.0,0.0,0.0,0.0,0.0,0.0,0.0,0.0,0.0,0.0,0.0,0.0,0.0,0.0,0.0,0.0,0.0,0.0,0.0,0.0,0.0,0.0,0.0,0.0,0.0,-8.0161,-8.391,-8.723,-8.9203,-9.1796,-9.3008,-9.1987,-9.0814,-8.872,-8.5434,0.0,0.0,0.0,0.0,0.0,0.0,0.0,0.0,0.0,0.0,0.0,0.0,0.0,0.0,0.0,0.0,0.0,0.0,0.0,0.0,0.0,0.0,0.0,0.0,0.0,0.0,0.0,0.0,0.0,0.0,0.0,0.0,0.0,0.0,0.0,0.0,0.0,0.0,0.0,0.0,0.0,0.0,0.0,0.0,0.0,0.0,0.0,0.0,0.0,0.0,0.0,0.0,0.0,0.0,0.0,0.0,0.0,0.0,0.0,0.0,0.0,0.0,0.0,0.0,0.0,0.0,0.0,0.0,0.0,0.0,0.0,0.0,0.0,0.0,0.0,0.0,0.0,0.0,0.0,0.0,0.0,0.0,0.0,0.0,0.0,0.0,0.0,0.0,0.0,0.0,0.0,0.0,0.0,0.0,0.0,0.0,0.0,0.0,0.0,0.0,0.0,0.0,-8.3152,-8.6757,-8.9784,-9.1436,-9.3529,-9.4373,-9.3418,-9.2281,-9.0227,-8.6986,0.0,0.0,0.0,0.0,0.0,0.0,0.0,0.0,0.0,0.0,0.0,0.0,0.0,0.0,0.0,0.0,0.0,0.0,0.0,0.0,0.0,0.0,0.0,0.0,0.0,0.0,0.0,0.0,0.0,0.0,0.0,0.0,0.0,0.0,0.0,0.0,0.0,0.0,0.0,0.0,0.0,0.0,0.0,0.0,0.0,0.0,0.0,0.0,0.0,0.0,0.0,0.0,0.0,0.0,0.0,0.0,0.0,0.0,0.0,0.0,0.0,0.0,0.0,0.0,0.0,0.0,0.0,0.0,0.0,0.0,0.0,0.0,0.0,0.0,0.0,0.0,0.0,0.0,0.0,0.0,0.0,0.0,0.0,0.0,0.0,0.0,0.0,0.0,0.0,0.0,0.0,0.0,0.0,0.0,0.0,0.0,0.0,0.0,0.0,0.0,0.0,0.0,-8.5652,-8.8801,-9.1583,-9.3272,-9.4887,-9.5804,-9.5731,-9.4189,-9.2055,-8.9386,0.0,0.0,0.0,0.0,0.0,0.0,0.0,0.0,0.0,0.0,0.0,0.0,0.0,0.0,0.0,0.0,0.0,0.0,0.0,0.0,0.0,0.0,0.0,0.0,0.0,0.0,0.0,0.0,0.0,0.0,0.0,0.0,0.0,0.0,0.0,0.0,0.0,0.0,0.0,0.0,0.0,0.0,0.0,0.0,0.0,0.0,0.0,0.0,0.0,0.0,0.0,0.0,0.0,0.0,0.0,0.0,0.0,0.0,0.0,0.0,-9.9218,-9.7163,0.0,0.0,0.0,0.0,0.0,0.0,0.0,0.0,0.0,0.0,0.0,0.0,0.0,0.0,0.0,0.0,0.0,0.0,0.0,0.0,0.0,0.0,0.0,0.0,0.0,0.0,0.0,0.0,0.0,0.0,0.0,0.0,0.0,0.0,0.0,0.0,0.0,0.0,0.0,0.0,-8.8435,-9.1437,-9.4116,-9.5768,-9.7383,-9.808,-9.7419,-9.5327,-9.3271,-9.1362,-8.6824,0.0,0.0,0.0,0.0,0.0,0.0,0.0,0.0,0.0,0.0,0.0,0.0,0.0,0.0,0.0,0.0,0.0,0.0,0.0,0.0,0.0,0.0,0.0,0.0,0.0,0.0,0.0,0.0,0.0,0.0,0.0,0.0,0.0,0.0,0.0,0.0,0.0,0.0,0.0,0.0,0.0,0.0,0.0,0.0,0.0,0.0,0.0,0.0,0.0,0.0,0.0,0.0,0.0,0.0,0.0,0.0,0.0,0.0,0.0,0.0,-10.1714,0.0,0.0,0.0,0.0,0.0,0.0,0.0,0.0,0.0,0.0,0.0,0.0,0.0,0.0,0.0,0.0,0.0,0.0,0.0,0.0,0.0,0.0,0.0,0.0,0.0,0.0,0.0,0.0,0.0,0.0,0.0,0.0,0.0,0.0,0.0,0.0,0.0,0.0,0.0,0.0,-9.1033,-9.4006,-9.6649,-9.8264,-9.9879,-10.0503,-9.9695,-9.775,-9.5584,-9.3198,-8.9057,0.0,0.0,0.0,0.0,0.0,0.0,0.0,0.0,0.0,0.0,0.0,0.0,0.0,0.0,0.0,0.0,0.0,0.0,0.0,0.0,0.0,0.0,0.0,0.0,0.0,0.0,0.0,0.0,0.0,0.0,0.0,0.0,0.0,0.0,0.0,0.0,0.0,0.0,0.0,0.0,0.0,0.0,0.0,0.0,0.0,0.0,0.0,0.0,0.0,0.0,0.0,0.0,0.0,-11.4378,-11.5185,-11.592,-11.6213,-11.6617,-11.6911,-11.0707,-10.7514,-10.6523,-10.4798,0.0,0.0,0.0,0.0,0.0,0.0,0.0,0.0,0.0,0.0,0.0,0.0,0.0,0.0,0.0,0.0,0.0,0.0,0.0,0.0,0.0,0.0,-9.4189,-9.5107,-9.6171,-9.6245,-9.3492,0.0,0.0,0.0,0.0,0.0,0.0,0.0,0.0,0.0,0.0,0.0,-9.3088,-9.6098,-9.8704,-10.0319,-10.1898,-10.2595,-10.1788,-10.0209,-9.8007,-9.4923,-9.1657,-8.8692,0.0,0.0,0.0,0.0,0.0,0.0,0.0,0.0,0.0,0.0,0.0,0.0,0.0,0.0,0.0,0.0,0.0,0.0,0.0,0.0,0.0,0.0,0.0,0.0,0.0,0.0,0.0,0.0,0.0,0.0,0.0,0.0,-10.2118,-10.3109,0.0,0.0,0.0,0.0,0.0,0.0,0.0,0.0,0.0,0.0,0.0,0.0,0.0,-11.5406,-11.6213,-11.6397,-11.6801,-11.7608,-11.9187,-11.9994,-12.0104,-12.1499,-12.2196,-12.2196,-12.0581,0.0,-11.2396,-11.0707,0.0,0.0,0.0,0.0,0.0,0.0,0.0,0.0,0.0,0.0,0.0,0.0,0.0,0.0,0.0,0.0,0.0,0.0,0.0,0.0,0.0,0.0,-9.764,-9.9145,-10.12,-10.2705,-10.2191,-9.8851,-9.5914,-9.5914,-9.4666,-9.3198,0.0,0.0,0.0,0.0,0.0,0.0,-9.3932,-9.6942,-9.9548,-10.12,-10.2779,-10.3403,-10.2595,-10.109,-9.9071,-9.6539,-9.3345,-9.074,-8.891,-8.6779,0.0,0.0,0.0,0.0,0.0,0.0,0.0,0.0,0.0,0.0,0.0,0.0,0.0,0.0,0.0,0.0,0.0,0.0,0.0,0.0,0.0,0.0,0.0,0.0,0.0,0.0,0.0,0.0,0.0,-10.388,-10.5789,-10.6596,-10.7404,-10.8724,0.0,0.0,0.0,0.0,0.0,0.0,0.0,0.0,0.0,-11.8195,-11.8599,-11.8893,-11.9297,-12.0214,-12.0802,-12.1205,-12.2784,-12.4105,-12.4986,-12.5684,-12.6491,-12.7299,-12.6491,-12.4693,-12.2013,-11.6727,-11.3901,-11.2616,0.0,0.0,0.0,0.0,-10.9423,-10.979,-11.0304,-11.0193,-10.9656,-10.8964,0.0,0.0,0.0,0.0,0.0,0.0,0.0,-9.9732,-10.0503,-10.1677,-10.3182,-10.5275,-10.689,-10.8101,-10.8578,-10.6706,-10.3623,-9.9512,-9.7419,-9.5804,-9.4153,-9.3198,0.0,0.0,0.0,-9.463,-9.6722,-9.9402,-10.1714,-10.3403,-10.4614,-10.4798,-10.3513,-10.2301,-10.0393,-9.7566,-9.518,-9.2978,-9.0886,-8.8904,-8.7121,0.0,0.0,0.0,0.0,0.0,0.0,0.0,0.0,0.0,0.0,0.0,0.0,0.0,0.0,0.0,0.0,0.0,0.0,0.0,0.0,0.0,0.0,0.0,0.0,0.0,0.0,0.0,0.0,-10.7073,-10.8872,-10.99,-11.0707,-11.197,0.0,0.0,0.0,0.0,0.0,0.0,-11.959,-11.9811,-12.0618,-12.2086,-12.2086,-12.2196,-12.2417,-12.3591,-12.4399,-12.4913,-12.6308,-12.7666,-12.8987,-12.9391,-13.0309,-13.141,-13.1006,-13.0602,-12.9721,-12.2417,-11.8783,-11.7608,-11.5185,-11.4084,-11.3901,-11.3717,-11.3791,-11.4138,-11.4884,-11.4729,-11.4004,-11.3952,-11.2278,-11.0081,-10.8504,0.0,0.0,0.0,0.0,-10.4504,-10.5495,-10.6816,-10.8505,-11.1001,-11.2102,-11.291,-11.3497,-11.28,-11.012,-10.3476,-10.0907,-9.9181,-9.7346,-9.6208,0.0,-9.5254,-9.5914,-9.7126,-9.9145,-10.1494,-10.3513,-10.5018,-10.5715,-10.5495,-10.399,-10.2999,-10.12,-9.8374,-9.6502,-9.4593,-9.2574,-9.0519,-8.8692,-8.7253,0.0,0.0,0.0,0.0,0.0,0.0,0.0,0.0,0.0,0.0,0.0,0.0,0.0,0.0,0.0,0.0,0.0,0.0,0.0,0.0,0.0,0.0,0.0,0.0,0.0,0.0,0.0,0.0,0.0,-11.3167,-11.4084,0.0,0.0,0.0,0.0,-12.1568,-12.1828,-12.2196,-12.3004,-12.3812,-12.4582,-12.539,-12.5463,-12.5794,-12.6601,-12.6711,-12.7519,-12.9024,-12.9905,-13.0712,-13.1593,-13.3098,-13.3796,-13.3979,-13.4787,-13.42,-13.2327,-12.7299,-12.4289,-12.271,-12.0178,-11.8783,-11.8012,-11.7204,-11.7425,-11.8198,-11.9168,-11.9103,-11.832,-11.7507,-11.4465,-11.0795,-10.9228,-10.8639,0.0,0.0,-10.8554,-10.8909,-11.0414,-11.1515,-11.2689,-11.5112,-11.6323,-11.6911,-11.6911,-11.5699,-11.3203,-10.8175,-10.5899,-10.399,-10.1604,0.0,-9.8594,-9.7823,-9.8411,-9.9255,-10.0099,-10.2301,-10.421,-10.5018,-10.5128,-10.4798,-10.399,-10.2485,-10.0796,-9.9145,-9.6832,-9.5107,-9.4226,-9.1106,-8.931,-8.9273,-8.7732,0.0,0.0,0.0,0.0,0.0,0.0,0.0,0.0,0.0,0.0,0.0,0.0,0.0,0.0,0.0,0.0,0.0,0.0,0.0,0.0,0.0,0.0,0.0,0.0,0.0,0.0,0.0,0.0,-11.6397,-11.6911,0.0,-12.0961,-12.1418,-12.2132,-12.3579,-12.4141,-12.4803,-12.561,-12.6381,-12.7189,-12.7996,-12.851,-12.8914,-12.9207,-12.9685,-13.0309,-13.0896,-13.2181,-13.3282,-13.4089,-13.5191,-13.5998,-13.6475,-13.6806,-13.6292,-13.5117,-13.2878,-13.0088,-12.6895,-12.4472,-12.3371,-12.3004,-12.2196,-12.2086,-12.25,-12.4083,-12.3326,-12.1366,-11.9598,-11.7997,-11.6515,-11.4795,-11.3585,-11.2687,-11.2687,-11.2663,-11.291,-11.4011,-11.4892,-11.5993,-11.7902,-11.8489,-11.8599,-11.8085,-11.7498,-11.6103,-11.291,-10.9679,-10.689,-10.4981,-10.3293,-10.1898,-10.109,-10.12,-10.1714,-10.2485,-10.3806,-10.5018,-10.5789,-10.5422,-10.4798,-10.399,-10.2375,-10.0576,-9.8447,-9.7016,-9.5217,-9.2794,-9.1069,-8.9711,-8.8647,-8.7582,-8.6306,0.0,0.0,0.0,0.0,0.0,0.0,0.0,0.0,0.0,0.0,0.0,0.0,0.0,0.0,0.0,0.0,0.0,0.0,0.0,0.0,0.0,0.0,0.0,0.0,0.0,0.0,-11.7021,-11.97,-12.0104,-12.0985,-12.3481,-12.4399,-12.528,-12.6087,-12.7244,-12.8176,-12.8988,-12.995,-13.088,-13.1993,-13.2587,-13.2802,-13.2679,-13.3195,-13.3435,-13.3392,-13.4383,-13.5411,-13.6218,-13.6989,-13.7687,-13.8201,-13.8494,-13.798,-13.6989,-13.6402,-13.431,-13.1116,-12.8694,-12.7592,-12.7299,-12.6711,-12.6381,-12.6286,-12.7262,-12.628,-12.4284,-12.2077,-12.0944,-11.9991,-11.8608,-11.7196,-11.6095,-11.6095,-11.5983,-11.6213,-11.6984,-11.7608,-11.8416,-11.97,-11.9994,-11.9811,-11.9003,-11.8599,-11.7792,-11.5589,-11.2616,-10.99,-10.8285,-10.6413,-10.4908,-10.41,-10.3696,-10.3696,-10.421,-10.5018,-10.5789,-10.6302,-10.5385,-10.4394,-10.3586,-10.1494,-9.9365,-9.7199,-9.5804,-9.3932,-9.151,-9.0372,-8.9307,-8.8206,-8.7142,-8.5903,-8.4421,0.0,0.0,0.0,0.0,0.0,0.0,0.0,0.0,0.0,0.0,0.0,0.0,0.0,0.0,0.0,0.0,0.0,0.0,0.0,0.0,0.0,0.0,0.0,-11.7314,-11.8012,-11.9811,-12.3004,-12.3408,-12.4399,-12.6711,-12.7739,-12.8648,-12.9457,-13.1251,-13.2568,-13.35,-13.4593,-13.5874,-13.7498,-13.7611,-13.7535,-13.7079,-13.7116,-13.6927,-13.673,-13.6659,-13.7099,-13.787,-13.8678,-13.9008,-13.9118,-13.9889,-13.9302,-13.7797,-13.7797,-13.6879,-13.5191,-13.2695,-13.13,-13.0602,-13.0566,-13.0118,-12.9402,-12.858,-12.7881,-12.7001,-12.5312,-12.299,-12.0875,-11.9994,-11.9187,-11.8489,-11.8489,-11.8489,-11.8709,-11.9407,-11.959,-11.9811,-12.0691,-12.0875,-12.0581,-11.97,-11.8893,-11.7902,-11.6287,-11.4672,-11.3093,-11.1515,-10.9202,-10.7367,-10.6596,-10.5715,0.0,-10.5128,-10.5899,-10.6376,-10.6376,-10.4908,-10.3586,-10.2705,-9.9695,-9.7163,-9.5547,-9.3088,-9.1363,-9.0519,-8.8977,-8.8133,-8.8133,-8.6554,-8.5151,-8.4051,0.0,0.0,0.0,0.0,0.0,0.0,0.0,0.0,0.0,0.0,0.0,0.0,0.0,0.0,0.0,0.0,0.0,0.0,0.0,0.0,0.0,-11.8599,-12.0288,-11.9113,-12.0691,-12.271,-12.4803,-12.6087,-12.7299,-12.851,-13.0586,-13.2273,-13.3053,-13.4909,-13.6414,-13.7204,-13.8091,-13.8781,-13.9197,-13.9801,-14.009,-13.998,-13.9167,-13.8767,-13.8733,-13.852,-13.8494,-13.8678,-13.9485,-13.9889,-13.9889,-14.0109,-13.9302,-13.7797,-13.7797,-13.6879,-13.5301,-13.3979,-13.3282,-13.3094,-13.3371,-13.3388,-13.2987,-13.0706,-12.9542,-12.8625,-12.6225,-12.4582,-12.3408,-12.249,-12.1683,-12.1095,-12.1095,-12.0691,-12.0288,-12.0508,-12.0508,-12.0398,-12.0104,-11.9994,-11.959,-11.8195,-11.7204,-11.6397,-11.5296,-11.3791,-11.2396,-11.1405,-10.9679,-10.8175,-10.7367,-10.6596,-10.6009,-10.6009,-10.6302,-10.6192,-10.5495,-10.4504,-10.3293,-10.1898,-9.8888,-9.6318,-9.4703,-9.1767,-8.9454,-8.8059,-8.7582,-8.7068,-8.6481,-8.5453,-8.4125,0.0,0.0,0.0,0.0,0.0,0.0,0.0,0.0,0.0,0.0,0.0,0.0,0.0,0.0,0.0,0.0,0.0,0.0,0.0,0.0,0.0,0.0,-12.1499,-12.3481,-12.3188,-12.4399,-12.5904,-12.7482,-12.9271,-13.0808,-13.1917,-13.4171,-13.597,-13.6844,-13.8597,-13.9859,-14.0352,-14.1326,-14.2034,-14.2339,-14.2763,-14.3038,-14.2817,-14.2217,-14.1359,-14.0487,-14.0285,-14.0064,-13.9485,-13.9999,-14.0183,-14.0183,-14.0183,-13.9302,-13.7797,-13.7797,-13.7055,-13.5955,0.0,0.0,0.0,0.0,-13.4981,-13.4396,-13.1929,-13.0376,-12.9167,-12.7342,-12.5904,-12.4876,-12.3995,-12.3004,-12.2086,-12.2086,-12.1499,-12.0912,-12.0912,-12.0912,-12.0691,-11.9774,-11.959,-11.9076,-11.7094,-11.6287,-11.5589,-11.4084,-11.28,0.0,-11.0414,-10.9386,-10.8505,-10.7697,-10.689,-10.6376,-10.6376,-10.6376,-10.6082,-10.5201,-10.4394,-10.3109,-10.12,-9.8043,0.0,0.0,0.0,-8.8353,-8.7068,-8.6995,0.0,0.0,0.0,-8.4556,-8.3482,-8.341,0.0,0.0,-8.2564,-8.2206,0.0,0.0,0.0,0.0,0.0,0.0,0.0,0.0,0.0,0.0,0.0,0.0,0.0,0.0,0.0,0.0,-12.4251,-12.69,-12.8828,-12.9197,-12.9687,-13.0837,-13.283,-13.4689,-13.607,-13.7986,-13.947,-14.0264,-14.2049,-14.3216,-14.3331,0.0,0.0,0.0,0.0,-14.5679,-14.5363,-14.5332,-14.4177,-14.2059,-14.2,-14.1277,-14.0183,-14.0183,-14.0183,-14.0183,-14.0183,-13.9302,-13.787,-13.8014,-13.7702,-13.7282,-13.7227,-13.7264,-13.7207,-13.6184,-13.5364,-13.4544,-13.2366,0.0,0.0,-12.84,-12.7106,-12.5772,-12.4889,-12.3662,-12.2527,-12.2527,-12.1843,-12.1066,-12.1066,-12.0897,-12.0508,-11.97,-11.9297,-11.8599,-11.6287,-11.5699,-11.5002,-11.28,-11.1698,-11.0597,-10.9092,-10.8688,-10.8395,-10.7587,-10.689,-10.6376,-10.6376,-10.6302,-10.5899,-10.5091,-10.421,0.0,-10.0393,-9.7309,-9.4446,-9.195,-8.9344,-8.7619,-8.6885,-8.6885,-8.6885,-8.6885,-8.6151,-8.5747,-8.5637,-8.5637,-8.571,-8.5783,-8.4064,-8.3809,0.0,0.0,0.0,0.0,0.0,0.0,0.0,0.0,0.0,0.0,0.0,0.0,0.0,0.0,0.0,-12.6503,-12.869,-13.1002,-13.4163,-13.575,-13.5895,-13.3968,-13.6682,-13.8756,-13.9057,-14.0883,-14.2306,-14.3106,-14.4411,-14.5375,-14.6067,-14.6318,-14.649,-14.6682,-14.6682,-14.6625,-14.6604,-14.5681,-14.4602,-14.3302,0.0,0.0,-14.0183,-14.0183,-14.0183,-14.0183,-14.0183,-13.9706,-13.8824,-13.8961,-13.9282,-13.9477,-13.855,-13.8827,-13.9327,-13.6706,-13.5794,-13.5487,-13.273,-13.0602,-12.9207,-12.84,-12.7991,-12.7612,-12.6126,-12.5468,0.0,-12.4588,-12.3273,-12.2002,-12.2002,-12.0886,-11.959,-11.8783,-11.7608,-11.6397,-11.5296,-11.4011,-11.2983,-11.2506,-11.1184,-10.99,-10.8982,-10.8285,-10.7587,-10.678,-10.6486,-10.6376,-10.6376,-10.5789,-10.5018,-10.421,-10.3403,-10.2008,-9.9548,-9.6979,-9.4446,-9.195,-8.8316,-8.6187,-8.604,-8.604,-8.604,-8.604,-8.5857,-8.549,-8.4829,-8.4829,-8.5159,-8.5783,-8.5394,-8.539,0.0,0.0,0.0,0.0,0.0,0.0,0.0,0.0,0.0,0.0,0.0,-11.5214,-11.9407,0.0,-12.5793,-13.0475,-13.2951,-13.5119,-13.7682,-14.0313,-14.0992,-13.8192,-14.0302,-14.2286,-14.3197,-14.4209,-14.5164,-14.5968,-14.6182,-14.649,-14.6913,-14.6913,-14.6913,-14.6913,-14.6913,-14.6913,-14.6913,-14.5813,-14.4677,-14.3606,-14.2364,-14.1277,-14.0183,-14.0183,-14.0183,-14.0146,-14.0798,-14.0301,-13.9183,-13.9183,-13.9366,-13.9618,-13.9122,-13.9806,-14.0826,-13.8267,-13.7167,-13.6637,-13.4185,-13.2514,-13.1285,-13.0093,-12.9661,-12.9419,-12.7275,-12.636,-12.5985,-12.523,-12.3681,-12.2306,-12.2306,-12.0992,-11.9407,-11.8599,-11.7204,-11.5699,-11.4488,-11.3277,-11.2286,-11.1919,-11.0487,-10.9276,-10.8909,-10.7807,-10.689,-10.6486,-10.6376,-10.6376,-10.6376,-10.6009,-10.5311,-10.399,-10.3513,-10.2191,-9.9365,-9.6171,-9.3235,-9.0776,-8.872,-8.7435,-8.7031,-8.6995,-8.6811,-8.6407,-8.6407,-8.6187,-8.582,-8.582,-8.6004,-8.6407,-8.6407,-8.6407,0.0,0.0,0.0,0.0,0.0,0.0,0.0,-10.8079,-11.1211,-11.3905,-11.6599,-11.9786,-12.3922,-12.7054,-13.0467,-13.4701,-13.7017,-13.9024,-14.1034,-14.3596,-14.4721,-14.2969,-14.4091,-14.5643,-14.7019,-14.729,-14.7605,-14.8182,-14.749,-14.7105,-14.6913,-14.6913,-14.6913,-14.6913,-14.6913,-14.6818,-14.6604,-14.5917,-14.4899,-14.3606,-14.2678,-14.1606,-14.0512,-14.0512,-14.0512,-14.062,-14.1594,-14.1074,-13.9793,-13.9439,-13.9265,-13.9297,-13.9307,-14.0219,-14.1186,-13.9221,-13.8092,-13.7271,-13.5276,-13.4135,-13.3192,-13.172,-13.1118,-13.0624,-12.8169,-12.6989,-12.6403,-12.5645,-12.3992,-12.2601,-12.2601,-12.0985,-11.9187,-11.8599,-11.6911,-11.5185,-11.3864,-11.28,-11.1992,-11.1295,-10.99,-10.8799,-10.8799,-10.7477,-10.6376,-10.6376,-10.6376,-10.6376,-10.6376,-10.6302,-10.5605,-10.41,-10.3806,-10.2412,-9.9145,-9.5621,-9.2537,-9.0041,-8.9748,-8.9271,-8.8463,-8.828,-8.7912,-8.7252,-8.7105,-8.6995,-8.6995,-8.6995,-8.6995,-8.6995,-8.6995,-8.6995,-10.4403,-10.2188,-10.1014,-10.1705,-10.3933,-10.6698,0.0,-11.3305,-11.6608,-11.9911,-12.3291,-12.6786,-13.1088,-13.3203,-13.5781,-14.0306,-14.1082,-14.23,-14.5602,-14.5895,-14.6394,-14.8294,-14.8815,-14.9028,-14.922,-14.9202,-14.8913,-14.8298,-14.8106,-14.7682,-14.6913,-14.6913,-14.6913,-14.6913,-14.6913,-14.6369,-14.5363,-14.6308,-14.5681,-14.3606,-14.3474,-14.2823,-14.1706,-14.1706,-14.1706,-14.173,-14.2124,-14.178,-14.1098,-14.0396,-14.0227,-14.0302,-13.9588,-13.9412,-13.938,-13.75,-13.6681,-13.6395,-13.4519,-13.3305,-13.2437,-13.1494,-13.08,-13.0006,-12.8178,-12.7696,-12.7464,-12.6709,-12.5094,-12.3613,-12.3613,-12.1105,-11.8489,-11.8416,-11.6103,-11.3791,-11.357,-11.2396,-11.1295,-11.1221,-10.99,-10.8799,-10.8799,-10.7477,-10.6376,-10.6376,-10.6376,-10.6376,-10.6376,-10.5715,-10.4908,-10.399,-10.3293,-10.1494,-9.83,-9.6318,-9.4189,-9.1693,-9.0849,-9.0115,-8.9307,-8.8573,-8.8169,-8.8059,-8.7362,-8.6995,-8.6995,-8.6995,-8.6995,-8.6995,-8.6995,-8.6995,-10.3613,-10.2627,-10.2981,-10.3789,-10.7482,-11.1714,-11.5099,-11.9292,-12.3293,-12.6178,-12.9487,-13.2679,-13.5488,-13.7732,-14.0229,0.0,-14.4415,-14.541,-14.7394,-14.7413,-14.7182,-14.7298,-14.7298,-14.7913,-14.9413,-14.899,-14.8606,-14.8182,-14.7682,-14.7298,-14.6913,-14.6913,-14.6913,-14.6913,-14.6913,-14.6663,-14.6208,-14.5981,-14.5431,-14.445,-14.3936,-14.3388,-14.2912,-14.2912,-14.3001,-14.3061,-14.221,-14.1723,-14.1585,-14.0167,-13.9519,-13.9104,-13.8181,-13.7796,-13.7781,-13.7504,-13.7427,-13.7216,-13.5398,-13.447,-13.3898,-13.2103,-13.1312,-13.0661,-12.8477,-12.7886,-12.7717,-12.6909,-12.53,-12.3797,-12.3797,-12.1077,-11.8416,-11.8416,-11.5883,-11.357,-11.357,-11.2286,-11.1221,-11.1221,-11.0304,-10.9312,-10.8909,-10.7881,-10.689,-10.6486,-10.6376,-10.6376,-10.6376,-10.6082,-10.5385,-10.399,-10.2301,-10.0613,-9.8741,-9.7126,-9.5364,-9.3382,-9.2501,-9.1473,-9.0152,-8.9344,-8.8683,-8.8206,-8.7435,-8.6995,-8.6995,-8.6995,-8.6995,-8.6995,-8.6995,-8.6995,-10.3212,-10.3405,-10.5097,-10.7098,-11.1483,-11.6484,-12.06,-12.5101,-12.9179,-13.1679,-13.4718,-13.7411,-13.8911,-14.0989,-14.3297,-14.5413,-14.6413,-14.7182,-14.8106,-14.7605,-14.6682,-14.549,-14.472,-14.4933,-14.6506,-14.7414,-14.7741,-14.739,-14.7298,-14.7182,-14.6913,-14.6913,-14.6913,-14.6913,-14.6913,-14.6683,-14.6369,-14.5878,-14.5537,-14.5224,-14.4373,-14.3979,-14.3979,-14.3752,-14.3727,-14.3693,-14.2393,-14.17,-14.1412,-13.9912,-13.8796,-13.7988,-13.7103,-13.6796,-13.6911,-13.7488,-13.7603,-13.718,-13.5911,-13.4988,-13.4103,-13.2295,-13.1179,-13.0294,-12.8486,-12.7717,-12.7409,-12.6909,-12.5457,-12.422,-12.422,-12.165,-11.9194,-11.9194,-11.6491,-11.4028,-11.4028,-11.2514,-11.1221,-11.1221,-11.0597,-10.9679,-10.8909,-10.8101,-10.7294,-10.6486,-10.6376,-10.6376,-10.6376,-10.6192,-10.5495,-10.41,-10.2118,-10.0503,-9.9512,-9.8154,-9.6685,-9.507,-9.4006,-9.2794,-9.1363,-9.0298,-8.9381,-8.8536,-8.7766,-8.7215,-8.6995,-8.6995,-8.6995,-8.6995,-8.6995,-8.6995,-10.4597,-10.5597,-10.7521,-11.2483,-11.6407,-12.0485,-12.6294,-13.0294,-13.3487,-13.6103,-13.8681,-14.0681,-14.1604,-14.322,-14.4605,-14.5605,-14.6413,-14.7182,-14.8106,-14.6105,-14.4489,-14.4412,-14.2297,-14.0402,0.0,-14.3892,-14.6506,-14.5477,-14.7114,-14.7798,-14.6913,-14.6913,-14.6913,-14.6913,-14.6913,-14.6408,-14.5332,-14.6308,-14.6308,-14.5186,-14.5224,-14.5153,-14.5077,-14.4276,-14.3747,-14.3088,-14.3088,-14.2104,-14.0604,-13.9719,-13.8796,-13.7988,-13.7103,-13.6796,-13.6796,-13.6796,-13.6296,-13.5603,-13.5488,-13.391,-13.1795,-13.1679,-12.9987,-12.8025,-12.7909,-12.7409,-12.6678,-12.6678,-12.5969,-12.524,-12.524,-12.3173,-12.1198,-12.1198,-11.7981,-11.5042,-11.5042,-11.2956,-11.1221,-11.1221,-11.0597,-10.9679,-10.8909,-10.8101,-10.7294,-10.6486,-10.6376,-10.6376,-10.6376,-10.5715,-10.4798,-10.399,-10.3109,-10.2008,-10.0393,-9.9512,-9.8337,-9.6722,-9.5144,-9.3896,-9.3051,-9.1436,-9.0188,-8.9381,-8.8573,-8.7766,-8.6995,-8.6995,-8.6995,-8.6995,-8.6995,-8.6995,-10.5482,-10.8598,-11.2483,-11.71,-12.1985,-12.7101,-13.191,-13.5103,-13.7603,-13.8988,-13.9989,-14.0296,-13.9488,-14.0296,-14.1296,-14.222,-14.3989,-14.5297,-14.5605,-14.4913,-14.3605,-14.1296,-13.9296,0.0,0.0,0.0,0.0,-14.292,-14.5119,-14.6413,-14.6105,-14.6605,-14.6913,-14.6913,-14.6913,-14.6722,-14.627,-14.6722,-14.6722,-14.627,-14.627,-14.6002,-14.5503,-14.4697,-14.3839,-14.3105,-14.2489,-14.1296,-13.9719,-13.9412,-13.8488,-13.718,-13.6911,-13.6796,-13.668,-13.618,-13.5411,-13.4603,-13.3987,-13.291,-13.141,-12.9717,-12.8602,-12.7794,-12.7294,-12.6909,-12.6678,-12.6678,-12.6024,-12.5202,-12.5202,-12.3656,-12.1986,-12.1382,-11.8468,-11.5717,-11.5079,-11.304,-11.1221,-11.1221,-11.1001,-11.0414,-10.9019,-10.8578,-10.7881,-10.6596,-10.6376,-10.6376,-10.6376,-10.5605,-10.5018,-10.4724,-10.3513,-10.2522,-10.1898,-10.0209,-9.8631,-9.7566,-9.5474,-9.3932,-9.3125,-9.151,-9.0225,-8.9454,-8.861,-8.7802,-8.6995,-8.6995,-8.6995,-8.6995,-8.6995,-8.6995,-10.8213,-11.2599,-11.7407,-12.2293,-12.7294,-13.1987,-13.5988,-13.8104,-13.9296,-13.9296,-13.8488,-13.7296,-13.5295,-13.5603,-13.6488,-13.768,-14.0489,-14.2797,-14.3412,-14.3489,-14.2489,-13.9604,-13.7796,-13.6025,0.0,0.0,0.0,-14.0562,-14.3508,-14.5413,-14.572,-14.649,-14.6913,-14.6913,-14.6913,-14.6913,-14.6913,-14.6913,-14.6913,-14.6913,-14.6913,-14.6297,-14.522,-14.472,-14.3797,-14.2604,-14.2104,-14.0912,-13.9296,-13.9296,-13.8296,-13.6796,-13.6796,-13.6603,-13.6296,-13.5719,-13.4795,-13.368,-13.2795,-13.1795,-13.0487,-12.8525,-12.7717,-12.7409,-12.6909,-12.6678,-12.6678,-12.6678,-12.6222,-12.5688,-12.5688,-12.4614,-12.3332,-12.2471,-12.0027,-11.7371,-11.6242,-11.4196,-11.2399,-11.18,-11.1679,-11.1151,-10.9509,-10.8799,-10.7881,-10.6596,-10.6376,-10.6376,-10.6376,-10.5899,-10.5422,-10.5128,-10.421,-10.3293,-10.2705,-10.0796,-9.9181,-9.8374,-9.5768,-9.4079,-9.3565,-9.1913,-9.0665,-8.9858,-8.9344,-8.8683,-8.7876,-8.7876,-8.7729,-8.7435,-8.7435,-8.7288,-11.2791,-11.7484,-12.2216,-12.8102,-13.2102,-13.5411,-13.8719,-13.9296,-13.8719,-13.6988,-13.4411,-13.1795,-12.9217,-12.941,-13.0487,-13.2295,-13.6219,-13.9719,-14.1412,-14.1797,-14.1296,0.0,0.0,0.0,0.0,0.0,0.0,-13.9026,0.0,-14.472,-14.5605,-14.6413,-14.6913,-14.6913,-14.6913,-14.6913,-14.6913,-14.6913,-14.6913,-14.6913,-14.6913,-14.599,-14.4412,-14.4412,-14.3412,-14.1912,-14.1912,-14.0912,-13.9296,-13.9296,-13.8296,-13.6796,-13.6796,-13.618,-13.5488,-13.5411,-13.4295,-13.2795,-13.191,-13.0487,-12.8986,-12.8102,-12.7294,-12.6678,-12.6678,-12.6678,-12.6678,-12.6678,-12.6678,-12.6678,-12.6678,-12.6101,-12.5216,-12.4409,-12.2176,-11.9921,-11.8071,-11.6409,-11.4613,-11.2926,-11.2471,-11.1935,-11.0257,-10.8688,-10.7294,-10.6596,-10.6413,-10.6376,-10.6376,-10.6376,-10.6082,-10.5311,-10.5128,-10.4504,-10.2889,-10.12,-9.9952,-9.9145,-9.6135,-9.4336,-9.4299,-9.2721,-9.1473,-9.0629,-9.0592,-9.0225,-8.9417,-8.9417,-8.9014,-8.8243,-8.8243,-8.7839,-11.8215,-12.3216,-12.8217,-13.3487,-13.6488,-13.8604,-14.0719,-13.9296,-13.6796,-13.4411,-12.991,-12.5601,-12.2985,-12.2793,-12.3716,-12.5986,-13.1487,0.0,-13.7911,-14.0296,0.0,-13.9488,0.0,-13.7319,-13.6179,-13.7073,0.0,0.0,-14.2186,-14.3797,-14.472,-14.6105,-14.6913,-14.6913,-14.6913,-14.6913,-14.6913,-14.6913,-14.6913,-14.6913,-14.6297,-14.5413,-14.4412,-14.3682,-14.2912,-14.1912,-14.1181,-14.0296,-13.9296,-13.8681,-13.7796,-13.668,-13.6103,-13.5719,-13.5295,-13.4103,-13.2987,-13.1795,-13.0294,-12.9602,-12.8986,-12.7486,-12.6909,-12.6678,-12.6678,-12.6678,-12.6678,-12.6678,-12.6678,-12.6678,-12.6678,-12.6486,-12.6101,-12.5293,-12.3058,-12.0684,-11.9005,-11.6788,-11.4787,-11.3716,-11.2513,-11.1303,-11.0147,-10.8688,-10.7477,-10.7294,-10.678,-10.6376,-10.6376,-10.6376,-10.6302,-10.6082,-10.5495,-10.4724,-10.3696,-10.1604,-9.9952,-9.9145,-9.6649,-9.4923,-9.4299,-9.3308,-9.2097,-9.0629,-9.0592,-9.0225,-8.9417,-8.9417,-8.9271,-8.9121,-8.9121,-8.8643,-12.4601,-12.9179,-13.3487,-13.7488,-13.9219,-13.9989,-14.0604,-13.7488,-13.3603,-13.0294,-12.4601,-11.9485,-11.6907,-11.6715,-11.7984,0.0,0.0,0.0,-13.5795,-13.9488,-14.1489,0.0,-14.0412,0.0,-13.9104,-13.9488,-14.0296,0.0,-14.2604,-14.3605,-14.4913,-14.6221,-14.6913,-14.6913,-14.6913,-14.6913,-14.6913,-14.6913,-14.6913,-14.6913,-14.6105,-14.522,-14.4412,-14.3489,-14.2681,-14.1912,-14.1412,-14.0489,-13.9296,-13.8796,-13.7911,-13.668,-13.5795,-13.5295,-13.4795,-13.3487,-13.2179,-13.0987,-12.9717,-12.8909,-12.8409,-12.7101,-12.6678,-12.6678,-12.6678,-12.6678,-12.6678,-12.6678,-12.6678,-12.6678,-12.6678,-12.6678,-12.6486,-12.5601,-12.4008,-12.2161,-12.0476,-11.8392,-11.6332,-11.427,-11.2771,-11.1415,-11.0147,-10.9276,-10.8395,-10.7697,-10.7183,-10.678,-10.6413,-10.6376,-10.6376,-10.6376,-10.6009,-10.5201,-10.399,-10.2301,-10.0723,-9.9218,-9.7163,-9.5658,-9.485,-9.3712,-9.2684,-9.173,-9.1326,-9.0922,-9.0445,-9.0445,-9.0262,-8.9929,-8.9931,-8.9525,-13.091,-13.4795,-13.7911,-14.0489,-14.0912,-14.0296,-13.9412,-13.4988,-12.9987,-12.5794,-11.9485,-11.3984,-11.1598,-11.1714,-11.3599,-11.7907,0.0,-12.9987,-13.4411,-13.8681,-14.1489,-14.1912,-14.2604,-14.2912,-14.2297,-14.2181,-14.2604,-14.3412,-14.3412,-14.4105,-14.5605,-14.649,-14.6913,-14.6913,-14.6913,-14.6913,-14.6913,-14.6913,-14.6913,-14.6913,-14.599,-14.5105,-14.4412,-14.3412,-14.2604,-14.1912,-14.1681,-14.0681,-13.9296,-13.9104,-13.8104,-13.668,-13.5719,-13.4911,-13.4218,-13.318,-13.1795,-13.0217,-12.9487,-12.8602,-12.7602,-12.6909,-12.6678,-12.6678,-12.6678,-12.6678,-12.6678,-12.6678,-12.6678,-12.6678,-12.6678,-12.6678,-12.6486,-12.5794,-12.4793,-12.3716,-12.21,-12.0292,-11.7872,-11.4578,-11.3215,-11.2129,-11.0527,-11.0083,-10.9496,-10.7991,-10.7661,-10.7257,-10.6486,-10.6376,-10.6376,-10.6376,-10.6376,-10.5678,-10.399,-10.3182,-10.1714,-9.9255,-9.7676,-9.6465,-9.5547,-9.4153,-9.3308,-9.3125,-9.2354,-9.1913,-9.1803,-9.1803,-9.1436,-9.0774,-9.074,-9.0335,-13.4911,-13.7911,-14.0604,-14.3105,-14.222,-14.0181,-13.8681,-13.3295,-12.7409,-12.3101,-11.6907,-11.1598,-10.9713,-10.9483,-11.0983,-11.5291,0.0,0.0,0.0,-13.6103,-13.9488,0.0,-14.2604,-14.3297,-14.3912,-14.3989,0.0,0.0,0.0,-14.5413,-14.572,-14.649,-14.6913,-14.6913,-14.6913,-14.6913,-14.6913,-14.6913,-14.6913,-14.6913,-14.5413,-14.4489,-14.4297,-14.2797,-14.1989,-14.1797,-14.0412,-13.9604,-13.9219,-13.7796,-13.7103,-13.6603,-13.5103,-13.4411,-13.4103,-13.2487,-13.091,-12.941,-12.9294,-12.8217,-12.6909,-12.6678,-12.6678,-12.6678,-12.6678,-12.6678,-12.6678,-12.6678,-12.6678,-12.6678,-12.6678,-12.6678,-12.6678,-12.6486,-12.5293,-12.3793,-12.2908,-12.0216,-11.7181,-11.4389,-11.3777,-11.3108,-11.1276,-11.0377,-10.9679,-10.8675,-10.7954,-10.7305,-10.6486,-10.6376,-10.6376,-10.6376,-10.6376,-10.5678,-10.399,-10.3182,-10.1714,-9.9255,-9.819,-9.7016,-9.5586,-9.5256,-9.4484,-9.3161,-9.2978,-9.2501,-9.1803,-9.1803,-9.173,-9.1583,-9.1583,-9.1179,-13.7796,-14.0296,-14.2104,-14.2912,-14.1181,-13.8604,-13.5988,-13.0487,-12.4716,-12.0485,-11.4907,-11.0291,-10.8598,-10.829,-10.9483,-11.3291,-11.8215,0.0,0.0,-13.3795,0.0,-14.1489,-14.3412,-14.4797,0.0,-14.572,0.0,0.0,0.0,-14.6297,-14.6297,-14.6682,-14.6913,-14.6913,-14.6913,-14.6913,-14.6913,-14.6913,-14.6913,-14.6913,-14.522,-14.4412,-14.4297,-14.2681,-14.1912,-14.1797,-14.0489,-13.9719,-13.9219,-13.7988,-13.718,-13.6603,-13.4988,-13.4295,-13.4103,-13.2295,-13.091,-12.9794,-12.941,-12.8409,-12.7294,-12.6794,-12.6678,-12.6678,-12.6678,-12.6678,-12.6678,-12.6678,-12.6678,-12.6678,-12.6678,-12.6678,-12.6678,-12.6678,-12.5409,-12.3601,-12.1908,-11.9908,-11.7768,-11.5735,-11.4515,-11.3521,-11.211,-11.1148,-11.0414,-10.9519,-10.8725,-10.793,-10.7121,-10.6754,-10.6376,-10.6376,-10.6376,-10.5715,-10.3981,-10.3476,-10.2265,-9.9879,-9.8998,-9.8043,-9.6795,-9.5988,-9.518,-9.4373,-9.3492,-9.2904,-9.2464,-9.1987,-9.1803,-9.1803,-9.1803,-9.162,-13.8719,-14.0681,-14.1797,-14.0989,-13.8911,-13.6103,-13.2679,-12.7409,-12.2216,-11.8292,-11.3599,-10.9713,-10.8213,-10.7713,-10.8482,-11.1598,-11.5291,-11.9792,-12.5717,0.0,-13.5603,0.0,-14.3181,0.0,-14.649,0.0,0.0,0.0,0.0,0.0,-14.6913,-14.6913,-14.6913,-14.6913,-14.6913,-14.6913,-14.6913,-14.6913,-14.6913,-14.6913,-14.522,-14.4412,-14.4297,-14.2681,-14.1912,-14.1797,-14.0796,-13.9912,-13.9219,-13.8181,-13.7411,-13.6603,-13.4988,-13.4295,-13.4103,-13.2295,-13.1179,-13.041,-12.9487,-12.8602,-12.7794,-12.6986,-12.6678,-12.6678,-12.6678,-12.6678,-12.6678,-12.6678,-12.6678,-12.6678,-12.6678,-12.6678,-12.6678,-12.6486,-12.5216,-12.3485,-12.11,-11.9908,-11.8797,-11.6886,-11.5421,-11.3998,-11.2686,-11.1897,-11.1111,-11.0054,-10.9482,-10.8688,-10.772,-10.7011,-10.6559,-10.6376,-10.6376,-10.5825,-10.4311,-10.399,-10.2933,-10.0686,-9.9799,-9.8919,-9.797,-9.6682,-9.5875,-9.5505,-9.4263,-9.3566,-9.3381,-9.2501,-9.2133,-9.2024,-9.1877,-9.1803,-13.5488,-13.718,-13.8373,-13.7488,-13.5411,-13.2603,-12.9102,-12.4409,-11.9908,-11.7176,-11.3176,-10.9906,-10.8983,-10.7521,-10.7405,-10.9983,-11.1983,-11.5407,-12.1293,0.0,0.0,-13.6603,0.0,0.0,0.0,0.0,0.0,0.0,0.0,0.0,-14.6913,-14.6913,-14.6913,-14.6913,-14.6913,-14.6913,-14.6913,-14.6913,-14.6913,-14.6913,-14.522,-14.4412,-14.4297,-14.2681,-14.1912,-14.1797,-14.0104,-13.9412,-13.9219,-13.7603,-13.6911,-13.6603,-13.4988,-13.4295,-13.4103,-13.2295,-13.1179,-13.041,-12.9487,-12.8602,-12.7794,-12.6986,-12.6678,-12.6678,-12.6678,-12.6678,-12.6678,-12.6678,-12.6678,-12.6678,-12.6678,-12.6678,-12.6486,-12.5717,-12.4832,-12.3601,-12.1908,-12.0793,-11.9515,-11.7008,-11.6432,-11.5495,-11.2892,-11.2375,-11.1824,-11.0252,-10.9871,-10.9299,-10.7746,-10.7536,-10.7195,-10.6486,-10.6376,-10.6046,-10.507,-10.4274,-10.3182,-10.1494,-10.0606,-9.9469,-9.7937,-9.7717,-9.6942,-9.5505,-9.5321,-9.4887,-9.419,-9.3418,-9.2978,-9.2978,-9.2207,-9.1803,-13.1987,-13.341,-13.3987,-13.318,-13.1102,-12.8409,-12.5601,-12.1716,-11.7907,-11.4791,-11.2099,-10.9598,-10.7713,-10.6405,-10.5905,-10.6982,-10.8598,-11.1406,-11.6292,-12.11,0.0,0.0,0.0,0.0,0.0,0.0,0.0,0.0,0.0,0.0,-14.6913,-14.6913,-14.6913,-14.6913,-14.6913,-14.6913,-14.6913,-14.6913,-14.6913,-14.6913,-14.522,-14.4412,-14.4297,-14.2681,-14.1912,-14.1797,-14.0104,-13.9296,-13.9219,-13.7488,-13.6796,-13.6603,-13.4988,-13.4295,-13.4103,-13.2295,-13.1487,-13.0987,-12.9717,-12.8986,-12.8486,-12.7101,-12.6678,-12.6678,-12.6678,-12.6678,-12.6678,-12.6678,-12.6678,-12.6678,-12.6678,-12.6678,-12.6486,-12.5591,-12.4707,-12.3784,-12.2562,-12.1293,-11.9977,-11.9023,-11.7523,-11.5965,-11.4329,-11.3185,-11.2081,-11.0928,-11.0326,-10.9578,-10.8528,-10.7844,-10.7268,-10.6486,-10.6376,-10.6046,-10.518,-10.4824,-10.3953,-10.2309,-10.1494,-10.054,-9.9402,-9.8415,-9.757,-9.6942,-9.5985,-9.5361,-9.4997,-9.4188,-9.3602,-9.3088,-9.2757,-9.2317,-12.7486,-12.8602,-12.9179,-12.8102,-12.6294,-12.4101,-12.16,-11.86,-11.5522,-11.2906,-11.0598,-10.8482,-10.6713,-10.529,-10.4405,-10.4713,-10.5982,-10.829,-11.2291,-11.6984,0.0,0.0,0.0,0.0,0.0,0.0,0.0,0.0,0.0,0.0,0.0,-14.6913,-14.6913,-14.6913,-14.6913,-14.6913,-14.6913,-14.6913,-14.6798,-14.649,-14.5105,-14.4297,-14.3989,-14.2489,-14.1912,-14.1797,-14.0104,-13.9296,-13.9219,-13.7488,-13.6603,-13.6296,-13.4911,-13.4103,-13.3718,-13.2179,-13.1679,-13.1487,-12.9794,-12.9217,-12.8909,-12.7217,-12.6678,-12.6678,-12.6678,-12.6678,-12.6678,-12.6678,-12.6678,-12.6678,-12.6678,-12.6678,-12.6486,-12.5909,-12.4899,-12.3899,-12.3417,-12.187,-12.0639,-12.04,-11.8715,-11.6907,-11.5715,-11.4092,-11.261,-11.175,-11.0928,-11.0054,-10.9269,-10.8505,-10.761,-10.6827,-10.6486,-10.6229,-10.5521,-10.518,-10.4604,-10.3521,-10.2419,-10.1494,-10.0716,-9.9328,-9.8488,-9.8235,-9.6869,-9.6205,-9.6205,-9.5175,-9.4332,-9.3786,-9.3345,-9.2611,-12.1485,-12.2908,-12.3793,-12.21,-12.0985,-11.9715,-11.71,-11.4599,-11.2522,-11.1714,-10.879,-10.6405,-10.6405,-10.4289,-10.2904,-10.3789,-10.4597,-10.629,-10.979,-11.3907,0.0,0.0,0.0,0.0,0.0,0.0,0.0,0.0,0.0,0.0,0.0,-14.6913,-14.6913,-14.6913,-14.6913,-14.6913,-14.6913,-14.6913,-14.649,-14.572,-14.4797,-14.3912,-14.3105,-14.2297,-14.1912,-14.1797,-14.0104,-13.9296,-13.9219,-13.7488,-13.6296,-13.5411,-13.4603,-13.3795,-13.291,-13.1987,-13.1679,-13.1487,-12.9794,-12.9217,-12.8909,-12.7217,-12.6678,-12.6678,-12.6678,-12.6678,-12.6678,-12.6678,-12.6678,-12.6678,-12.6678,-12.6678,-12.6678,-12.6678,-12.5399,-12.4091,-12.4071,-12.2801,-12.1293,-12.0477,-11.9592,-11.8515,-11.6792,-11.4989,-11.3581,-11.261,-11.175,-11.0928,-11.0054,-10.9289,-10.8503,-10.772,-10.6901,-10.6376,-10.6376,-10.5594,-10.507,-10.507,-10.3631,-10.2272,-10.1494,-10.068,-9.9879,-9.9048,-9.8272,-9.7904,-9.7904,-9.6242,-9.5468,-9.5431,-9.386,-9.2611,-11.6907,-11.7677,-11.81,-11.81,-11.6984,-11.5599,-11.4214,-11.2406,-11.0406,-10.8406,-10.7213,-10.5905,-10.4097,-10.3097,-10.2712,-10.2981,-10.4212,-10.6097,-10.8906,0.0,0.0,0.0,0.0,0.0,0.0,0.0,0.0,0.0,0.0,0.0,0.0,-14.6913,-14.6913,-14.6913,-14.6913,-14.6605,-14.6105,-14.6105,-14.572,-14.4797,-14.3912,-14.3412,-14.3105,-14.2297,-14.1604,-14.0912,-13.9796,-13.8988,-13.8296,-13.6603,-13.5719,-13.5411,-13.3987,-13.318,-13.2872,-13.1987,-13.1679,-13.1487,-12.9782,-12.9167,-12.8909,-12.7217,-12.6678,-12.6678,-12.6678,-12.6678,-12.6678,-12.6678,-12.6678,-12.6678,-12.6678,-12.6678,-12.6678,-12.6678,-12.5399,-12.4091,-12.4071,-12.2801,-12.1485,-12.1216,-12.0477,-11.9638,-11.8414,-11.6314,-11.4411,-11.3499,-11.2081,-11.0928,-11.0054,-10.9776,-10.9055,-10.772,-10.7342,-10.7011,-10.6376,-10.6119,-10.5704,-10.507,-10.4604,-10.3696,-10.2382,-10.1494,-10.0723,-9.9952,-9.9139,-9.8406,-9.7904,-9.7386,-9.6612,-9.5468,-9.4448,-9.3492,-11.2214,-11.3099,-11.3483,-11.3984,-11.3291,-11.2291,-11.1483,-11.0214,-10.8713,-10.679,-10.5905,-10.4905,-10.2981,-10.2597,-10.2712,-10.302,-10.4789,-10.7098,-10.9906,0.0,0.0,0.0,0.0,0.0,0.0,0.0,0.0,0.0,0.0,0.0,0.0,-14.6913,-14.6913,-14.6913,-14.6913,-14.649,-14.572,-14.572,-14.5105,-14.3912,-14.3412,-14.2912,-14.2604,-14.1797,-14.1104,-14.0527,-13.9412,-13.8604,0.0,-13.6219,-13.5295,-13.4911,-13.3487,-13.2795,-13.241,-13.191,-13.1487,-13.1102,-12.9706,-12.9013,-12.8475,-12.7101,-12.6678,-12.6678,-12.6678,-12.6678,-12.6678,-12.6678,-12.6678,-12.6678,-12.6678,-12.6678,-12.6601,-12.6294,-12.5091,-12.4014,-12.3687,-12.2609,-12.16,-12.16,-12.0908,-12.0023,-11.91,-11.6785,-11.4808,-11.3937,-11.2264,-11.1038,-11.0509,-11.0252,-10.9629,-10.8578,-10.7966,-10.7342,-10.6901,-10.6559,-10.6229,-10.5594,-10.5338,-10.4714,-10.3586,-10.2529,-10.1677,-10.1237,-10.0086,-9.9279,-9.8778,-9.8158,-9.7093,-9.5468,-9.5035,-9.4301,0.0,-10.9098,-10.9906,-10.9906,-10.9906,-10.9598,-10.879,-10.7982,0.0,-10.6405,-10.4982,-10.3712,-10.2789,-10.2712,-10.3097,-10.3982,-10.629,-10.9098,-11.2522,-11.6792,0.0,0.0,0.0,0.0,0.0,0.0,0.0,0.0,0.0,0.0,0.0,-14.6913,-14.6913,-14.6798,-14.6798,-14.6413,-14.5605,-14.549,-14.4682,-14.2989,-14.2989,-14.2489,-14.1797,-14.0912,-14.0473,0.0,-13.8834,-13.8027,-13.7796,-13.6103,-13.4911,-13.4103,-13.3218,-13.241,-13.1679,-13.1679,-13.1218,-13.0398,-12.9513,-12.8578,-12.7771,-12.7025,-12.6678,-12.6678,-12.6678,-12.6678,-12.6678,-12.6678,-12.6678,-12.6678,-12.6678,-12.6678,-12.6486,-12.5591,-12.4707,-12.3899,-12.3109,-12.2224,-12.16,-12.16,-12.0908,-12.0092,-11.9208,-11.6896,-11.5001,-11.4001,-11.2375,-11.1295,-11.1295,-11.0582,-11.0054,-10.9981,-10.8578,-10.772,-10.761,-10.6901,-10.6376,-10.6376,-10.5594,-10.518,-10.507,-10.3631,-10.2794,-10.272,-10.1127,-10.0269,-10.0269,-9.8782,-9.7239,-9.5725,-9.5688,-9.5248,-10.3482,0.0,-10.6482,-10.7098,-10.679,-10.6213,0.0,-10.5405,-10.4713,-10.4482,-10.4212,-10.3789,-10.3597,-10.4097,-10.4982,-10.6597,-10.8906,-11.1791,-11.5099,0.0,0.0,0.0,0.0,0.0,0.0,0.0,0.0,0.0,0.0,0.0,-14.6913,-14.6913,-14.6605,-14.6028,-14.6028,-14.5605,-14.472,-14.3989,-14.3181,-14.2181,-14.1527,-14.1143,-14.0912,-14.0011,-13.9319,-13.8704,-13.8281,-13.7281,-13.5974,-13.5012,-13.4089,-13.3166,-13.2295,-13.191,-13.1679,-13.1679,-13.1218,-13.041,-12.9536,-12.8612,-12.7794,-12.6986,-12.6678,-12.6678,-12.6678,-12.6678,-12.6678,-12.6678,-12.6678,-12.6678,-12.6678,-12.6678,-12.6486,-12.5591,-12.4678,-12.3917,-12.3109,-12.2224,-12.16,-12.16,-12.1408,-12.1023,-12.0092,-11.8286,-11.6727,-11.5812,-11.3581,-11.2081,-11.2081,-11.1368,-11.0692,-11.0054,-10.9101,-10.8308,-10.772,-10.6901,-10.6376,-10.6376,-10.6229,-10.5778,-10.507,-10.4072,-10.3316,-10.272,-10.1127,-10.0269,-10.0269,-9.9328,-9.8631,-9.8185,-9.7566,-9.6869,-10.1212,-10.2712,-10.4212,-10.502,-10.4905,-10.4482,-10.4482,-10.4212,-10.3905,-10.3905,-10.3905,-10.3905,-10.3905,-10.4905,-10.629,-10.7982,-11.0714,-11.4791,0.0,0.0,0.0,0.0,0.0,0.0,0.0,0.0,0.0,0.0,0.0,0.0,-14.6913,-14.6528,-14.6105,-14.5664,-14.4895,-14.428,-14.3835,-14.3335,-14.2528,-14.1296,-14.078,-14.0396,-14.0011,-13.8688,-13.7935,-13.7527,-13.6704,-13.582,-13.4897,-13.4012,-13.3397,-13.2936,-13.2025,-13.1679,-13.1679,-13.1295,-13.059,-12.9782,-12.892,-12.8112,-12.7342,-12.6794,-12.6678,-12.6678,-12.6678,-12.6678,-12.6678,-12.6678,-12.6678,-12.6678,-12.6678,-12.6678,-12.6486,-12.5591,-12.4726,-12.3926,-12.3109,-12.2224,-12.16,-12.16,-12.16,-12.1293,-12.04,-11.8797,-11.7242,-11.6267,-11.4285,-11.28,-11.2375,-11.2007,-11.1368,-11.0582,-10.9797,-10.9005,-10.8198,-10.7342,-10.6827,-10.6376,-10.6376,-10.6229,-10.5704,-10.4871,-10.3889,-10.2713,-10.1531,-10.068,-10.0276,-9.9879,-9.9475,-9.9108,-9.8672,-9.8268,-9.9981,-10.1096,-10.2404,-10.3289,-10.3482,-10.3482,-10.3482,-10.3597,-10.3712,-10.3905,-10.3982,-10.4212,-10.4405,-10.579,-10.7598,-10.9406,-11.3099,0.0,0.0,0.0,0.0,0.0,0.0,0.0,0.0,0.0,0.0,0.0,0.0,0.0,-14.6721,-14.5856,-14.5395,-14.5336,-14.378,-14.2895,-14.2703,-14.2703,-14.1972,-14.0588,-14.028,-13.9781,-13.9088,-13.7419,-13.6627,-13.6488,-13.4974,-13.4205,-13.4012,-13.3282,-13.2897,-13.2691,-13.2025,-13.1602,-13.141,-13.0833,-12.9898,-12.8898,-12.7986,-12.7342,-12.6678,-12.6678,-12.6678,-12.6678,-12.6678,-12.6678,-12.6678,-12.6678,-12.6678,-12.6678,-12.6678,-12.6678,-12.6486,-12.5591,-12.4793,-12.3994,-12.3109,-12.2417,-12.187,-12.1793,-12.1793,-12.1485,-12.0639,-11.9135,-11.7639,-11.6507,-11.502,-11.3682,-11.2742,-11.2485,-11.2081,-11.1295,-11.0509,-10.9665,-10.897,-10.8088,-10.7268,-10.6559,-10.6486,-10.6302,-10.6192,-10.5484,-10.4421,-10.2925,-10.2191,-10.1494,-10.0796,-10.0686,-10.0319,-9.9659,-9.9402,-9.9292,-9.9712,-10.0289,-10.0712,-10.152,-10.1712,-10.1712,-10.1712,-10.2289,-10.2981,-10.3712,-10.4405,-10.5405,-10.679,-10.8482,-11.0406,-11.2791,0.0,0.0,0.0,0.0,0.0,0.0,0.0,0.0,0.0,0.0,0.0,0.0,0.0,0.0,-14.5856,-14.5087,-14.428,-14.3489,-14.2604,-14.172,-14.0973,-14.0973,-14.0896,-14.0588,-13.9242,-13.8396,-13.8181,-13.6473,-13.568,-13.5591,-13.4693,-13.3923,-13.323,-13.3115,-13.2603,-13.191,-13.1795,-13.1295,-13.0667,-13.0475,-12.9525,-12.8035,-12.7178,-12.6794,-12.6678,-12.6678,-12.6678,-12.6678,-12.6678,-12.6678,-12.6678,-12.6678,-12.6678,-12.6678,-12.6678,-12.6678,-12.6486,-12.5591,-12.5332,-12.4793,-12.3225,-12.3302,-12.3494,-12.2801,-12.2724,-12.2417,-12.1485,-12.0492,-11.9191,-11.7488,-11.6452,-11.5167,-11.3609,-11.28,-11.2081,-11.1295,-11.0509,-11.0032,-10.9812,-10.8517,-10.7536,-10.7342,-10.6827,-10.6082,-10.5275,-10.5165,-10.4687,-10.3696,-10.3586,-10.3476,-10.3293,-10.2705,-10.2301,-10.2118,-10.0796,-10.0099,-9.8481,-9.9365,-10.0173,-10.0596,-10.1019,-10.1404,-10.1904,-10.2289,-10.2981,-10.4289,-10.5213,-10.629,-10.7982,0.0,-11.3099,-11.7984,0.0,0.0,0.0,0.0,0.0,0.0,0.0,0.0,0.0,0.0,0.0,0.0,0.0,0.0,-14.499,-14.4182,-14.3297,-14.2489,-14.1604,-14.0796,-13.9873,-13.9488,-13.9181,-13.9181,-13.8527,-13.7911,-13.7296,-13.5589,-13.4911,-13.4821,-13.35,-13.273,-13.2295,-13.2295,-13.2102,-13.1679,-13.1218,-13.0833,-13.0359,-12.941,-12.8294,-12.7178,-12.6794,-12.6678,-12.6678,-12.6678,-12.6678,-12.6678,-12.6678,-12.6678,-12.6678,-12.6678,-12.6678,-12.6678,-12.6678,-12.6678,-12.6601,-12.6217,-12.5717,-12.5168,-12.4409,-12.4187,-12.3994,-12.3601,-12.3524,-12.3408,-12.2994,-12.1793,-12.0581,-11.9667,-11.7978,-11.6177,-11.4562,-11.366,-11.261,-11.1295,-11.0928,-11.0509,-10.9981,-10.9262,-10.8285,-10.7011,-10.6559,-10.6192,-10.5789,-10.5385,-10.4908,-10.4614,-10.41,-10.388,-10.388,-10.3513,-10.3293,-10.3293,-10.2595,-10.2191,-9.7403,-9.8634,-9.9827,-9.9981,-10.0712,-10.152,-10.2404,-10.2789,-10.3405,-10.5097,-10.6097,-10.729,-10.9213,0.0,0.0,0.0,0.0,0.0,0.0,0.0,0.0,0.0,0.0,0.0,0.0,0.0,0.0,0.0,0.0,0.0,-14.389,-14.3005,-14.2104,-14.1296,-14.0527,-13.9604,-13.8695,-13.7925,-13.7733,-13.8118,-13.7925,-13.7296,-13.6411,-13.5012,-13.4218,-13.3885,-13.2179,-13.141,-13.141,-13.1218,-13.1102,-13.1102,-13.0398,-13.009,-12.9717,-12.8179,-12.7178,-12.6678,-12.6678,-12.6678,-12.6678,-12.6678,-12.6678,-12.6678,-12.6678,-12.6678,-12.6678,-12.6678,-12.6678,-12.6678,-12.6678,-12.6678,-12.6678,-12.6678,-12.6217,-12.5591,-12.5399,-12.4986,-12.461,-12.4399,-12.4399,-12.4399,-12.4418,-12.2985,-12.1831,-12.1485,-11.927,-11.708,-11.5497,-11.4248,-11.3051,-11.1552,-11.1295,-11.0928,-11.0054,-10.9981,-10.9115,-10.711,-10.6816,-10.6596,-10.6376,-10.5789,-10.5422,-10.5422,-10.4798,-10.4504,-10.4504,-10.4284,-10.421,-10.421,-10.399,-10.388,-9.7096,-9.8173,-9.9096,-9.9904,-10.0712,-10.152,-10.2404,-10.3212,-10.4289,-10.602,-10.7021,-10.8406,-11.0906,0.0,0.0,0.0,0.0,0.0,0.0,0.0,0.0,0.0,0.0,0.0,0.0,0.0,0.0,0.0,0.0,0.0,-14.2104,-14.1296,-14.0396,-13.9511,-13.8719,-13.7925,-13.6988,-13.6103,-13.6488,-13.8118,-13.7296,-13.6411,-13.5589,-13.4705,-13.3859,-13.3,-13.1295,-13.059,-13.0475,-12.9706,-12.9398,-12.9398,-12.9321,-12.8783,-12.7997,-12.7101,-12.6678,-12.6678,-12.6678,-12.6678,-12.6678,-12.6678,-12.6678,-12.6678,-12.6678,-12.6678,-12.6678,-12.6678,-12.6678,-12.6678,-12.6678,-12.6678,-12.6678,-12.6678,-12.6678,-12.6409,-12.5591,-12.6024,-12.6294,-12.5476,-12.5283,-12.5283,-12.5283,-12.3937,-12.2467,-12.16,-11.9911,-11.812,-11.6278,-11.4632,-11.3323,-11.2375,-11.1552,-11.0928,-11.0054,-10.9981,-10.9541,-10.8712,-10.7868,-10.722,-10.6413,-10.6302,-10.6302,-10.6302,-10.6192,-10.6192,-10.6192,-10.5422,-10.5018,-10.5018,-10.421,-10.388,-9.6442,-9.775,-9.8865,-9.9211,-10.0712,-10.2289,-10.3212,-10.4482,-10.5905,-10.7598,-10.9098,-11.1214,-11.4791,0.0,0.0,0.0,0.0,0.0,0.0,0.0,0.0,0.0,0.0,0.0,0.0,0.0,0.0,0.0,0.0,0.0,-14.1104,-14.0296,-13.9181,-13.7834,-13.7488,-13.6603,-13.5281,-13.4872,-13.5116,-13.5693,-13.5411,-13.5089,-13.4705,-13.391,-13.2987,-13.2102,-13.1025,-13.0217,-12.9728,-12.9305,-12.9179,-12.9063,-12.8602,-12.7909,-12.7063,-12.6794,-12.6678,-12.6678,-12.6678,-12.6678,-12.6678,-12.6678,-12.6678,-12.6678,-12.6678,-12.6678,-12.6678,-12.6678,-12.6678,-12.6678,-12.6678,-12.6678,-12.6678,-12.6678,-12.6678,-12.6601,-12.6294,-12.6486,-12.6601,-12.6294,-12.6217,-12.6217,-12.6217,-12.4783,-12.3514,-12.3225,-12.1216,-11.9024,-11.7303,-11.5975,-11.4468,-11.2558,-11.175,-11.1111,-11.0766,-11.0692,-11.0362,-10.9606,-10.8799,-10.7991,-10.7183,-10.7073,-10.689,-10.6376,-10.6376,-10.6376,-10.6376,-10.6082,-10.5899,-10.5899,-10.5605,-10.5495,-9.598,-9.7519,-9.8865,-9.9135,-10.1096,-10.3289,-10.4405,-10.579,-10.7405,-10.9598,-11.1906,-11.4522,-11.7984,-12.1408,0.0,0.0,0.0,0.0,0.0,0.0,0.0,0.0,0.0,0.0,0.0,0.0,0.0,0.0,0.0,0.0,0.0,-13.8758,-13.7733,-13.6103,-13.5988,-13.5295,-13.3897,-13.3564,-13.3384,-13.3115,-13.2782,-13.309,-13.3897,-13.2987,-13.2102,-13.1295,-13.0217,-12.9294,-12.8766,-12.8497,-12.8382,-12.8382,-12.7804,-12.7178,-12.6678,-12.6678,-12.6678,-12.6678,-12.6678,-12.6678,-12.6678,-12.6678,-12.6678,-12.6678,-12.6678,-12.6678,-12.6678,-12.6678,-12.6678,-12.6678,-12.6678,-12.6678,-12.6678,-12.6678,-12.6678,-12.6678,-12.6678,-12.6678,-12.6678,-12.6678,-12.6678,-12.6678,-12.6678,-12.5283,-12.4091,-12.4071,-12.187,-11.978,-11.8618,-11.7121,-11.5259,-11.2999,-11.2249,-11.1992,-11.2029,-11.2029,-11.1625,-11.0781,-11.0193,-10.9312,-10.7991,-10.7697,-10.7294,-10.678,-10.6486,-10.6376,-10.6376,-10.6376,-10.6376,-10.6376,-10.6376,-10.6376,-9.5826,-9.7519,-9.9019,-9.9865,-10.1981,-10.4405,-10.602,-10.7098,-10.8713,-11.2099,-11.5522,-11.8407,-11.9985,-12.3101,0.0,0.0,0.0,0.0,0.0,0.0,0.0,0.0,0.0,0.0,0.0,0.0,0.0,0.0,0.0,0.0,0.0,-13.6796,-13.6026,-13.432,-13.4308,-13.3885,-13.3,-13.2102,-13.1295,-13.0475,-12.959,-13.0475,-13.2923,-13.2102,-13.1218,-13.0359,-12.8563,-12.792,-12.7804,-12.6986,-12.6678,-12.6678,-12.6678,-12.6678,-12.6678,-12.6678,-12.6678,-12.6678,-12.6678,-12.6678,-12.6678,-12.6678,-12.6678,-12.6678,-12.6678,-12.6678,-12.6678,-12.6678,-12.6678,-12.6678,-12.6678,-12.6678,-12.6678,-12.6678,-12.6678,-12.6678,-12.6678,-12.6678,-12.6678,-12.6678,-12.6678,-12.6678,-12.6678,-12.5206,-12.4091,-12.4071,-12.187,-12.0207,-12.0207,-11.7903,-11.5607,-11.3844,-11.3624,-11.357,-11.3644,-11.3553,-11.335,-11.2469,-11.2396,-11.1295,-10.8909,-10.7991,-10.7587,-10.7587,-10.678,-10.6413,-10.6413,-10.6413,-10.6376,-10.6376,-10.6376,-10.6376,-9.5057,-9.7057,0.0,-9.9865,-10.2404,-10.529,-10.7598,-10.929,-11.1714,-11.6292,-11.9408,-12.1716,-12.2793,-12.5794,0.0,0.0,0.0,0.0,0.0,0.0,0.0,0.0,0.0,0.0,0.0,0.0,0.0,0.0,0.0,0.0,0.0,-13.5732,-13.45,-13.3372,-13.2795,-13.2102,-13.1218,-13.0398,-12.9833,-12.9613,-12.9305,-12.9602,-13.0282,-13.009,-12.9525,-12.8563,-12.8112,-12.7612,-12.6986,-12.6794,-12.6678,-12.6678,-12.6678,-12.6678,-12.6678,-12.6678,-12.6678,-12.6678,-12.6678,-12.6678,-12.6678,-12.6678,-12.6678,-12.6678,-12.6678,-12.6678,-12.6678,-12.6678,-12.6678,-12.6678,-12.6678,-12.6678,-12.6678,-12.6678,-12.6678,-12.6678,-12.6678,-12.6678,-12.6678,-12.6678,-12.6678,-12.6486,-12.5928,-12.4841,-12.3909,-12.3302,-12.2062,-12.0908,-12.0284,-11.8425,-11.7018,-11.6528,-11.5877,-11.5619,-11.5582,-11.5042,-11.4483,-11.4186,-11.3056,-11.1588,-10.9679,-10.9386,-10.8982,-10.8505,-10.8211,-10.8101,-10.8101,-10.7477,-10.7183,-10.7183,-10.667,-10.6376,-9.4749,-9.6865,0.0,-10.0289,-10.2904,-10.6213,-11.0483,-11.2983,-11.5715,-11.9792,-12.2408,-12.4409,-12.5909,-12.8102,0.0,0.0,0.0,0.0,0.0,0.0,0.0,0.0,0.0,0.0,0.0,0.0,0.0,0.0,0.0,0.0,0.0,-13.4,-13.2923,-13.1987,-13.1218,-13.0525,-12.9987,-12.9102,-12.8679,-12.8689,-12.8382,-12.8179,-12.8206,-12.8475,-12.8409,-12.792,-12.7612,-12.7063,-12.6678,-12.6678,-12.6678,-12.6678,-12.6678,-12.6678,-12.6678,-12.6678,-12.6678,-12.6678,-12.6678,-12.6678,-12.6678,-12.6678,-12.6678,-12.6678,-12.6678,-12.6678,-12.6678,-12.6678,-12.6678,-12.6678,-12.6678,-12.6678,-12.6678,-12.6678,-12.6678,-12.6678,-12.6678,-12.6678,-12.6678,-12.6678,-12.6678,-12.6419,-12.5581,-12.4687,-12.3802,-12.2994,-12.2224,-12.1313,-12.0299,-11.9329,-11.8478,-11.8129,-11.7615,-11.7451,-11.7451,-11.6813,-11.6217,-11.5452,-11.4215,-11.2737,-11.0964,-11.0304,-10.979,-10.9276,-10.8982,-10.8799,-10.8799,-10.8285,-10.7881,-10.7587,-10.7073,-10.6706,-9.4634,-9.6749,0.0,-10.0904,-10.352,0.0,-11.3984,-11.7484,-12.01,-12.2601,0.0,-12.6486,-12.8986,-13.0217,0.0,0.0,0.0,0.0,0.0,0.0,0.0,0.0,0.0,0.0,0.0,0.0,0.0,0.0,0.0,0.0,0.0,-13.1987,-13.1102,-13.041,-12.9513,-12.9102,-12.9123,-12.8189,-12.7804,-12.7804,-12.6986,-12.6678,-12.6678,-12.7535,-12.7804,-12.7727,-12.6986,-12.6678,-12.6678,-12.6678,-12.6678,-12.6678,-12.6678,-12.6678,-12.6678,-12.6678,-12.6678,-12.6678,-12.6678,-12.6678,-12.6678,-12.6678,-12.6678,-12.6678,-12.6601,-12.6601,-12.6601,-12.6486,-12.6486,-12.6601,-12.6601,-12.6601,-12.6601,-12.6601,-12.6601,-12.6601,-12.6601,-12.6486,-12.6486,-12.6601,-12.6601,-12.6303,-12.5504,-12.4696,-12.3763,-12.2917,-12.2062,-12.1271,-12.0394,-12.0321,-11.9991,-11.9081,-11.9127,-11.9127,-11.9127,-11.9022,-11.8304,-11.6739,-11.5725,-11.4498,-11.2647,-11.1015,-11.0083,-11.0083,-10.9386,-10.9019,-10.9019,-10.8909,-10.8505,-10.7697,-10.7587,-10.7183,-9.3749,-9.5826,0.0,0.0,-10.5713,-11.1406,-11.6215,-11.9215,-12.1793,-12.4293,-12.6678,-12.8986,0.0,0.0,0.0,0.0,0.0,0.0,0.0,0.0,0.0,0.0,0.0,0.0,0.0,0.0,0.0,0.0,0.0,0.0,-13.1987,-13.059,-12.9717,-12.9498,-12.8612,-12.8228,-12.8189,-12.7419,-12.6986,-12.6986,-12.6794,-12.6678,-12.6678,-12.6871,-12.6986,-12.6871,-12.6794,-12.6678,-12.6678,-12.6678,-12.6678,-12.6678,-12.6678,-12.6678,-12.6678,-12.6678,-12.6678,-12.6678,-12.6678,-12.6678,-12.6678,-12.6678,-12.6678,-12.6601,-12.5909,-12.5717,-12.5524,-12.488,-12.5226,-12.5717,-12.5717,-12.5678,-12.5726,-12.5726,-12.5678,-12.5717,-12.5717,-12.5091,-12.4899,-12.5476,-12.5717,-12.5601,-12.5418,-12.4726,-12.3601,-12.21,-12.1677,-12.1515,-12.1321,-12.1282,-12.1206,-12.1016,-12.1016,-12.1016,-12.1016,-12.0321,-11.9718,-11.9419,-11.7896,-11.6293,-11.4461,-11.2221,-11.0891,-11.0891,-11.0817,-11.0707,-11.0707,-11.001,-10.9312,-10.8505,-10.7881,-10.7183,-9.3364,0.0,0.0,-10.2712,0.0,-11.2483,-11.6292,-11.953,-12.2301,-12.487,0.0,0.0,0.0,0.0,0.0,0.0,0.0,0.0,0.0,0.0,0.0,0.0,0.0,0.0,0.0,0.0,0.0,0.0,0.0,-13.0525,-13.0498,-12.9294,-12.8602,-12.8574,-12.7804,-12.7342,-12.7342,-12.6871,-12.6678,-12.6678,-12.6678,-12.6678,-12.6678,-12.6678,-12.6678,-12.6678,-12.6678,-12.6678,-12.6678,-12.6678,-12.6678,-12.6678,-12.6217,-12.6101,-12.6024,-12.5591,-12.5476,-12.5476,-12.5476,-12.5486,-12.5495,-12.5495,-12.5534,-12.5409,-12.4909,-12.4793,-12.4726,-12.4187,-12.4687,-12.5409,-12.536,-12.5409,-12.5418,-12.538,-12.5101,-12.4783,-12.4793,-12.437,-12.4409,-12.5216,-12.5409,-12.5409,-12.537,-12.4409,-12.3101,-12.1793,-12.16,-12.16,-12.16,-12.16,-12.16,-12.16,-12.16,-12.16,-12.16,-12.1194,-12.0714,-12.0226,-11.9011,-11.769,-11.6329,-11.3798,-11.2122,-11.1184,-11.1221,-11.1221,-11.1221,-11.0781,-11.001,-10.8799,-10.8395,-10.7477,-9.3018,0.0,-9.925,-10.4597,-10.8521,0.0,-11.5489,-11.8799,0.0,0.0,0.0,0.0,0.0,0.0,0.0,0.0,0.0,0.0,0.0,0.0,0.0,0.0,0.0,0.0,0.0,0.0,0.0,0.0,0.0,-12.9025,-12.8997,-12.8189,-12.7727,-12.7727,-12.6986,-12.6601,-12.6486,-12.6486,-12.6409,-12.6294,-12.6409,-12.6601,-12.6678,-12.6678,-12.6678,-12.6678,-12.6678,-12.6678,-12.6678,-12.6678,-12.6601,-12.6409,-12.5717,-12.5283,-12.5101,-12.4399,-12.4091,-12.4091,-12.4091,-12.4101,-12.4118,-12.4118,-12.411,-12.4101,-12.3909,-12.3917,-12.3926,-12.3687,-12.4302,-12.4986,-12.5024,-12.4986,-12.4995,-12.5119,-12.437,-12.3668,-12.3879,-12.381,-12.3879,-12.4803,-12.5178,-12.537,-12.5178,-12.3985,-12.2793,-12.1793,-12.16,-12.16,-12.16,-12.16,-12.16,-12.16,-12.16,-12.16,-12.16,-12.16,-12.1282,-12.0472,-11.9823,-11.8887,-11.7677,-11.5581,-11.3538,-11.1368,-11.1295,-11.1221,-11.1221,-11.1221,-11.0414,-10.8982,-10.8982,-10.8101,0.0,0.0,-10.0481,0.0,-10.679,-11.0291,0.0,0.0,0.0,0.0,0.0,0.0,0.0,0.0,0.0,0.0,0.0,0.0,0.0,0.0,0.0,0.0,0.0,0.0,0.0,0.0,0.0,0.0,-12.8612,-12.8112,-12.8112,-12.7342,-12.6871,-12.6871,-12.6794,-12.6294,-12.5591,-12.5591,-12.5206,-12.4514,-12.5206,-12.6024,-12.6678,-12.6678,-12.6678,-12.6678,-12.6678,-12.6678,-12.6678,-12.6678,-12.6294,-12.5591,-12.5399,-12.4909,-12.4264,-12.4071,-12.4071,-12.4071,-12.4071,-12.4071,-12.4118,-12.4118,-12.4118,-12.3994,-12.3302,-12.3109,-12.2917,-12.2062,-12.2601,-12.3216,-12.3216,-12.3216,-12.3408,-12.4101,-12.3101,-12.21,-12.2917,-12.2494,-12.2177,-12.3101,-12.4409,-12.5178,-12.4409,-12.4101,-12.3408,-12.1793,-12.16,-12.16,-12.16,-12.16,-12.16,-12.16,-12.16,-12.16,-12.16,-12.16,-12.1476,-12.1429,-12.1313,-12.0216,-11.7677,-11.7313,-11.5582,-11.2338,-11.1588,-11.1221,-11.1221,-11.1221,-11.0707,-10.979,-10.979,-10.8982,-9.3056,-9.6557,-10.0096,0.0,0.0,0.0,0.0,0.0,0.0,0.0,0.0,0.0,0.0,0.0,0.0,0.0,0.0,0.0,0.0,0.0,0.0,0.0,0.0,0.0,0.0,0.0,0.0,0.0,-12.7727,-12.7178,-12.7178,-12.6871,-12.6678,-12.6678,-12.6217,-12.5832,-12.5399,-12.487,-12.4533,-12.4101,-12.4476,-12.4899,-12.5206,-12.5206,-12.5832,-12.6678,-12.6217,-12.6024,-12.5909,-12.5399,-12.5014,-12.4591,-12.3639,-12.2994,-12.2624,-12.1616,-12.1608,-12.1985,-12.1985,-12.2301,-12.2724,-12.2724,-12.2724,-12.2609,-12.2301,-12.2224,-12.2062,-12.1677,-12.2216,-12.2908,-12.2908,-12.2908,-12.3101,-12.3909,-12.2793,-12.1793,-12.2678,-12.2177,-12.1985,-12.3293,-12.4601,-12.5101,-12.4293,-12.4101,-12.3485,-12.1908,-12.16,-12.16,-12.16,-12.16,-12.16,-12.16,-12.16,-12.16,-12.16,-12.16,-12.16,-12.16,-12.16,-12.0824,-11.9077,-11.8068,-11.6592,-11.4614,-11.2822,-11.1698,-11.1221,-11.1221,-11.0817,-10.9973,-10.9973,-10.9386,-9.3364,0.0,0.0,0.0,0.0,0.0,0.0,0.0,0.0,0.0,0.0,0.0,0.0,0.0,0.0,0.0,0.0,0.0,0.0,0.0,0.0,0.0,0.0,0.0,0.0,0.0,0.0,0.0,-12.6601,-12.6409,-12.6409,-12.6409,-12.6409,-12.6409,-12.5476,-12.4899,-12.4409,-12.361,-12.3186,-12.3494,-12.3716,-12.3899,-12.4091,-12.3899,-12.4524,-12.5678,-12.5332,-12.5091,-12.4986,-12.4409,-12.3784,-12.3293,-12.21,-12.1308,-12.0814,-11.9575,-11.9492,-12.0023,-12.0216,-12.0716,-12.1293,-12.1485,-12.16,-12.16,-12.16,-12.16,-12.16,-12.16,-12.21,-12.2601,-12.2601,-12.2601,-12.2793,-12.3601,-12.2716,-12.1793,-12.2408,-12.2216,-12.2408,-12.3793,-12.4793,-12.5216,-12.4486,-12.4409,-12.3909,-12.2485,-12.2216,-12.2177,-12.1985,-12.1908,-12.1793,-12.16,-12.16,-12.16,-12.16,-12.16,-12.16,-12.16,-12.1419,-12.0783,-11.9931,-11.8387,-11.7006,-11.5864,-11.3978,-11.2506,-11.1515,-11.1295,-11.0891,-11.0304,-11.0304,-10.99,-9.2133,-9.448,0.0,0.0,0.0,0.0,0.0,0.0,0.0,0.0,0.0,0.0,0.0,0.0,0.0,0.0,0.0,0.0,0.0,0.0,0.0,0.0,0.0,0.0,0.0,0.0,0.0,0.0,-12.5014,-12.5476,-12.5476,-12.5476,-12.5476,-12.5476,-12.4591,-12.3399,-12.1793,-12.0908,-12.0908,-12.1677,-12.2609,-12.3379,-12.4118,-12.3302,-12.2994,-12.3109,-12.3899,-12.4216,-12.4234,-12.4118,-12.3194,-12.17,-12.1616,-12.0615,-11.919,-11.9113,-11.9068,-11.9299,-11.9985,-12.0292,-12.0485,-12.1293,-12.16,-12.16,-12.16,-12.16,-12.16,-12.16,-12.16,-12.1677,-12.1677,-12.1677,-12.1908,-12.2793,-12.2293,-12.16,-12.1677,-12.2293,-12.3101,-12.3909,-12.4793,-12.5409,-12.5293,-12.5293,-12.4986,-12.4101,-12.3985,-12.3716,-12.2908,-12.2793,-12.2485,-12.1677,-12.16,-12.16,-12.16,-12.16,-12.16,-12.16,-12.0768,-11.987,-11.8916,-11.7867,-11.6607,-11.4873,-11.4672,-11.3901,-11.2286,-11.1588,-11.1221,-11.1111,-11.1111,-11.0707,-9.121,-9.352,0.0,0.0,0.0,0.0,0.0,0.0,0.0,0.0,0.0,0.0,0.0,0.0,0.0,0.0,0.0,0.0,0.0,0.0,0.0,0.0,0.0,0.0,0.0,0.0,0.0,0.0,0.0,-12.4601,-12.4591,-12.4591,-12.4284,-12.3793,-12.2908,-12.1677,-11.9992,-11.9684,-11.9677,-11.9977,-12.03,-12.0615,-12.0923,-12.0608,-12.0492,-12.0538,-12.08,-12.1185,-12.1577,-12.1108,-12.0492,-11.9877,-11.9376,-11.8799,-11.8183,-11.7606,-11.7837,-11.8407,-11.9177,-11.9908,-12.0408,-12.1293,-12.16,-12.16,-12.16,-12.16,-12.16,-12.16,-12.16,-12.16,-12.16,-12.16,-12.1677,-12.1985,-12.2293,-12.2408,-12.2408,-12.2716,-12.3101,-12.3909,-12.4793,-12.5409,-12.5409,-12.5409,-12.5101,-12.4216,-12.4101,-12.3985,-12.3716,-12.3716,-12.3408,-12.2485,-12.2408,-12.2216,-12.16,-12.16,-12.16,-12.16,-12.073,-11.9771,-11.881,-11.7903,-11.682,-11.5589,-11.5112,-11.4011,-11.2396,-11.2102,-11.1698,-11.1221,-11.1221,-11.1001,-9.0367,-9.2213,-9.4251,0.0,0.0,0.0,0.0,0.0,0.0,0.0,0.0,0.0,0.0,0.0,0.0,0.0,0.0,0.0,0.0,0.0,0.0,0.0,0.0,0.0,0.0,0.0,0.0,0.0,0.0,0.0,-12.2822,-12.2822,-12.2524,-12.1608,-12.08,-11.98,-11.8728,-11.8728,-11.8722,-11.8669,-11.8992,-11.9113,-11.9113,-11.8799,-11.8722,-11.8613,-11.8376,-11.8921,-11.9883,-11.9299,-11.8869,-11.86,-11.8029,-11.7606,-11.7298,-11.6676,-11.6907,-11.7484,-11.8715,-11.9408,-12.01,-12.1177,-12.16,-12.16,-12.16,-12.16,-12.16,-12.16,-12.16,-12.16,-12.16,-12.16,-12.16,-12.16,-12.1985,-12.2485,-12.2793,-12.3101,-12.3524,-12.4409,-12.5216,-12.5794,-12.5794,-12.5794,-12.5601,-12.5101,-12.4986,-12.4909,-12.4601,-12.4486,-12.4216,-12.3408,-12.3293,-12.3101,-12.2485,-12.2408,-12.2408,-12.2408,-12.1295,-12.0291,-11.9684,-11.8226,-11.6984,-11.6397,-11.5589,-11.4488,-11.3203,-11.291,-11.2506,-11.1992,-11.1992,-11.1882,0.0,0.0,0.0,-9.5326,0.0,0.0,0.0,0.0,0.0,0.0,0.0,0.0,0.0,0.0,0.0,0.0,0.0,0.0,0.0,0.0,0.0,0.0,0.0,0.0,0.0,0.0,0.0,0.0,-11.9784,-12.0284,-12.0284,-12.0169,-11.9908,-11.9113,-11.8183,-11.7799,-11.7799,-11.7799,-11.7799,-11.7799,-11.8613,-11.8998,-11.8998,-11.8106,-11.7799,-11.7683,-11.6869,-11.7414,-11.8998,-11.8992,-11.8491,-11.7799,-11.7792,-11.7215,-11.6484,-11.6484,-11.6484,-11.6676,-11.8484,-11.91,-11.9408,-12.0985,-12.16,-12.16,-12.16,-12.16,-12.16,-12.16,-12.16,-12.16,-12.16,-12.16,-12.16,-12.16,-12.16,-12.1793,-12.2716,-12.3524,-12.4409,-12.5216,-12.6101,-12.6678,-12.6678,-12.6678,-12.6678,-12.6678,-12.6678,-12.6409,-12.5486,-12.5409,-12.5101,-12.4216,-12.4101,-12.4101,-12.4101,-12.4101,-12.4101,-12.4091,-12.2343,-12.1306,-12.1273,-11.8712,-11.7204,-11.7204,-11.6397,-11.5699,-11.4892,-11.4011,-11.357,-11.357,-11.357,-11.3203,-8.9239,0.0,0.0,0.0,0.0,0.0,-9.7211,0.0,0.0,0.0,0.0,0.0,0.0,0.0,0.0,0.0,0.0,0.0,0.0,0.0,0.0,0.0,0.0,0.0,0.0,0.0,0.0,0.0,-11.8915,-11.9376,-11.9376,-11.8799,-11.8414,-11.8183,-11.7298,-11.6869,-11.6869,-11.6869,-11.6869,-11.6869,-11.7106,-11.7221,-11.7221,-11.6984,-11.6869,-11.6792,-11.6599,-11.6369,-11.6413,-11.6984,-11.71,-11.6869,-11.6907,-11.6676,-11.6484,-11.6484,-11.6484,-11.6676,-11.7792,-11.86,-11.9292,-12.0292,-12.11,-12.16,-12.16,-12.16,-12.16,-12.16,-12.16,-12.16,-12.16,-12.16,-12.16,-12.16,-12.16,-12.1793,-12.2716,-12.3524,-12.4409,-12.5216,-12.6101,-12.6678,-12.6678,-12.6678,-12.6678,-12.6678,-12.6678,-12.6601,-12.6409,-12.6294,-12.5986,-12.5101,-12.4986,-12.4793,-12.4216,-12.4101,-12.3828,-12.3107,-12.1959,-12.1018,-12.022,-11.8796,-11.8085,-11.8085,-11.7314,-11.6801,-11.6507,-11.5112,-11.4194,-11.357,-11.357,-11.3497,-8.9139,-8.972,-9.0591,-9.1095,0.0,0.0,-9.5518,-9.6519,0.0,0.0,0.0,0.0,0.0,0.0,0.0,0.0,0.0,0.0,0.0,0.0,0.0,0.0,0.0,0.0,0.0,-11.7683,-11.7799,-11.7298,-11.7683,-11.7914,-11.7491,-11.6676,-11.6215,-11.6215,-11.5715,-11.5484,-11.5484,-11.5792,-11.5984,-11.5984,-11.6292,-11.6484,-11.6484,-11.6484,-11.6292,-11.5984,-11.5984,-11.5484,-11.4791,-11.5291,-11.5676,-11.5984,-11.6407,-11.6484,-11.6484,-11.6484,-11.6484,-11.6599,-11.7484,-11.81,-11.8715,-11.9485,-12.0408,-12.11,-12.11,-12.1293,-12.16,-12.16,-12.16,-12.16,-12.16,-12.16,-12.16,-12.16,-12.16,-12.1793,-12.2716,-12.3293,-12.3985,-12.5178,-12.6101,-12.6678,-12.6678,-12.6678,-12.6678,-12.6678,-12.6678,-12.6678,-12.6678,-12.6678,-12.6486,-12.5986,-12.5909,-12.5678,-12.5216,-12.5216,-12.4802,-12.3812,-12.2887,-12.1923,-12.0891,-11.9614,-11.8893,-11.8893,-11.8122,-11.7498,-11.7204,-11.592,-11.5075,-11.4598,-11.4598,-11.4378,-8.9648,-8.9262,-8.947,-9.0783,-9.121,0.0,-9.4212,-9.4866,-9.5405,0.0,0.0,0.0,0.0,0.0,0.0,0.0,0.0,0.0,0.0,0.0,0.0,0.0,0.0,0.0,-11.6215,-11.6215,-11.6215,-11.6215,-11.6215,-11.5907,-11.5215,-11.4401,-11.4016,-11.4016,-11.4022,-11.3984,-11.3984,-11.4791,-11.5176,-11.5176,-11.5907,-11.6176,-11.6176,-11.6176,-11.5792,-11.5176,-11.5176,-11.4714,-11.3907,-11.3984,-11.4484,-11.5215,-11.5984,-11.6407,-11.6407,-11.6484,-11.6484,-11.6599,-11.7407,-11.7715,-11.7907,-11.8715,-11.9485,-12.0216,-12.0216,-12.0793,-12.1485,-12.16,-12.16,-12.16,-12.16,-12.16,-12.16,-12.16,-12.16,-12.1793,-12.2601,-12.2793,-12.3293,-12.4793,-12.5909,-12.6601,-12.6678,-12.6678,-12.6678,-12.6678,-12.6678,-12.6678,-12.6678,-12.6678,-12.6678,-12.6678,-12.6678,-12.6678,-12.6678,-12.6678,-12.626,-12.53,-12.4424,-12.3503,-12.2519,-12.0933,-12.0132,-12.0132,-11.9358,-11.8419,-11.75,-11.6526,-11.5993,-11.5993,-11.6103,-11.581,-9.1758,-9.0992,-9.0312,-9.0427,-9.1395,0.0,-9.29,-9.4057,-9.5097,0.0,0.0,0.0,0.0,0.0,0.0,0.0,0.0,0.0,0.0,0.0,0.0,0.0,0.0,0.0,-11.4516,-11.4516,-11.4516,-11.4516,-11.4516,-11.4362,-11.4297,-11.4104,-11.3989,-11.3989,-11.3989,-11.3989,-11.3984,-11.4176,-11.4291,-11.4291,-11.4407,-11.4484,-11.4484,-11.4484,-11.4407,-11.4291,-11.4291,-11.3791,-11.3022,-11.3714,-11.4099,-11.4291,-11.5215,-11.5484,-11.5599,-11.6292,-11.6484,-11.6484,-11.6676,-11.7215,-11.7792,-11.8023,-11.86,-11.9292,-11.9292,-11.9908,-12.0677,-12.1408,-12.16,-12.16,-12.16,-12.16,-12.16,-12.16,-12.16,-12.16,-12.1793,-12.2408,-12.3024,-12.3293,-12.4601,-12.5909,-12.6601,-12.6678,-12.6678,-12.6678,-12.6678,-12.6678,-12.6678,-12.6678,-12.6678,-12.6678,-12.6678,-12.6678,-12.6678,-12.6678,-12.626,-12.53,-12.5004,-12.4491,-12.3539,-12.3239,-12.2974,-12.2974,-12.2072,-12.0897,-11.9365,-11.7073,-11.5993,-11.5993,-11.669,-11.6911,-9.3242,-9.2108,-9.1199,-9.1006,-9.1091,0.0,0.0,-9.3477,-9.448,0.0,0.0,0.0,0.0,0.0,0.0,0.0,0.0,0.0,0.0,0.0,0.0,0.0,0.0,0.0,-11.3407,-11.3714,-11.3984,-11.3984,-11.3599,-11.3407,-11.3411,-11.2988,-11.2796,-11.2796,-11.2796,-11.2834,-11.2791,-11.3214,-11.3407,-11.3407,-11.3791,-11.3984,-11.3984,-11.3984,-11.3791,-11.3407,-11.3407,-11.2906,-11.2099,-11.2599,-11.2791,-11.2906,-11.4214,-11.4714,-11.4791,-11.5599,-11.5907,-11.5984,-11.6407,-11.6792,-11.7215,-11.7215,-11.7715,-11.8484,-11.8484,-11.8985,-11.9908,-12.0677,-12.0985,-12.11,-12.1485,-12.16,-12.16,-12.16,-12.16,-12.16,-12.16,-12.1908,-12.2408,-12.2793,-12.3601,-12.4409,-12.5293,-12.5794,-12.6101,-12.6101,-12.6409,-12.6678,-12.6678,-12.6678,-12.6678,-12.6678,-12.6678,-12.6678,-12.6678,-12.6678,-12.626,-12.53,-12.5202,-12.479,-12.3759,-12.3797,-12.3797,-12.3797,-12.2891,-12.181,-12.0481,-11.8823,-11.7731,-11.7204,-11.7608,-11.7792,-9.4844,-9.3554,-9.2619,-9.2316,-9.1325,-9.0825,0.0,0.0,0.0,0.0,0.0,0.0,0.0,0.0,0.0,0.0,0.0,0.0,0.0,0.0,0.0,0.0,0.0,0.0,-11.1983,-11.2603,-11.2988,-11.2988,-11.2368,-11.1983,-11.1983,-11.1522,-11.1214,-11.1214,-11.1406,-11.1522,-11.1522,-11.2099,-11.2522,-11.2522,-11.3214,-11.3483,-11.3483,-11.3483,-11.3099,-11.2522,-11.2522,-11.2099,-11.1522,-11.1522,-11.1522,-11.1598,-11.3214,-11.3714,-11.3907,-11.4714,-11.5176,-11.5407,-11.5984,-11.6407,-11.6484,-11.6484,-11.6984,-11.76,-11.7715,-11.8292,-11.8985,-11.9792,-12.0216,-12.0485,-12.1177,-12.1485,-12.16,-12.16,-12.16,-12.16,-12.16,-12.16,-12.1793,-12.2485,-12.2601,-12.2985,-12.3909,-12.4716,-12.5216,-12.5409,-12.5986,-12.6486,-12.6678,-12.6678,-12.6678,-12.6678,-12.6678,-12.6678,-12.6678,-12.6678,-12.644,-12.5536,-12.5478,-12.5103,-12.4395,-12.4433,-12.4433,-12.4433,-12.3712,-12.2774,-12.1912,-12.1201,-12.0054,-11.8416,-11.8599,-11.8599,-9.75,-9.6445,-9.5436,-9.4655,-9.3474,-9.2515,-9.2707,0.0,-9.29,-9.3676,0.0,0.0,0.0,0.0,0.0,0.0,0.0,0.0,0.0,0.0,0.0,0.0,0.0,0.0,0.0,-10.9397,-10.9474,-10.9474,-10.9397,-10.9282,-10.9282,-11.0017,-11.0286,-11.0286,-11.1137,-11.1522,-11.1522,-11.1598,-11.1598,-11.1598,-11.1714,-11.1791,-11.1791,-11.1791,-11.1714,-11.1598,-11.1598,-11.1598,-11.1522,-11.1522,-11.1522,-11.1598,-11.2522,-11.2791,-11.2983,-11.3791,-11.4599,-11.5291,-11.5407,-11.5907,-11.6484,-11.6484,-11.6599,-11.6792,-11.76,-11.7907,-11.81,-11.8985,-11.9715,-12.0292,-12.0408,-12.0985,-12.16,-12.16,-12.16,-12.16,-12.16,-12.16,-12.16,-12.1677,-12.1677,-12.2216,-12.3793,-12.4216,-12.4486,-12.5293,-12.5486,-12.5794,-12.6601,-12.6678,-12.6678,-12.6678,-12.6678,-12.6678,-12.6678,-12.6678,-12.6717,-12.6503,-12.6503,-12.6491,-12.6402,-12.6402,-12.6402,-12.6402,-12.6325,-12.5685,-12.4727,-12.4613,-12.2522,-11.8416,-11.9113,-11.948,-10.0312,-9.9179,-9.8041,-9.6629,-9.5314,-9.4192,-9.3669,-9.3397,-9.3438,-9.4285,0.0,0.0,0.0,0.0,0.0,0.0,-9.8635,0.0,0.0,0.0,0.0,0.0,0.0,0.0,0.0,0.0,0.0,-10.8906,-10.8906,-10.8906,-10.8906,-10.9175,-10.9406,-10.9406,-10.979,-11.0214,-11.0714,-11.0714,-11.0983,-11.1522,-11.1522,-11.1522,-11.1522,-11.1522,-11.1522,-11.1522,-11.1522,-11.1522,-11.1522,-11.1522,-11.1522,-11.1522,-11.1906,-11.2022,-11.2099,-11.2906,-11.3791,-11.4599,-11.5099,-11.5792,-11.6484,-11.6484,-11.6484,-11.6599,-11.6907,-11.6984,-11.7215,-11.81,-11.86,-11.91,-11.9985,-12.06,-12.0985,-12.1485,-12.16,-12.16,-12.16,-12.16,-12.16,-12.16,-12.16,-12.1793,-12.2485,-12.3101,-12.3716,-12.4486,-12.5101,-12.5678,-12.6601,-12.6678,-12.6678,-12.6678,-12.6678,-12.6678,-12.6678,-12.6678,-12.6678,-12.6678,-12.6678,-12.6678,-12.6678,-12.6678,-12.6678,-12.6678,-12.6678,-12.6222,-12.5202,-12.5202,-12.394,-12.1474,-12.1884,-12.1772,-10.3086,-10.1914,-10.0703,-9.8984,-9.7187,-9.5658,-9.506,-9.4285,-9.3939,-9.4818,-9.5016,0.0,0.0,0.0,-9.6557,-9.7364,0.0,-9.8019,0.0,0.0,0.0,0.0,0.0,0.0,0.0,0.0,0.0,0.0,0.0,-10.8178,-10.8178,-10.837,-10.8601,-10.8598,-10.879,-10.9175,-10.979,-10.979,-11.0214,-11.0791,-11.0791,-11.0791,-11.0791,-11.1021,-11.1098,-11.1214,-11.1406,-11.1522,-11.1522,-11.1522,-11.1522,-11.1522,-11.1522,-11.1522,-11.1598,-11.2214,-11.3099,-11.4099,-11.4714,-11.5599,-11.6484,-11.6484,-11.6484,-11.6484,-11.6484,-11.6484,-11.6599,-11.7292,-11.76,-11.81,-11.9292,-11.9985,-12.0485,-12.11,-12.1408,-12.16,-12.16,-12.16,-12.16,-12.16,-12.16,-12.16,-12.16,-12.21,-12.2793,-12.3601,-12.4486,-12.5409,-12.6178,-12.6601,-12.6678,-12.6678,-12.6678,-12.6601,-12.6409,-12.6294,-12.6294,-12.6294,-12.6601,-12.6678,-12.6678,-12.6678,-12.6678,-12.6678,-12.6678,-12.6274,-12.5631,-12.5631,-12.5339,-12.4595,-12.3973,-12.3306,-10.5781,-10.4687,-10.3594,-10.1914,-9.9179,-9.6947,-9.6892,-9.5251,-9.3943,-9.4821,-9.5016,-9.5251,-9.6134,-9.6288,-9.6557,-9.7364,-9.7518,0.0,0.0,0.0,0.0,0.0,0.0,0.0,0.0,0.0,0.0,0.0,-10.6521,-10.6521,-10.6521,-10.729,-10.7675,-10.7713,-10.8482,-10.8906,-10.8906,-10.8906,-10.8983,-10.8983,-10.8983,-10.8983,-10.8983,-10.9906,-11.0214,-11.0291,-11.1098,-11.1522,-11.1522,-11.1522,-11.1522,-11.1522,-11.1522,-11.1522,-11.1522,-11.1522,-11.2599,-11.3984,-11.3984,-11.5099,-11.6484,-11.6484,-11.6484,-11.6484,-11.6484,-11.6484,-11.6484,-11.6484,-11.71,-11.7792,-11.7907,-11.91,-12.0292,-12.0292,-12.0985,-12.16,-12.16,-12.16,-12.16,-12.16,-12.16,-12.16,-12.16,-12.16,-12.1908,-12.2793,-12.3601,-12.4486,-12.5293,-12.6178,-12.6678,-12.6678,-12.6678,-12.6409,-12.5486,-12.5409,-12.5409,-12.5409,-12.6178,-12.6678,-12.6678,-12.6678,-12.6678,-12.6678,-12.6678,-12.6717,-12.6717,-12.6717,-12.6591,-12.658,-12.4699,-12.3306,-10.8281,-10.7383,-10.6289,-10.4609,-10.2383,-10.05,-9.9893,-9.7749,-9.6095,-9.6748,-9.6134,-9.5635,-9.6211,-9.6403,-9.6519,-9.6673,-9.6711,-9.698,0.0,-9.9211,0.0,0.0,0.0,0.0,0.0,0.0,0.0,0.0,-10.548,-10.5787,-10.6405,-10.6713,-10.679,-10.6828,-10.7098,-10.7482,-10.8098,-10.8098,-10.8406,-10.8906,-10.8906,-10.8906,-10.8906,-10.9213,-10.929,-10.9406,-11.0291,-11.0598,-11.0714,-11.1291,-11.1522,-11.1522,-11.1522,-11.1522,-11.1522,-11.1522,-11.2599,-11.4214,-11.5291,-11.5984,-11.6484,-11.6484,-11.6484,-11.6484,-11.6484,-11.6484,-11.6484,-11.6484,-11.6676,-11.71,-11.7715,-11.8215,-11.8792,-11.9408,-11.9715,-12.01,-12.06,-12.0716,-12.0908,-12.1485,-12.16,-12.16,-12.16,-12.16,-12.1908,-12.2793,-12.3101,-12.3601,-12.4409,-12.4793,-12.4986,-12.4986,-12.4986,-12.4909,-12.4601,-12.5101,-12.5409,-12.5409,-12.6178,-12.6678,-12.6678,-12.6678,-12.6678,-12.6678,-12.6678,-12.6678,-12.6678,-12.6678,-12.6678,-12.6717,-12.541,-12.4369,-11.1406,-11.0312,-10.9101,-10.7695,-10.539,-10.33,-10.2712,-10.0376,-9.8489,-9.8877,-9.7728,-9.6695,-9.6954,-9.6808,-9.6557,-9.6442,-9.6365,-9.6557,0.0,-9.8712,-9.9942,-10.0788,0.0,0.0,0.0,0.0,0.0,-10.4636,-10.4903,-10.5287,-10.5905,-10.6213,-10.6405,-10.6405,-10.6405,-10.6713,-10.7213,-10.7213,-10.7521,-10.8021,-10.8021,-10.8021,-10.8021,-10.829,-10.8482,-10.8482,-10.9713,-11.0214,-11.0291,-11.1098,-11.1522,-11.1522,-11.1522,-11.1522,-11.1522,-11.1791,-11.2983,-11.4714,-11.5984,-11.6484,-11.6484,-11.6484,-11.6484,-11.6484,-11.6484,-11.6484,-11.6484,-11.6484,-11.6484,-11.6599,-11.7215,-11.76,-11.7907,-11.8484,-11.8908,-11.9215,-11.9792,-12.01,-12.0485,-12.0985,-12.16,-12.21,-12.21,-12.2293,-12.2485,-12.2408,-12.2716,-12.3101,-12.3601,-12.3909,-12.4101,-12.4101,-12.4101,-12.3985,-12.3716,-12.4486,-12.4909,-12.4909,-12.5986,-12.6678,-12.6678,-12.6678,-12.6678,-12.6678,-12.6678,-12.6678,-12.6678,-12.6678,-12.6486,-12.6178,-12.5293,-12.4486]}]]